<?xml version="1.0" encoding="UTF-8" standalone="no" ?>
<gpx xmlns="http://www.topografix.com/GPX/1/1" xmlns:xsi="http://www.w3.org/2001/XMLSchema-instance" xsi:schemaLocation="http://www.topografix.com/GPX/1/1 http://www.topografix.com/GPX/1/1/gpx.xsd" version="1.1" creator="VisuGPX - https://www.visugpx.com">
  <metadata>
    <name>Col-Peyresourde</name>
  </metadata>
  <trk>
    <name><![CDATA[Col-Peyresourde]]></name>
    <trkseg>
      <trkpt lat="43.06987" lon="0.54506">
        <ele>429.428767</ele>
        <time>2021-05-15T16:08:51.794Z</time>
      </trkpt>
      <trkpt lat="43.06998" lon="0.54503">
        <ele>429.428767</ele>
        <time>2021-05-15T16:08:55.122Z</time>
      </trkpt>
      <trkpt lat="43.06996" lon="0.54484">
        <ele>429.428767</ele>
        <time>2021-05-15T16:08:59.784Z</time>
      </trkpt>
      <trkpt lat="43.07013" lon="0.54464">
        <ele>429.428767</ele>
        <time>2021-05-15T16:09:06.128Z</time>
      </trkpt>
      <trkpt lat="43.07016" lon="0.54459">
        <ele>429.428767</ele>
        <time>2021-05-15T16:09:07.767Z</time>
      </trkpt>
      <trkpt lat="43.07022" lon="0.54459">
        <ele>429.428767</ele>
        <time>2021-05-15T16:09:09.322Z</time>
      </trkpt>
      <trkpt lat="43.07031" lon="0.54451">
        <ele>429.428767</ele>
        <time>2021-05-15T16:09:11.633Z</time>
      </trkpt>
      <trkpt lat="43.07034" lon="0.54427">
        <ele>429.428767</ele>
        <time>2021-05-15T16:09:15.774Z</time>
      </trkpt>
      <trkpt lat="43.07036" lon="0.54423">
        <ele>429.428767</ele>
        <time>2021-05-15T16:09:16.791Z</time>
      </trkpt>
      <trkpt lat="43.07039" lon="0.54421">
        <ele>429.413621</ele>
        <time>2021-05-15T16:09:17.650Z</time>
      </trkpt>
      <trkpt lat="43.07078" lon="0.54421">
        <ele>429.243759</ele>
        <time>2021-05-15T16:09:26.511Z</time>
      </trkpt>
      <trkpt lat="43.071" lon="0.54418">
        <ele>429.144158</ele>
        <time>2021-05-15T16:09:31.468Z</time>
      </trkpt>
      <trkpt lat="43.07104" lon="0.54418">
        <ele>429.126459</ele>
        <time>2021-05-15T16:09:32.589Z</time>
      </trkpt>
      <trkpt lat="43.07108" lon="0.54417">
        <ele>429.111886</ele>
        <time>2021-05-15T16:09:33.340Z</time>
      </trkpt>
      <trkpt lat="43.07117" lon="0.54455">
        <ele>428.985517</ele>
        <time>2021-05-15T16:09:39.294Z</time>
      </trkpt>
      <trkpt lat="43.07123" lon="0.54476">
        <ele>428.910509</ele>
        <time>2021-05-15T16:09:42.735Z</time>
      </trkpt>
      <trkpt lat="43.07161" lon="0.54556">
        <ele>428.618663</ele>
        <time>2021-05-15T16:09:56.396Z</time>
      </trkpt>
      <trkpt lat="43.07195" lon="0.54675">
        <ele>428.36836</ele>
        <time>2021-05-15T16:10:14.450Z</time>
      </trkpt>
      <trkpt lat="43.07058" lon="0.54745">
        <ele>430.557128</ele>
        <time>2021-05-15T16:10:50.999Z</time>
      </trkpt>
      <trkpt lat="43.06998" lon="0.54811">
        <ele>433.326382</ele>
        <time>2021-05-15T16:11:24.884Z</time>
      </trkpt>
      <trkpt lat="43.06993" lon="0.54818">
        <ele>433.58956</ele>
        <time>2021-05-15T16:11:28.487Z</time>
      </trkpt>
      <trkpt lat="43.0699" lon="0.54819">
        <ele>433.68594</ele>
        <time>2021-05-15T16:11:29.570Z</time>
      </trkpt>
      <trkpt lat="43.06988" lon="0.54821">
        <ele>433.788387</ele>
        <time>2021-05-15T16:11:30.762Z</time>
      </trkpt>
      <trkpt lat="43.06982" lon="0.54827">
        <ele>434.046119</ele>
        <time>2021-05-15T16:11:34.011Z</time>
      </trkpt>
      <trkpt lat="43.06961" lon="0.54851">
        <ele>435.335138</ele>
        <time>2021-05-15T16:11:46.710Z</time>
      </trkpt>
      <trkpt lat="43.06926" lon="0.54888">
        <ele>438.081645</ele>
        <time>2021-05-15T16:12:07.488Z</time>
      </trkpt>
      <trkpt lat="43.0692" lon="0.54893">
        <ele>438.501807</ele>
        <time>2021-05-15T16:12:10.721Z</time>
      </trkpt>
      <trkpt lat="43.06918" lon="0.54896">
        <ele>438.709374</ele>
        <time>2021-05-15T16:12:12.299Z</time>
      </trkpt>
      <trkpt lat="43.06916" lon="0.54898">
        <ele>438.840862</ele>
        <time>2021-05-15T16:12:13.284Z</time>
      </trkpt>
      <trkpt lat="43.06909" lon="0.54906">
        <ele>439.386849</ele>
        <time>2021-05-15T16:12:17.850Z</time>
      </trkpt>
      <trkpt lat="43.06906" lon="0.54929">
        <ele>440.449112</ele>
        <time>2021-05-15T16:12:25.821Z</time>
      </trkpt>
      <trkpt lat="43.06943" lon="0.55025">
        <ele>445.413908</ele>
        <time>2021-05-15T16:13:06.322Z</time>
      </trkpt>
      <trkpt lat="43.06959" lon="0.55118">
        <ele>448.170678</ele>
        <time>2021-05-15T16:13:34.597Z</time>
      </trkpt>
      <trkpt lat="43.06957" lon="0.55123">
        <ele>448.317333</ele>
        <time>2021-05-15T16:13:36.243Z</time>
      </trkpt>
      <trkpt lat="43.06953" lon="0.55125">
        <ele>448.486791</ele>
        <time>2021-05-15T16:13:37.881Z</time>
      </trkpt>
      <trkpt lat="43.06947" lon="0.55127">
        <ele>448.710904</ele>
        <time>2021-05-15T16:13:39.672Z</time>
      </trkpt>
      <trkpt lat="43.06915" lon="0.55114">
        <ele>449.98487</ele>
        <time>2021-05-15T16:13:51.492Z</time>
      </trkpt>
      <trkpt lat="43.0691" lon="0.55113">
        <ele>450.154921</ele>
        <time>2021-05-15T16:13:52.902Z</time>
      </trkpt>
      <trkpt lat="43.06891" lon="0.55108">
        <ele>450.871629</ele>
        <time>2021-05-15T16:13:59.500Z</time>
      </trkpt>
      <trkpt lat="43.06775" lon="0.55087">
        <ele>453.315559</ele>
        <time>2021-05-15T16:14:38.038Z</time>
      </trkpt>
      <trkpt lat="43.06716" lon="0.5509">
        <ele>453.941425</ele>
        <time>2021-05-15T16:14:52.312Z</time>
      </trkpt>
      <trkpt lat="43.06677" lon="0.55106">
        <ele>454.383102</ele>
        <time>2021-05-15T16:15:00.952Z</time>
      </trkpt>
      <trkpt lat="43.06647" lon="0.55119">
        <ele>454.132085</ele>
        <time>2021-05-15T16:15:07.094Z</time>
      </trkpt>
      <trkpt lat="43.06633" lon="0.55125">
        <ele>453.928624</ele>
        <time>2021-05-15T16:15:09.886Z</time>
      </trkpt>
      <trkpt lat="43.06604" lon="0.55127">
        <ele>453.551105</ele>
        <time>2021-05-15T16:15:15.391Z</time>
      </trkpt>
      <trkpt lat="43.06539" lon="0.55106">
        <ele>452.670953</ele>
        <time>2021-05-15T16:15:27.401Z</time>
      </trkpt>
      <trkpt lat="43.06525" lon="0.55107">
        <ele>452.488408</ele>
        <time>2021-05-15T16:15:29.685Z</time>
      </trkpt>
      <trkpt lat="43.06448" lon="0.55132">
        <ele>451.92662</ele>
        <time>2021-05-15T16:15:44.418Z</time>
      </trkpt>
      <trkpt lat="43.06425" lon="0.55126">
        <ele>451.85521</ele>
        <time>2021-05-15T16:15:49.122Z</time>
      </trkpt>
      <trkpt lat="43.06394" lon="0.55108">
        <ele>451.751196</ele>
        <time>2021-05-15T16:15:56.286Z</time>
      </trkpt>
      <trkpt lat="43.06329" lon="0.55088">
        <ele>451.545888</ele>
        <time>2021-05-15T16:16:11.989Z</time>
      </trkpt>
      <trkpt lat="43.06306" lon="0.55091">
        <ele>451.783628</ele>
        <time>2021-05-15T16:16:18.335Z</time>
      </trkpt>
      <trkpt lat="43.06299" lon="0.55096">
        <ele>451.914552</ele>
        <time>2021-05-15T16:16:19.981Z</time>
      </trkpt>
      <trkpt lat="43.06288" lon="0.55105">
        <ele>452.12663</ele>
        <time>2021-05-15T16:16:24.045Z</time>
      </trkpt>
      <trkpt lat="43.06223" lon="0.55162">
        <ele>453.388963</ele>
        <time>2021-05-15T16:16:46.317Z</time>
      </trkpt>
      <trkpt lat="43.06119" lon="0.55219">
        <ele>455.014</ele>
        <time>2021-05-15T16:17:20.703Z</time>
      </trkpt>
      <trkpt lat="43.06073" lon="0.55233">
        <ele>455.556205</ele>
        <time>2021-05-15T16:17:33.840Z</time>
      </trkpt>
      <trkpt lat="43.06022" lon="0.55228">
        <ele>456.1553</ele>
        <time>2021-05-15T16:17:47.033Z</time>
      </trkpt>
      <trkpt lat="43.06004" lon="0.55234">
        <ele>456.373527</ele>
        <time>2021-05-15T16:17:51.566Z</time>
      </trkpt>
      <trkpt lat="43.05951" lon="0.55283">
        <ele>456.547088</ele>
        <time>2021-05-15T16:18:05.857Z</time>
      </trkpt>
      <trkpt lat="43.05913" lon="0.55304">
        <ele>456.524642</ele>
        <time>2021-05-15T16:18:14.449Z</time>
      </trkpt>
      <trkpt lat="43.05815" lon="0.55335">
        <ele>456.560312</ele>
        <time>2021-05-15T16:18:35.934Z</time>
      </trkpt>
      <trkpt lat="43.0574" lon="0.55372">
        <ele>457.408993</ele>
        <time>2021-05-15T16:18:54.985Z</time>
      </trkpt>
      <trkpt lat="43.05677" lon="0.55388">
        <ele>458.099667</ele>
        <time>2021-05-15T16:19:12.174Z</time>
      </trkpt>
      <trkpt lat="43.0565" lon="0.55396">
        <ele>458.388896</ele>
        <time>2021-05-15T16:19:21.417Z</time>
      </trkpt>
      <trkpt lat="43.05645" lon="0.55398">
        <ele>458.539083</ele>
        <time>2021-05-15T16:19:22.966Z</time>
      </trkpt>
      <trkpt lat="43.05583" lon="0.55413">
        <ele>460.501718</ele>
        <time>2021-05-15T16:19:44.606Z</time>
      </trkpt>
      <trkpt lat="43.05556" lon="0.55425">
        <ele>461.391007</ele>
        <time>2021-05-15T16:19:53.763Z</time>
      </trkpt>
      <trkpt lat="43.05531" lon="0.55461">
        <ele>462.513842</ele>
        <time>2021-05-15T16:20:06.905Z</time>
      </trkpt>
      <trkpt lat="43.05529" lon="0.55464">
        <ele>462.617923</ele>
        <time>2021-05-15T16:20:08.497Z</time>
      </trkpt>
      <trkpt lat="43.05524" lon="0.55466">
        <ele>462.787547</ele>
        <time>2021-05-15T16:20:11.466Z</time>
      </trkpt>
      <trkpt lat="43.05486" lon="0.55448">
        <ele>464.006394</ele>
        <time>2021-05-15T16:20:26.655Z</time>
      </trkpt>
      <trkpt lat="43.05463" lon="0.55425">
        <ele>464.457347</ele>
        <time>2021-05-15T16:20:36.413Z</time>
      </trkpt>
      <trkpt lat="43.0542" lon="0.55365">
        <ele>465.432097</ele>
        <time>2021-05-15T16:20:55.709Z</time>
      </trkpt>
      <trkpt lat="43.05384" lon="0.5534">
        <ele>466.067737</ele>
        <time>2021-05-15T16:21:07.390Z</time>
      </trkpt>
      <trkpt lat="43.05376" lon="0.55334">
        <ele>466.209519</ele>
        <time>2021-05-15T16:21:09.919Z</time>
      </trkpt>
      <trkpt lat="43.05229" lon="0.55227">
        <ele>465.342265</ele>
        <time>2021-05-15T16:21:41.555Z</time>
      </trkpt>
      <trkpt lat="43.05122" lon="0.55153">
        <ele>464.12665</ele>
        <time>2021-05-15T16:22:03.414Z</time>
      </trkpt>
      <trkpt lat="43.05099" lon="0.55132">
        <ele>463.890404</ele>
        <time>2021-05-15T16:22:08.962Z</time>
      </trkpt>
      <trkpt lat="43.05083" lon="0.55114">
        <ele>463.707402</ele>
        <time>2021-05-15T16:22:13.413Z</time>
      </trkpt>
      <trkpt lat="43.04928" lon="0.55224">
        <ele>462.502342</ele>
        <time>2021-05-15T16:22:49.509Z</time>
      </trkpt>
      <trkpt lat="43.04878" lon="0.55262">
        <ele>462.16845</ele>
        <time>2021-05-15T16:23:00.704Z</time>
      </trkpt>
      <trkpt lat="43.04863" lon="0.55269">
        <ele>462.072916</ele>
        <time>2021-05-15T16:23:04.331Z</time>
      </trkpt>
      <trkpt lat="43.04851" lon="0.55271">
        <ele>461.994833</ele>
        <time>2021-05-15T16:23:06.445Z</time>
      </trkpt>
      <trkpt lat="43.04842" lon="0.5527">
        <ele>461.932789</ele>
        <time>2021-05-15T16:23:08.489Z</time>
      </trkpt>
      <trkpt lat="43.04815" lon="0.55263">
        <ele>461.755053</ele>
        <time>2021-05-15T16:23:13.758Z</time>
      </trkpt>
      <trkpt lat="43.04807" lon="0.55264">
        <ele>461.704369</ele>
        <time>2021-05-15T16:23:15.359Z</time>
      </trkpt>
      <trkpt lat="43.04778" lon="0.55276">
        <ele>461.508638</ele>
        <time>2021-05-15T16:23:21.077Z</time>
      </trkpt>
      <trkpt lat="43.04752" lon="0.55288">
        <ele>461.32807</ele>
        <time>2021-05-15T16:23:26.504Z</time>
      </trkpt>
      <trkpt lat="43.04747" lon="0.55292">
        <ele>461.287775</ele>
        <time>2021-05-15T16:23:27.644Z</time>
      </trkpt>
      <trkpt lat="43.04738" lon="0.55305">
        <ele>461.207611</ele>
        <time>2021-05-15T16:23:30.415Z</time>
      </trkpt>
      <trkpt lat="43.04715" lon="0.55357">
        <ele>460.926271</ele>
        <time>2021-05-15T16:23:40.010Z</time>
      </trkpt>
      <trkpt lat="43.04679" lon="0.55397">
        <ele>460.994291</ele>
        <time>2021-05-15T16:23:50.682Z</time>
      </trkpt>
      <trkpt lat="43.04523" lon="0.55485">
        <ele>461.544535</ele>
        <time>2021-05-15T16:24:29.295Z</time>
      </trkpt>
      <trkpt lat="43.04433" lon="0.55519">
        <ele>462.458263</ele>
        <time>2021-05-15T16:24:53.285Z</time>
      </trkpt>
      <trkpt lat="43.04406" lon="0.55554">
        <ele>462.821939</ele>
        <time>2021-05-15T16:25:03.689Z</time>
      </trkpt>
      <trkpt lat="43.04389" lon="0.55556">
        <ele>463.03538</ele>
        <time>2021-05-15T16:25:08.722Z</time>
      </trkpt>
      <trkpt lat="43.04334" lon="0.55536">
        <ele>464.161129</ele>
        <time>2021-05-15T16:25:26.446Z</time>
      </trkpt>
      <trkpt lat="43.04307" lon="0.55536">
        <ele>464.695607</ele>
        <time>2021-05-15T16:25:34.847Z</time>
      </trkpt>
      <trkpt lat="43.04249" lon="0.55572">
        <ele>465.976072</ele>
        <time>2021-05-15T16:25:54.892Z</time>
      </trkpt>
      <trkpt lat="43.0423" lon="0.55592">
        <ele>466.451223</ele>
        <time>2021-05-15T16:26:02.176Z</time>
      </trkpt>
      <trkpt lat="43.04224" lon="0.55602">
        <ele>466.588749</ele>
        <time>2021-05-15T16:26:04.997Z</time>
      </trkpt>
      <trkpt lat="43.04081" lon="0.55945">
        <ele>468.995665</ele>
        <time>2021-05-15T16:27:19.272Z</time>
      </trkpt>
      <trkpt lat="43.04056" lon="0.5598">
        <ele>469.178543</ele>
        <time>2021-05-15T16:27:27.309Z</time>
      </trkpt>
      <trkpt lat="43.04019" lon="0.56004">
        <ele>469.290239</ele>
        <time>2021-05-15T16:27:36.166Z</time>
      </trkpt>
      <trkpt lat="43.03984" lon="0.56014">
        <ele>469.13707</ele>
        <time>2021-05-15T16:27:43.872Z</time>
      </trkpt>
      <trkpt lat="43.03897" lon="0.56024">
        <ele>468.761488</ele>
        <time>2021-05-15T16:28:02.251Z</time>
      </trkpt>
      <trkpt lat="43.03864" lon="0.56035">
        <ele>468.613389</ele>
        <time>2021-05-15T16:28:09.125Z</time>
      </trkpt>
      <trkpt lat="43.03776" lon="0.56119">
        <ele>467.673688</ele>
        <time>2021-05-15T16:28:29.674Z</time>
      </trkpt>
      <trkpt lat="43.03724" lon="0.56171">
        <ele>467.073248</ele>
        <time>2021-05-15T16:28:42.616Z</time>
      </trkpt>
      <trkpt lat="43.03708" lon="0.56184">
        <ele>466.899741</ele>
        <time>2021-05-15T16:28:46.209Z</time>
      </trkpt>
      <trkpt lat="43.03687" lon="0.56198">
        <ele>466.449514</ele>
        <time>2021-05-15T16:28:50.645Z</time>
      </trkpt>
      <trkpt lat="43.03634" lon="0.56217">
        <ele>465.31059</ele>
        <time>2021-05-15T16:29:00.820Z</time>
      </trkpt>
      <trkpt lat="43.03579" lon="0.56251">
        <ele>464.058364</ele>
        <time>2021-05-15T16:29:10.991Z</time>
      </trkpt>
      <trkpt lat="43.03573" lon="0.56267">
        <ele>463.781596</ele>
        <time>2021-05-15T16:29:13.316Z</time>
      </trkpt>
      <trkpt lat="43.03566" lon="0.56302">
        <ele>463.226681</ele>
        <time>2021-05-15T16:29:18.123Z</time>
      </trkpt>
      <trkpt lat="43.0358" lon="0.56358">
        <ele>461.885837</ele>
        <time>2021-05-15T16:29:25.613Z</time>
      </trkpt>
      <trkpt lat="43.03581" lon="0.56363">
        <ele>461.762336</ele>
        <time>2021-05-15T16:29:26.231Z</time>
      </trkpt>
      <trkpt lat="43.03582" lon="0.56371">
        <ele>461.570118</ele>
        <time>2021-05-15T16:29:27.138Z</time>
      </trkpt>
      <trkpt lat="43.03577" lon="0.56398">
        <ele>460.936078</ele>
        <time>2021-05-15T16:29:30.857Z</time>
      </trkpt>
      <trkpt lat="43.0353" lon="0.56479">
        <ele>458.488579</ele>
        <time>2021-05-15T16:29:43.618Z</time>
      </trkpt>
      <trkpt lat="43.03536" lon="0.56575">
        <ele>456.903075</ele>
        <time>2021-05-15T16:29:55.637Z</time>
      </trkpt>
      <trkpt lat="43.03533" lon="0.56608">
        <ele>456.571116</ele>
        <time>2021-05-15T16:30:00.302Z</time>
      </trkpt>
      <trkpt lat="43.03496" lon="0.56673">
        <ele>455.736677</ele>
        <time>2021-05-15T16:30:12.567Z</time>
      </trkpt>
      <trkpt lat="43.03478" lon="0.56724">
        <ele>455.168833</ele>
        <time>2021-05-15T16:30:21.385Z</time>
      </trkpt>
      <trkpt lat="43.03443" lon="0.56792">
        <ele>454.962988</ele>
        <time>2021-05-15T16:30:35.487Z</time>
      </trkpt>
      <trkpt lat="43.03434" lon="0.56838">
        <ele>454.989404</ele>
        <time>2021-05-15T16:30:43.725Z</time>
      </trkpt>
      <trkpt lat="43.03432" lon="0.56887">
        <ele>455.017025</ele>
        <time>2021-05-15T16:30:52.280Z</time>
      </trkpt>
      <trkpt lat="43.03429" lon="0.56905">
        <ele>455.027449</ele>
        <time>2021-05-15T16:30:55.444Z</time>
      </trkpt>
      <trkpt lat="43.03421" lon="0.5692">
        <ele>455.037894</ele>
        <time>2021-05-15T16:30:58.990Z</time>
      </trkpt>
      <trkpt lat="43.03409" lon="0.56932">
        <ele>455.049345</ele>
        <time>2021-05-15T16:31:02.335Z</time>
      </trkpt>
      <trkpt lat="43.03393" lon="0.56948">
        <ele>455.064757</ele>
        <time>2021-05-15T16:31:07.415Z</time>
      </trkpt>
      <trkpt lat="43.03393" lon="0.56956">
        <ele>455.070297</ele>
        <time>2021-05-15T16:31:08.598Z</time>
      </trkpt>
      <trkpt lat="43.03379" lon="0.57024">
        <ele>455.144033</ele>
        <time>2021-05-15T16:31:20.428Z</time>
      </trkpt>
      <trkpt lat="43.03367" lon="0.57068">
        <ele>455.19275</ele>
        <time>2021-05-15T16:31:28.303Z</time>
      </trkpt>
      <trkpt lat="43.03363" lon="0.57088">
        <ele>455.213864</ele>
        <time>2021-05-15T16:31:32.018Z</time>
      </trkpt>
      <trkpt lat="43.03357" lon="0.57168">
        <ele>455.296897</ele>
        <time>2021-05-15T16:31:45.205Z</time>
      </trkpt>
      <trkpt lat="43.03344" lon="0.57212">
        <ele>455.344473</ele>
        <time>2021-05-15T16:31:52.981Z</time>
      </trkpt>
      <trkpt lat="43.03335" lon="0.57369">
        <ele>455.495453</ele>
        <time>2021-05-15T16:32:19.489Z</time>
      </trkpt>
      <trkpt lat="43.03333" lon="0.57382">
        <ele>455.508512</ele>
        <time>2021-05-15T16:32:21.712Z</time>
      </trkpt>
      <trkpt lat="43.03332" lon="0.57403">
        <ele>455.528818</ele>
        <time>2021-05-15T16:32:25.307Z</time>
      </trkpt>
      <trkpt lat="43.03329" lon="0.57464">
        <ele>455.604683</ele>
        <time>2021-05-15T16:32:35.410Z</time>
      </trkpt>
      <trkpt lat="43.03332" lon="0.57519">
        <ele>455.688627</ele>
        <time>2021-05-15T16:32:44.329Z</time>
      </trkpt>
      <trkpt lat="43.03337" lon="0.57588">
        <ele>455.795198</ele>
        <time>2021-05-15T16:32:55.656Z</time>
      </trkpt>
      <trkpt lat="43.0334" lon="0.57641">
        <ele>455.87732</ele>
        <time>2021-05-15T16:33:04.913Z</time>
      </trkpt>
      <trkpt lat="43.03334" lon="0.57754">
        <ele>456.277461</ele>
        <time>2021-05-15T16:33:24.866Z</time>
      </trkpt>
      <trkpt lat="43.0333" lon="0.57761">
        <ele>456.319695</ele>
        <time>2021-05-15T16:33:26.463Z</time>
      </trkpt>
      <trkpt lat="43.03336" lon="0.57784">
        <ele>456.431116</ele>
        <time>2021-05-15T16:33:30.951Z</time>
      </trkpt>
      <trkpt lat="43.03343" lon="0.57815">
        <ele>456.583299</ele>
        <time>2021-05-15T16:33:36.717Z</time>
      </trkpt>
      <trkpt lat="43.0335" lon="0.5783">
        <ele>456.663318</ele>
        <time>2021-05-15T16:33:40.012Z</time>
      </trkpt>
      <trkpt lat="43.03363" lon="0.57855">
        <ele>456.803043</ele>
        <time>2021-05-15T16:33:45.507Z</time>
      </trkpt>
      <trkpt lat="43.03363" lon="0.57877">
        <ele>456.900787</ele>
        <time>2021-05-15T16:33:49.791Z</time>
      </trkpt>
      <trkpt lat="43.03331" lon="0.58042">
        <ele>457.787216</ele>
        <time>2021-05-15T16:34:22.275Z</time>
      </trkpt>
      <trkpt lat="43.03329" lon="0.58058">
        <ele>457.874726</ele>
        <time>2021-05-15T16:34:25.447Z</time>
      </trkpt>
      <trkpt lat="43.03321" lon="0.58108">
        <ele>458.148811</ele>
        <time>2021-05-15T16:34:34.757Z</time>
      </trkpt>
      <trkpt lat="43.03312" lon="0.58172">
        <ele>458.297363</ele>
        <time>2021-05-15T16:34:45.914Z</time>
      </trkpt>
      <trkpt lat="43.03312" lon="0.58243">
        <ele>458.002753</ele>
        <time>2021-05-15T16:34:57.354Z</time>
      </trkpt>
      <trkpt lat="43.0331" lon="0.58265">
        <ele>457.912278</ele>
        <time>2021-05-15T16:35:00.611Z</time>
      </trkpt>
      <trkpt lat="43.03308" lon="0.58311">
        <ele>457.720581</ele>
        <time>2021-05-15T16:35:07.212Z</time>
      </trkpt>
      <trkpt lat="43.03309" lon="0.5833">
        <ele>457.643388</ele>
        <time>2021-05-15T16:35:09.738Z</time>
      </trkpt>
      <trkpt lat="43.03312" lon="0.5835">
        <ele>457.561321</ele>
        <time>2021-05-15T16:35:12.643Z</time>
      </trkpt>
      <trkpt lat="43.03318" lon="0.58372">
        <ele>457.463931</ele>
        <time>2021-05-15T16:35:15.894Z</time>
      </trkpt>
      <trkpt lat="43.03324" lon="0.58409">
        <ele>457.341071</ele>
        <time>2021-05-15T16:35:21.315Z</time>
      </trkpt>
      <trkpt lat="43.03335" lon="0.58473">
        <ele>457.216697</ele>
        <time>2021-05-15T16:35:30.599Z</time>
      </trkpt>
      <trkpt lat="43.03338" lon="0.58496">
        <ele>457.170582</ele>
        <time>2021-05-15T16:35:34.123Z</time>
      </trkpt>
      <trkpt lat="43.0334" lon="0.58512">
        <ele>457.140863</ele>
        <time>2021-05-15T16:35:36.382Z</time>
      </trkpt>
      <trkpt lat="43.03345" lon="0.58536">
        <ele>457.092171</ele>
        <time>2021-05-15T16:35:40.158Z</time>
      </trkpt>
      <trkpt lat="43.0335" lon="0.58551">
        <ele>457.061183</ele>
        <time>2021-05-15T16:35:42.572Z</time>
      </trkpt>
      <trkpt lat="43.03351" lon="0.58555">
        <ele>457.052863</ele>
        <time>2021-05-15T16:35:43.518Z</time>
      </trkpt>
      <trkpt lat="43.03397" lon="0.58669">
        <ele>457.151371</ele>
        <time>2021-05-15T16:36:06.823Z</time>
      </trkpt>
      <trkpt lat="43.03413" lon="0.58717">
        <ele>457.408301</ele>
        <time>2021-05-15T16:36:17.766Z</time>
      </trkpt>
      <trkpt lat="43.03419" lon="0.58739">
        <ele>457.522792</ele>
        <time>2021-05-15T16:36:22.965Z</time>
      </trkpt>
      <trkpt lat="43.03443" lon="0.58795">
        <ele>457.839142</ele>
        <time>2021-05-15T16:36:34.559Z</time>
      </trkpt>
      <trkpt lat="43.0345" lon="0.58835">
        <ele>458.043968</ele>
        <time>2021-05-15T16:36:41.498Z</time>
      </trkpt>
      <trkpt lat="43.03453" lon="0.58868">
        <ele>457.94693</ele>
        <time>2021-05-15T16:36:47.267Z</time>
      </trkpt>
      <trkpt lat="43.0345" lon="0.58875">
        <ele>457.879352</ele>
        <time>2021-05-15T16:36:48.432Z</time>
      </trkpt>
      <trkpt lat="43.03443" lon="0.58943">
        <ele>457.314845</ele>
        <time>2021-05-15T16:36:59.316Z</time>
      </trkpt>
      <trkpt lat="43.03441" lon="0.58951">
        <ele>457.242887</ele>
        <time>2021-05-15T16:37:00.592Z</time>
      </trkpt>
      <trkpt lat="43.03433" lon="0.58988">
        <ele>456.929641</ele>
        <time>2021-05-15T16:37:06.045Z</time>
      </trkpt>
      <trkpt lat="43.03397" lon="0.5909">
        <ele>455.963811</ele>
        <time>2021-05-15T16:37:21.500Z</time>
      </trkpt>
      <trkpt lat="43.03376" lon="0.59154">
        <ele>455.172186</ele>
        <time>2021-05-15T16:37:30.678Z</time>
      </trkpt>
      <trkpt lat="43.03363" lon="0.59207">
        <ele>454.536115</ele>
        <time>2021-05-15T16:37:38.400Z</time>
      </trkpt>
      <trkpt lat="43.03346" lon="0.59253">
        <ele>453.946719</ele>
        <time>2021-05-15T16:37:45.880Z</time>
      </trkpt>
      <trkpt lat="43.03342" lon="0.59262">
        <ele>453.829608</ele>
        <time>2021-05-15T16:37:47.326Z</time>
      </trkpt>
      <trkpt lat="43.03316" lon="0.59359">
        <ele>453.093876</ele>
        <time>2021-05-15T16:38:02.933Z</time>
      </trkpt>
      <trkpt lat="43.03319" lon="0.59364">
        <ele>453.070522</ele>
        <time>2021-05-15T16:38:03.829Z</time>
      </trkpt>
      <trkpt lat="43.03309" lon="0.59371">
        <ele>453.015884</ele>
        <time>2021-05-15T16:38:06.313Z</time>
      </trkpt>
      <trkpt lat="43.03297" lon="0.59379">
        <ele>452.952972</ele>
        <time>2021-05-15T16:38:09.083Z</time>
      </trkpt>
      <trkpt lat="43.03284" lon="0.59391">
        <ele>452.877009</ele>
        <time>2021-05-15T16:38:12.229Z</time>
      </trkpt>
      <trkpt lat="43.03243" lon="0.59426">
        <ele>452.642151</ele>
        <time>2021-05-15T16:38:22.967Z</time>
      </trkpt>
      <trkpt lat="43.03202" lon="0.59448">
        <ele>452.430359</ele>
        <time>2021-05-15T16:38:32.328Z</time>
      </trkpt>
      <trkpt lat="43.03112" lon="0.59477">
        <ele>451.328654</ele>
        <time>2021-05-15T16:38:50.767Z</time>
      </trkpt>
      <trkpt lat="43.03088" lon="0.59485">
        <ele>451.031597</ele>
        <time>2021-05-15T16:38:55.461Z</time>
      </trkpt>
      <trkpt lat="43.03084" lon="0.59488">
        <ele>450.969955</ele>
        <time>2021-05-15T16:38:56.419Z</time>
      </trkpt>
      <trkpt lat="43.03073" lon="0.59503">
        <ele>450.787686</ele>
        <time>2021-05-15T16:38:59.048Z</time>
      </trkpt>
      <trkpt lat="43.03013" lon="0.59636">
        <ele>448.823995</ele>
        <time>2021-05-15T16:39:19.051Z</time>
      </trkpt>
      <trkpt lat="43.02918" lon="0.59778">
        <ele>446.196418</ele>
        <time>2021-05-15T16:39:43.635Z</time>
      </trkpt>
      <trkpt lat="43.02722" lon="0.60062">
        <ele>443.393612</ele>
        <time>2021-05-15T16:40:38.940Z</time>
      </trkpt>
      <trkpt lat="43.02667" lon="0.60142">
        <ele>443.284359</ele>
        <time>2021-05-15T16:40:56.311Z</time>
      </trkpt>
      <trkpt lat="43.02638" lon="0.60184">
        <ele>443.5267</ele>
        <time>2021-05-15T16:41:06.175Z</time>
      </trkpt>
      <trkpt lat="43.02592" lon="0.60251">
        <ele>443.915004</ele>
        <time>2021-05-15T16:41:23.269Z</time>
      </trkpt>
      <trkpt lat="43.02553" lon="0.60307">
        <ele>444.397799</ele>
        <time>2021-05-15T16:41:38.899Z</time>
      </trkpt>
      <trkpt lat="43.02534" lon="0.60334">
        <ele>444.73844</ele>
        <time>2021-05-15T16:41:46.652Z</time>
      </trkpt>
      <trkpt lat="43.02507" lon="0.60373">
        <ele>445.234043</ele>
        <time>2021-05-15T16:41:57.887Z</time>
      </trkpt>
      <trkpt lat="43.02481" lon="0.6041">
        <ele>445.71133</ele>
        <time>2021-05-15T16:42:08.482Z</time>
      </trkpt>
      <trkpt lat="43.0246" lon="0.60441">
        <ele>446.094872</ele>
        <time>2021-05-15T16:42:16.851Z</time>
      </trkpt>
      <trkpt lat="43.02451" lon="0.60454">
        <ele>446.267602</ele>
        <time>2021-05-15T16:42:20.436Z</time>
      </trkpt>
      <trkpt lat="43.02445" lon="0.60462">
        <ele>446.374113</ele>
        <time>2021-05-15T16:42:22.602Z</time>
      </trkpt>
      <trkpt lat="43.02433" lon="0.60479">
        <ele>446.41954</ele>
        <time>2021-05-15T16:42:27.108Z</time>
      </trkpt>
      <trkpt lat="43.0243" lon="0.60483">
        <ele>446.429113</ele>
        <time>2021-05-15T16:42:28.033Z</time>
      </trkpt>
      <trkpt lat="43.02421" lon="0.60497">
        <ele>446.464472</ele>
        <time>2021-05-15T16:42:31.266Z</time>
      </trkpt>
      <trkpt lat="43.02419" lon="0.60501">
        <ele>446.472385</ele>
        <time>2021-05-15T16:42:32.018Z</time>
      </trkpt>
      <trkpt lat="43.02413" lon="0.60512">
        <ele>446.498238</ele>
        <time>2021-05-15T16:42:34.520Z</time>
      </trkpt>
      <trkpt lat="43.02362" lon="0.60606">
        <ele>446.718334</ele>
        <time>2021-05-15T16:42:54.109Z</time>
      </trkpt>
      <trkpt lat="43.02357" lon="0.60617">
        <ele>446.743201</ele>
        <time>2021-05-15T16:42:56.114Z</time>
      </trkpt>
      <trkpt lat="43.02346" lon="0.60641">
        <ele>446.79432</ele>
        <time>2021-05-15T16:43:00.694Z</time>
      </trkpt>
      <trkpt lat="43.02341" lon="0.6065">
        <ele>446.816548</ele>
        <time>2021-05-15T16:43:02.554Z</time>
      </trkpt>
      <trkpt lat="43.02339" lon="0.60654">
        <ele>446.826678</ele>
        <time>2021-05-15T16:43:03.328Z</time>
      </trkpt>
      <trkpt lat="43.0231" lon="0.60702">
        <ele>446.774873</ele>
        <time>2021-05-15T16:43:13.062Z</time>
      </trkpt>
      <trkpt lat="43.02309" lon="0.60704">
        <ele>446.77298</ele>
        <time>2021-05-15T16:43:13.357Z</time>
      </trkpt>
      <trkpt lat="43.02306" lon="0.60709">
        <ele>446.766437</ele>
        <time>2021-05-15T16:43:14.413Z</time>
      </trkpt>
      <trkpt lat="43.02292" lon="0.6073">
        <ele>446.735369</ele>
        <time>2021-05-15T16:43:18.857Z</time>
      </trkpt>
      <trkpt lat="43.02285" lon="0.60739">
        <ele>446.721831</ele>
        <time>2021-05-15T16:43:20.883Z</time>
      </trkpt>
      <trkpt lat="43.02255" lon="0.60777">
        <ele>446.662228</ele>
        <time>2021-05-15T16:43:29.703Z</time>
      </trkpt>
      <trkpt lat="43.02233" lon="0.60806">
        <ele>446.617855</ele>
        <time>2021-05-15T16:43:36.319Z</time>
      </trkpt>
      <trkpt lat="43.02182" lon="0.60873">
        <ele>446.488811</ele>
        <time>2021-05-15T16:43:51.921Z</time>
      </trkpt>
      <trkpt lat="43.02173" lon="0.60886">
        <ele>446.461379</ele>
        <time>2021-05-15T16:43:54.928Z</time>
      </trkpt>
      <trkpt lat="43.02168" lon="0.60894">
        <ele>446.443839</ele>
        <time>2021-05-15T16:43:56.824Z</time>
      </trkpt>
      <trkpt lat="43.02164" lon="0.609">
        <ele>446.431473</ele>
        <time>2021-05-15T16:43:58.122Z</time>
      </trkpt>
      <trkpt lat="43.02155" lon="0.60914">
        <ele>446.404147</ele>
        <time>2021-05-15T16:44:00.838Z</time>
      </trkpt>
      <trkpt lat="43.02144" lon="0.60931">
        <ele>446.367444</ele>
        <time>2021-05-15T16:44:04.663Z</time>
      </trkpt>
      <trkpt lat="43.02139" lon="0.60939">
        <ele>446.352179</ele>
        <time>2021-05-15T16:44:06.223Z</time>
      </trkpt>
      <trkpt lat="43.02117" lon="0.60972">
        <ele>446.283542</ele>
        <time>2021-05-15T16:44:13.098Z</time>
      </trkpt>
      <trkpt lat="43.02114" lon="0.60976">
        <ele>446.275005</ele>
        <time>2021-05-15T16:44:13.905Z</time>
      </trkpt>
      <trkpt lat="43.02108" lon="0.60982">
        <ele>446.259235</ele>
        <time>2021-05-15T16:44:15.360Z</time>
      </trkpt>
      <trkpt lat="43.02084" lon="0.61">
        <ele>446.200903</ele>
        <time>2021-05-15T16:44:21.325Z</time>
      </trkpt>
      <trkpt lat="43.02079" lon="0.61003">
        <ele>446.192856</ele>
        <time>2021-05-15T16:44:22.316Z</time>
      </trkpt>
      <trkpt lat="43.02042" lon="0.61026">
        <ele>446.160872</ele>
        <time>2021-05-15T16:44:30.771Z</time>
      </trkpt>
      <trkpt lat="43.01985" lon="0.6106">
        <ele>446.112251</ele>
        <time>2021-05-15T16:44:43.850Z</time>
      </trkpt>
      <trkpt lat="43.01979" lon="0.61063">
        <ele>446.10727</ele>
        <time>2021-05-15T16:44:45.045Z</time>
      </trkpt>
      <trkpt lat="43.01921" lon="0.61098">
        <ele>446.057294</ele>
        <time>2021-05-15T16:45:00.133Z</time>
      </trkpt>
      <trkpt lat="43.01912" lon="0.61104">
        <ele>446.072729</ele>
        <time>2021-05-15T16:45:02.467Z</time>
      </trkpt>
      <trkpt lat="43.01897" lon="0.61111">
        <ele>446.137926</ele>
        <time>2021-05-15T16:45:06.669Z</time>
      </trkpt>
      <trkpt lat="43.01888" lon="0.61115">
        <ele>446.174096</ele>
        <time>2021-05-15T16:45:08.975Z</time>
      </trkpt>
      <trkpt lat="43.0188" lon="0.6112">
        <ele>446.207065</ele>
        <time>2021-05-15T16:45:11.008Z</time>
      </trkpt>
      <trkpt lat="43.01871" lon="0.61123">
        <ele>446.244048</ele>
        <time>2021-05-15T16:45:13.443Z</time>
      </trkpt>
      <trkpt lat="43.01768" lon="0.6117">
        <ele>446.668056</ele>
        <time>2021-05-15T16:45:39.806Z</time>
      </trkpt>
      <trkpt lat="43.01745" lon="0.61181">
        <ele>446.745857</ele>
        <time>2021-05-15T16:45:45.325Z</time>
      </trkpt>
      <trkpt lat="43.017" lon="0.61203">
        <ele>446.436309</ele>
        <time>2021-05-15T16:45:55.533Z</time>
      </trkpt>
      <trkpt lat="43.01703" lon="0.61218">
        <ele>446.361388</ele>
        <time>2021-05-15T16:45:57.819Z</time>
      </trkpt>
      <trkpt lat="43.0172" lon="0.61286">
        <ele>446.023269</ele>
        <time>2021-05-15T16:46:08.821Z</time>
      </trkpt>
      <trkpt lat="43.01723" lon="0.61297">
        <ele>445.967005</ele>
        <time>2021-05-15T16:46:10.454Z</time>
      </trkpt>
      <trkpt lat="43.01604" lon="0.61375">
        <ele>445.419305</ele>
        <time>2021-05-15T16:46:36.832Z</time>
      </trkpt>
      <trkpt lat="43.01445" lon="0.61473">
        <ele>445.698904</ele>
        <time>2021-05-15T16:47:20.069Z</time>
      </trkpt>
      <trkpt lat="43.01275" lon="0.61569">
        <ele>447.118076</ele>
        <time>2021-05-15T16:48:09.839Z</time>
      </trkpt>
      <trkpt lat="43.01232" lon="0.61581">
        <ele>447.464841</ele>
        <time>2021-05-15T16:48:21.513Z</time>
      </trkpt>
      <trkpt lat="43.01155" lon="0.61592">
        <ele>447.977985</ele>
        <time>2021-05-15T16:48:41.117Z</time>
      </trkpt>
      <trkpt lat="43.01143" lon="0.61595">
        <ele>447.989768</ele>
        <time>2021-05-15T16:48:44.411Z</time>
      </trkpt>
      <trkpt lat="43.0109" lon="0.61593">
        <ele>448.037516</ele>
        <time>2021-05-15T16:48:56.959Z</time>
      </trkpt>
      <trkpt lat="43.0103" lon="0.61597">
        <ele>448.092445</ele>
        <time>2021-05-15T16:49:10.993Z</time>
      </trkpt>
      <trkpt lat="43.00343" lon="0.61917">
        <ele>446.09426</ele>
        <time>2021-05-15T16:51:49.718Z</time>
      </trkpt>
      <trkpt lat="43.00016" lon="0.62077">
        <ele>448.91072</ele>
        <time>2021-05-15T16:53:21.291Z</time>
      </trkpt>
      <trkpt lat="43.00018" lon="0.62093">
        <ele>449.045235</ele>
        <time>2021-05-15T16:53:25.448Z</time>
      </trkpt>
      <trkpt lat="42.99999" lon="0.621">
        <ele>449.280939</ele>
        <time>2021-05-15T16:53:31.988Z</time>
      </trkpt>
      <trkpt lat="42.99944" lon="0.62109">
        <ele>450.309248</ele>
        <time>2021-05-15T16:53:49.427Z</time>
      </trkpt>
      <trkpt lat="42.99797" lon="0.62181">
        <ele>453.474123</ele>
        <time>2021-05-15T16:54:39.907Z</time>
      </trkpt>
      <trkpt lat="42.99665" lon="0.62243">
        <ele>455.252415</ele>
        <time>2021-05-15T16:55:19.611Z</time>
      </trkpt>
      <trkpt lat="42.99649" lon="0.62254">
        <ele>455.47761</ele>
        <time>2021-05-15T16:55:24.160Z</time>
      </trkpt>
      <trkpt lat="42.99411" lon="0.62368">
        <ele>455.375526</ele>
        <time>2021-05-15T16:56:22.292Z</time>
      </trkpt>
      <trkpt lat="42.99352" lon="0.62456">
        <ele>454.92785</ele>
        <time>2021-05-15T16:56:40.669Z</time>
      </trkpt>
      <trkpt lat="42.99273" lon="0.62534">
        <ele>453.989137</ele>
        <time>2021-05-15T16:57:00.233Z</time>
      </trkpt>
      <trkpt lat="42.99103" lon="0.62645">
        <ele>452.451129</ele>
        <time>2021-05-15T16:57:37.350Z</time>
      </trkpt>
      <trkpt lat="42.99099" lon="0.6265">
        <ele>452.425568</ele>
        <time>2021-05-15T16:57:38.527Z</time>
      </trkpt>
      <trkpt lat="42.99106" lon="0.62652">
        <ele>452.39323</ele>
        <time>2021-05-15T16:57:40.277Z</time>
      </trkpt>
      <trkpt lat="42.99117" lon="0.62664">
        <ele>452.337185</ele>
        <time>2021-05-15T16:57:43.277Z</time>
      </trkpt>
      <trkpt lat="42.99118" lon="0.62667">
        <ele>452.327043</ele>
        <time>2021-05-15T16:57:43.830Z</time>
      </trkpt>
      <trkpt lat="42.99119" lon="0.62672">
        <ele>452.31183</ele>
        <time>2021-05-15T16:57:44.645Z</time>
      </trkpt>
      <trkpt lat="42.99115" lon="0.62697">
        <ele>452.233325</ele>
        <time>2021-05-15T16:57:48.784Z</time>
      </trkpt>
      <trkpt lat="42.9911" lon="0.6271">
        <ele>452.190254</ele>
        <time>2021-05-15T16:57:51.231Z</time>
      </trkpt>
      <trkpt lat="42.99087" lon="0.6276">
        <ele>452.11737</ele>
        <time>2021-05-15T16:58:01.715Z</time>
      </trkpt>
      <trkpt lat="42.98971" lon="0.63015">
        <ele>454.081011</ele>
        <time>2021-05-15T16:59:01.107Z</time>
      </trkpt>
      <trkpt lat="42.98964" lon="0.63007">
        <ele>454.114686</ele>
        <time>2021-05-15T16:59:03.432Z</time>
      </trkpt>
      <trkpt lat="42.98949" lon="0.62996">
        <ele>454.175349</ele>
        <time>2021-05-15T16:59:07.668Z</time>
      </trkpt>
      <trkpt lat="42.98936" lon="0.62995">
        <ele>454.222406</ele>
        <time>2021-05-15T16:59:11.061Z</time>
      </trkpt>
      <trkpt lat="42.98931" lon="0.62998">
        <ele>454.241796</ele>
        <time>2021-05-15T16:59:12.250Z</time>
      </trkpt>
      <trkpt lat="42.98931" lon="0.63037">
        <ele>454.345369</ele>
        <time>2021-05-15T16:59:19.202Z</time>
      </trkpt>
      <trkpt lat="42.98931" lon="0.63041">
        <ele>454.3562</ele>
        <time>2021-05-15T16:59:19.975Z</time>
      </trkpt>
      <trkpt lat="42.98913" lon="0.63047">
        <ele>454.420699</ele>
        <time>2021-05-15T16:59:23.903Z</time>
      </trkpt>
      <trkpt lat="42.98899" lon="0.63048">
        <ele>454.473884</ele>
        <time>2021-05-15T16:59:27.336Z</time>
      </trkpt>
      <trkpt lat="42.98879" lon="0.63035">
        <ele>454.550801</ele>
        <time>2021-05-15T16:59:31.903Z</time>
      </trkpt>
      <trkpt lat="42.98798" lon="0.62959">
        <ele>453.984334</ele>
        <time>2021-05-15T16:59:52.682Z</time>
      </trkpt>
      <trkpt lat="42.98783" lon="0.6295">
        <ele>453.884214</ele>
        <time>2021-05-15T16:59:56.059Z</time>
      </trkpt>
      <trkpt lat="42.98754" lon="0.62942">
        <ele>453.705317</ele>
        <time>2021-05-15T17:00:02.220Z</time>
      </trkpt>
      <trkpt lat="42.98732" lon="0.62943">
        <ele>453.569986</ele>
        <time>2021-05-15T17:00:06.917Z</time>
      </trkpt>
      <trkpt lat="42.98652" lon="0.62969">
        <ele>453.320007</ele>
        <time>2021-05-15T17:00:24.739Z</time>
      </trkpt>
      <trkpt lat="42.986" lon="0.62968">
        <ele>453.202415</ele>
        <time>2021-05-15T17:00:36.196Z</time>
      </trkpt>
      <trkpt lat="42.9855" lon="0.62978">
        <ele>453.087665</ele>
        <time>2021-05-15T17:00:47.749Z</time>
      </trkpt>
      <trkpt lat="42.98456" lon="0.63017">
        <ele>453.253319</ele>
        <time>2021-05-15T17:01:11.133Z</time>
      </trkpt>
      <trkpt lat="42.98383" lon="0.63057">
        <ele>453.427012</ele>
        <time>2021-05-15T17:01:30.490Z</time>
      </trkpt>
      <trkpt lat="42.98352" lon="0.63068">
        <ele>453.508357</ele>
        <time>2021-05-15T17:01:38.272Z</time>
      </trkpt>
      <trkpt lat="42.98229" lon="0.63178">
        <ele>453.929157</ele>
        <time>2021-05-15T17:02:14.012Z</time>
      </trkpt>
      <trkpt lat="42.98214" lon="0.63176">
        <ele>453.972334</ele>
        <time>2021-05-15T17:02:17.607Z</time>
      </trkpt>
      <trkpt lat="42.98187" lon="0.63153">
        <ele>454.000245</ele>
        <time>2021-05-15T17:02:25.060Z</time>
      </trkpt>
      <trkpt lat="42.98163" lon="0.63145">
        <ele>454.02259</ele>
        <time>2021-05-15T17:02:31.087Z</time>
      </trkpt>
      <trkpt lat="42.9813" lon="0.63145">
        <ele>454.050914</ele>
        <time>2021-05-15T17:02:38.696Z</time>
      </trkpt>
      <trkpt lat="42.98088" lon="0.63156">
        <ele>454.088549</ele>
        <time>2021-05-15T17:02:48.752Z</time>
      </trkpt>
      <trkpt lat="42.98049" lon="0.6318">
        <ele>454.126534</ele>
        <time>2021-05-15T17:02:58.906Z</time>
      </trkpt>
      <trkpt lat="42.97966" lon="0.63196">
        <ele>454.321614</ele>
        <time>2021-05-15T17:03:18.668Z</time>
      </trkpt>
      <trkpt lat="42.97943" lon="0.63213">
        <ele>454.384507</ele>
        <time>2021-05-15T17:03:24.912Z</time>
      </trkpt>
      <trkpt lat="42.97886" lon="0.63304">
        <ele>454.624584</ele>
        <time>2021-05-15T17:03:46.300Z</time>
      </trkpt>
      <trkpt lat="42.97862" lon="0.63315">
        <ele>454.739106</ele>
        <time>2021-05-15T17:03:52.440Z</time>
      </trkpt>
      <trkpt lat="42.97856" lon="0.63351">
        <ele>454.866728</ele>
        <time>2021-05-15T17:03:59.347Z</time>
      </trkpt>
      <trkpt lat="42.97825" lon="0.63386">
        <ele>455.050058</ele>
        <time>2021-05-15T17:04:09.321Z</time>
      </trkpt>
      <trkpt lat="42.97854" lon="0.63667">
        <ele>455.975883</ele>
        <time>2021-05-15T17:05:01.971Z</time>
      </trkpt>
      <trkpt lat="42.97853" lon="0.63681">
        <ele>456.019038</ele>
        <time>2021-05-15T17:05:04.551Z</time>
      </trkpt>
      <trkpt lat="42.97773" lon="0.63689">
        <ele>456.257397</ele>
        <time>2021-05-15T17:05:24.041Z</time>
      </trkpt>
      <trkpt lat="42.9772" lon="0.63705">
        <ele>456.353003</ele>
        <time>2021-05-15T17:05:36.835Z</time>
      </trkpt>
      <trkpt lat="42.97482" lon="0.63808">
        <ele>456.748962</ele>
        <time>2021-05-15T17:06:35.893Z</time>
      </trkpt>
      <trkpt lat="42.97389" lon="0.63857">
        <ele>456.991016</ele>
        <time>2021-05-15T17:06:59.875Z</time>
      </trkpt>
      <trkpt lat="42.97281" lon="0.63937">
        <ele>457.310885</ele>
        <time>2021-05-15T17:07:29.863Z</time>
      </trkpt>
      <trkpt lat="42.97137" lon="0.63969">
        <ele>457.701822</ele>
        <time>2021-05-15T17:08:05.228Z</time>
      </trkpt>
      <trkpt lat="42.97072" lon="0.64006">
        <ele>457.896632</ele>
        <time>2021-05-15T17:08:22.269Z</time>
      </trkpt>
      <trkpt lat="42.9699" lon="0.64024">
        <ele>458.126269</ele>
        <time>2021-05-15T17:08:42.355Z</time>
      </trkpt>
      <trkpt lat="42.96939" lon="0.6405">
        <ele>458.283382</ele>
        <time>2021-05-15T17:08:55.628Z</time>
      </trkpt>
      <trkpt lat="42.96801" lon="0.64146">
        <ele>458.746739</ele>
        <time>2021-05-15T17:09:33.257Z</time>
      </trkpt>
      <trkpt lat="42.96704" lon="0.6421">
        <ele>459.305188</ele>
        <time>2021-05-15T17:09:59.842Z</time>
      </trkpt>
      <trkpt lat="42.96708" lon="0.64242">
        <ele>459.425074</ele>
        <time>2021-05-15T17:10:05.402Z</time>
      </trkpt>
      <trkpt lat="42.96719" lon="0.64498">
        <ele>460.821636</ele>
        <time>2021-05-15T17:10:52.939Z</time>
      </trkpt>
      <trkpt lat="42.96726" lon="0.64666">
        <ele>461.852615</ele>
        <time>2021-05-15T17:11:25.843Z</time>
      </trkpt>
      <trkpt lat="42.96721" lon="0.64667">
        <ele>461.900103</ele>
        <time>2021-05-15T17:11:27.746Z</time>
      </trkpt>
      <trkpt lat="42.96701" lon="0.64689">
        <ele>462.118594</ele>
        <time>2021-05-15T17:11:34.560Z</time>
      </trkpt>
      <trkpt lat="42.96356" lon="0.64743">
        <ele>463.559117</ele>
        <time>2021-05-15T17:13:01.217Z</time>
      </trkpt>
      <trkpt lat="42.96296" lon="0.64743">
        <ele>463.614291</ele>
        <time>2021-05-15T17:13:14.230Z</time>
      </trkpt>
      <trkpt lat="42.96225" lon="0.64735">
        <ele>463.3795</ele>
        <time>2021-05-15T17:13:29.729Z</time>
      </trkpt>
      <trkpt lat="42.96143" lon="0.64703">
        <ele>462.965913</ele>
        <time>2021-05-15T17:13:47.705Z</time>
      </trkpt>
      <trkpt lat="42.96041" lon="0.64677">
        <ele>462.672058</ele>
        <time>2021-05-15T17:14:10.431Z</time>
      </trkpt>
      <trkpt lat="42.95958" lon="0.64645">
        <ele>462.55389</ele>
        <time>2021-05-15T17:14:29.974Z</time>
      </trkpt>
      <trkpt lat="42.95897" lon="0.64607">
        <ele>462.537771</ele>
        <time>2021-05-15T17:14:45.576Z</time>
      </trkpt>
      <trkpt lat="42.95887" lon="0.64581">
        <ele>462.556387</ele>
        <time>2021-05-15T17:14:50.682Z</time>
      </trkpt>
      <trkpt lat="42.95856" lon="0.6455">
        <ele>462.590024</ele>
        <time>2021-05-15T17:14:59.924Z</time>
      </trkpt>
      <trkpt lat="42.95838" lon="0.64518">
        <ele>462.615663</ele>
        <time>2021-05-15T17:15:06.924Z</time>
      </trkpt>
      <trkpt lat="42.95779" lon="0.64466">
        <ele>462.679884</ele>
        <time>2021-05-15T17:15:23.391Z</time>
      </trkpt>
      <trkpt lat="42.95768" lon="0.64444">
        <ele>462.701498</ele>
        <time>2021-05-15T17:15:27.897Z</time>
      </trkpt>
      <trkpt lat="42.95747" lon="0.64442">
        <ele>462.725731</ele>
        <time>2021-05-15T17:15:32.984Z</time>
      </trkpt>
      <trkpt lat="42.95743" lon="0.64422">
        <ele>462.742779</ele>
        <time>2021-05-15T17:15:37.427Z</time>
      </trkpt>
      <trkpt lat="42.95699" lon="0.64406">
        <ele>462.794236</ele>
        <time>2021-05-15T17:15:50.946Z</time>
      </trkpt>
      <trkpt lat="42.95695" lon="0.64411">
        <ele>462.800863</ele>
        <time>2021-05-15T17:15:52.674Z</time>
      </trkpt>
      <trkpt lat="42.95673" lon="0.64397">
        <ele>462.828472</ele>
        <time>2021-05-15T17:15:58.447Z</time>
      </trkpt>
      <trkpt lat="42.95631" lon="0.64372">
        <ele>462.891071</ele>
        <time>2021-05-15T17:16:09.248Z</time>
      </trkpt>
      <trkpt lat="42.95599" lon="0.64357">
        <ele>462.962053</ele>
        <time>2021-05-15T17:16:17.256Z</time>
      </trkpt>
      <trkpt lat="42.95491" lon="0.64312">
        <ele>463.199745</ele>
        <time>2021-05-15T17:16:44.503Z</time>
      </trkpt>
      <trkpt lat="42.95404" lon="0.64298">
        <ele>463.408622</ele>
        <time>2021-05-15T17:17:05.575Z</time>
      </trkpt>
      <trkpt lat="42.95295" lon="0.64254">
        <ele>463.689702</ele>
        <time>2021-05-15T17:17:33.107Z</time>
      </trkpt>
      <trkpt lat="42.95285" lon="0.64253">
        <ele>463.718381</ele>
        <time>2021-05-15T17:17:35.390Z</time>
      </trkpt>
      <trkpt lat="42.95285" lon="0.64236">
        <ele>463.75554</ele>
        <time>2021-05-15T17:17:38.309Z</time>
      </trkpt>
      <trkpt lat="42.9528" lon="0.64224">
        <ele>463.786674</ele>
        <time>2021-05-15T17:17:40.762Z</time>
      </trkpt>
      <trkpt lat="42.95267" lon="0.64217">
        <ele>463.831011</ele>
        <time>2021-05-15T17:17:44.313Z</time>
      </trkpt>
      <trkpt lat="42.95255" lon="0.64219">
        <ele>463.86853</ele>
        <time>2021-05-15T17:17:47.242Z</time>
      </trkpt>
      <trkpt lat="42.95239" lon="0.64221">
        <ele>463.917033</ele>
        <time>2021-05-15T17:17:51.081Z</time>
      </trkpt>
      <trkpt lat="42.95234" lon="0.64212">
        <ele>463.943584</ele>
        <time>2021-05-15T17:17:53.238Z</time>
      </trkpt>
      <trkpt lat="42.95129" lon="0.64167">
        <ele>464.281734</ele>
        <time>2021-05-15T17:18:20.023Z</time>
      </trkpt>
      <trkpt lat="42.95026" lon="0.64164">
        <ele>464.605794</ele>
        <time>2021-05-15T17:18:45.117Z</time>
      </trkpt>
      <trkpt lat="42.94977" lon="0.64182">
        <ele>464.765545</ele>
        <time>2021-05-15T17:18:57.487Z</time>
      </trkpt>
      <trkpt lat="42.94959" lon="0.64195">
        <ele>464.835026</ele>
        <time>2021-05-15T17:19:02.691Z</time>
      </trkpt>
      <trkpt lat="42.94899" lon="0.6427">
        <ele>465.123444</ele>
        <time>2021-05-15T17:19:22.523Z</time>
      </trkpt>
      <trkpt lat="42.94864" lon="0.64302">
        <ele>465.276485</ele>
        <time>2021-05-15T17:19:33.035Z</time>
      </trkpt>
      <trkpt lat="42.94821" lon="0.64364">
        <ele>465.498812</ele>
        <time>2021-05-15T17:19:48.324Z</time>
      </trkpt>
      <trkpt lat="42.94791" lon="0.6439">
        <ele>465.629333</ele>
        <time>2021-05-15T17:19:57.234Z</time>
      </trkpt>
      <trkpt lat="42.94742" lon="0.64452">
        <ele>465.868045</ele>
        <time>2021-05-15T17:20:13.500Z</time>
      </trkpt>
      <trkpt lat="42.9469" lon="0.64497">
        <ele>466.090108</ele>
        <time>2021-05-15T17:20:28.539Z</time>
      </trkpt>
      <trkpt lat="42.94672" lon="0.64521">
        <ele>466.167552</ele>
        <time>2021-05-15T17:20:34.776Z</time>
      </trkpt>
      <trkpt lat="42.94581" lon="0.64534">
        <ele>466.436927</ele>
        <time>2021-05-15T17:20:57.223Z</time>
      </trkpt>
      <trkpt lat="42.94381" lon="0.64587">
        <ele>467.096795</ele>
        <time>2021-05-15T17:21:47.019Z</time>
      </trkpt>
      <trkpt lat="42.94331" lon="0.64622">
        <ele>467.283052</ele>
        <time>2021-05-15T17:22:00.858Z</time>
      </trkpt>
      <trkpt lat="42.94169" lon="0.64692">
        <ele>467.79531</ele>
        <time>2021-05-15T17:22:42.360Z</time>
      </trkpt>
      <trkpt lat="42.94026" lon="0.64724">
        <ele>468.170562</ele>
        <time>2021-05-15T17:23:17.126Z</time>
      </trkpt>
      <trkpt lat="42.93948" lon="0.64753">
        <ele>468.623202</ele>
        <time>2021-05-15T17:23:36.453Z</time>
      </trkpt>
      <trkpt lat="42.93938" lon="0.64764">
        <ele>468.721715</ele>
        <time>2021-05-15T17:23:39.401Z</time>
      </trkpt>
      <trkpt lat="42.93928" lon="0.64803">
        <ele>468.952586</ele>
        <time>2021-05-15T17:23:46.738Z</time>
      </trkpt>
      <trkpt lat="42.93918" lon="0.64807">
        <ele>469.033505</ele>
        <time>2021-05-15T17:23:49.346Z</time>
      </trkpt>
      <trkpt lat="42.9388" lon="0.648">
        <ele>469.322377</ele>
        <time>2021-05-15T17:23:59.238Z</time>
      </trkpt>
      <trkpt lat="42.93879" lon="0.64801">
        <ele>469.333881</ele>
        <time>2021-05-15T17:23:59.849Z</time>
      </trkpt>
      <trkpt lat="42.93875" lon="0.64805">
        <ele>469.369308</ele>
        <time>2021-05-15T17:24:01.106Z</time>
      </trkpt>
      <trkpt lat="42.9387" lon="0.64778">
        <ele>469.526394</ele>
        <time>2021-05-15T17:24:06.918Z</time>
      </trkpt>
      <trkpt lat="42.93858" lon="0.64704">
        <ele>470.801882</ele>
        <time>2021-05-15T17:24:24.359Z</time>
      </trkpt>
      <trkpt lat="42.93844" lon="0.64614">
        <ele>472.630404</ele>
        <time>2021-05-15T17:24:47.500Z</time>
      </trkpt>
      <trkpt lat="42.93834" lon="0.64553">
        <ele>473.874398</ele>
        <time>2021-05-15T17:25:03.364Z</time>
      </trkpt>
      <trkpt lat="42.93838" lon="0.64541">
        <ele>474.120056</ele>
        <time>2021-05-15T17:25:06.655Z</time>
      </trkpt>
      <trkpt lat="42.9384" lon="0.64527">
        <ele>474.401791</ele>
        <time>2021-05-15T17:25:10.050Z</time>
      </trkpt>
      <trkpt lat="42.93839" lon="0.64522">
        <ele>474.504888</ele>
        <time>2021-05-15T17:25:11.580Z</time>
      </trkpt>
      <trkpt lat="42.93821" lon="0.64527">
        <ele>474.78445</ele>
        <time>2021-05-15T17:25:17.708Z</time>
      </trkpt>
      <trkpt lat="42.93805" lon="0.64533">
        <ele>475.0401</ele>
        <time>2021-05-15T17:25:23.460Z</time>
      </trkpt>
      <trkpt lat="42.93769" lon="0.64552">
        <ele>475.64281</ele>
        <time>2021-05-15T17:25:36.219Z</time>
      </trkpt>
      <trkpt lat="42.93745" lon="0.6457">
        <ele>476.069049</ele>
        <time>2021-05-15T17:25:44.652Z</time>
      </trkpt>
      <trkpt lat="42.93714" lon="0.646">
        <ele>476.652666</ele>
        <time>2021-05-15T17:25:54.894Z</time>
      </trkpt>
      <trkpt lat="42.93583" lon="0.64733">
        <ele>476.374503</ele>
        <time>2021-05-15T17:26:27.797Z</time>
      </trkpt>
      <trkpt lat="42.9351" lon="0.64804">
        <ele>475.605437</ele>
        <time>2021-05-15T17:26:44.689Z</time>
      </trkpt>
      <trkpt lat="42.93433" lon="0.64866">
        <ele>474.654367</ele>
        <time>2021-05-15T17:27:01.789Z</time>
      </trkpt>
      <trkpt lat="42.93341" lon="0.64924">
        <ele>473.656979</ele>
        <time>2021-05-15T17:27:21.491Z</time>
      </trkpt>
      <trkpt lat="42.93286" lon="0.64949">
        <ele>473.150221</ele>
        <time>2021-05-15T17:27:32.846Z</time>
      </trkpt>
      <trkpt lat="42.93122" lon="0.65016">
        <ele>471.856161</ele>
        <time>2021-05-15T17:28:06.689Z</time>
      </trkpt>
      <trkpt lat="42.93107" lon="0.65022">
        <ele>471.758131</ele>
        <time>2021-05-15T17:28:09.702Z</time>
      </trkpt>
      <trkpt lat="42.93044" lon="0.65047">
        <ele>471.333354</ele>
        <time>2021-05-15T17:28:23.152Z</time>
      </trkpt>
      <trkpt lat="42.93037" lon="0.6505">
        <ele>471.29188</ele>
        <time>2021-05-15T17:28:24.564Z</time>
      </trkpt>
      <trkpt lat="42.93029" lon="0.65053">
        <ele>471.292932</ele>
        <time>2021-05-15T17:28:26.470Z</time>
      </trkpt>
      <trkpt lat="42.93" lon="0.65066">
        <ele>471.296458</ele>
        <time>2021-05-15T17:28:32.810Z</time>
      </trkpt>
      <trkpt lat="42.92956" lon="0.65083">
        <ele>471.301821</ele>
        <time>2021-05-15T17:28:42.689Z</time>
      </trkpt>
      <trkpt lat="42.92931" lon="0.65092">
        <ele>471.304775</ele>
        <time>2021-05-15T17:28:48.305Z</time>
      </trkpt>
      <trkpt lat="42.92914" lon="0.65097">
        <ele>471.306825</ele>
        <time>2021-05-15T17:28:52.355Z</time>
      </trkpt>
      <trkpt lat="42.92896" lon="0.65099">
        <ele>471.308913</ele>
        <time>2021-05-15T17:28:56.474Z</time>
      </trkpt>
      <trkpt lat="42.9284" lon="0.65101">
        <ele>471.497729</ele>
        <time>2021-05-15T17:29:09.932Z</time>
      </trkpt>
      <trkpt lat="42.92786" lon="0.6509">
        <ele>471.949882</ele>
        <time>2021-05-15T17:29:23.631Z</time>
      </trkpt>
      <trkpt lat="42.92607" lon="0.65011">
        <ele>473.745008</ele>
        <time>2021-05-15T17:30:13.554Z</time>
      </trkpt>
      <trkpt lat="42.92437" lon="0.64925">
        <ele>475.648875</ele>
        <time>2021-05-15T17:31:01.973Z</time>
      </trkpt>
      <trkpt lat="42.92196" lon="0.64772">
        <ele>478.056947</ele>
        <time>2021-05-15T17:32:09.986Z</time>
      </trkpt>
      <trkpt lat="42.92159" lon="0.64751">
        <ele>478.473415</ele>
        <time>2021-05-15T17:32:20.612Z</time>
      </trkpt>
      <trkpt lat="42.92119" lon="0.64733">
        <ele>478.923625</ele>
        <time>2021-05-15T17:32:31.777Z</time>
      </trkpt>
      <trkpt lat="42.92074" lon="0.64718">
        <ele>479.41902</ele>
        <time>2021-05-15T17:32:44.140Z</time>
      </trkpt>
      <trkpt lat="42.92031" lon="0.64711">
        <ele>479.874276</ele>
        <time>2021-05-15T17:32:55.514Z</time>
      </trkpt>
      <trkpt lat="42.91963" lon="0.6471">
        <ele>480.609848</ele>
        <time>2021-05-15T17:33:13.562Z</time>
      </trkpt>
      <trkpt lat="42.91768" lon="0.64724">
        <ele>483.122821</ele>
        <time>2021-05-15T17:34:05.293Z</time>
      </trkpt>
      <trkpt lat="42.91715" lon="0.64728">
        <ele>484.000964</ele>
        <time>2021-05-15T17:34:20.645Z</time>
      </trkpt>
      <trkpt lat="42.91646" lon="0.64733">
        <ele>485.311727</ele>
        <time>2021-05-15T17:34:42.274Z</time>
      </trkpt>
      <trkpt lat="42.91602" lon="0.64735">
        <ele>486.601633</ele>
        <time>2021-05-15T17:34:56.643Z</time>
      </trkpt>
      <trkpt lat="42.91478" lon="0.64744">
        <ele>490.204213</ele>
        <time>2021-05-15T17:35:39.880Z</time>
      </trkpt>
      <trkpt lat="42.91459" lon="0.64741">
        <ele>490.744796</ele>
        <time>2021-05-15T17:35:46.424Z</time>
      </trkpt>
      <trkpt lat="42.91453" lon="0.64739">
        <ele>490.922733</ele>
        <time>2021-05-15T17:35:48.731Z</time>
      </trkpt>
      <trkpt lat="42.91448" lon="0.64736">
        <ele>491.078018</ele>
        <time>2021-05-15T17:35:50.920Z</time>
      </trkpt>
      <trkpt lat="42.91445" lon="0.64733">
        <ele>491.168068</ele>
        <time>2021-05-15T17:35:52.163Z</time>
      </trkpt>
      <trkpt lat="42.91443" lon="0.6473">
        <ele>491.261679</ele>
        <time>2021-05-15T17:35:53.455Z</time>
      </trkpt>
      <trkpt lat="42.91436" lon="0.64729">
        <ele>491.442324</ele>
        <time>2021-05-15T17:35:55.577Z</time>
      </trkpt>
      <trkpt lat="42.91433" lon="0.6473">
        <ele>491.535355</ele>
        <time>2021-05-15T17:35:56.688Z</time>
      </trkpt>
      <trkpt lat="42.91429" lon="0.64732">
        <ele>491.655703</ele>
        <time>2021-05-15T17:35:58.036Z</time>
      </trkpt>
      <trkpt lat="42.91422" lon="0.64732">
        <ele>491.840926</ele>
        <time>2021-05-15T17:36:00.462Z</time>
      </trkpt>
      <trkpt lat="42.91412" lon="0.6473">
        <ele>492.131262</ele>
        <time>2021-05-15T17:36:04.249Z</time>
      </trkpt>
      <trkpt lat="42.91383" lon="0.6472">
        <ele>492.962412</ele>
        <time>2021-05-15T17:36:14.243Z</time>
      </trkpt>
      <trkpt lat="42.91373" lon="0.64715">
        <ele>493.245133</ele>
        <time>2021-05-15T17:36:18.011Z</time>
      </trkpt>
      <trkpt lat="42.91328" lon="0.64676">
        <ele>494.726015</ele>
        <time>2021-05-15T17:36:34.997Z</time>
      </trkpt>
      <trkpt lat="42.91318" lon="0.64664">
        <ele>495.10698</ele>
        <time>2021-05-15T17:36:39.589Z</time>
      </trkpt>
      <trkpt lat="42.91308" lon="0.64652">
        <ele>495.324169</ele>
        <time>2021-05-15T17:36:43.419Z</time>
      </trkpt>
      <trkpt lat="42.91286" lon="0.64615">
        <ele>495.782062</ele>
        <time>2021-05-15T17:36:54.049Z</time>
      </trkpt>
      <trkpt lat="42.91268" lon="0.64567">
        <ele>496.294941</ele>
        <time>2021-05-15T17:37:05.208Z</time>
      </trkpt>
      <trkpt lat="42.91231" lon="0.64378">
        <ele>497.980352</ele>
        <time>2021-05-15T17:37:41.517Z</time>
      </trkpt>
      <trkpt lat="42.91178" lon="0.64194">
        <ele>499.408099</ele>
        <time>2021-05-15T17:38:18.880Z</time>
      </trkpt>
      <trkpt lat="42.9117" lon="0.64168">
        <ele>499.752599</ele>
        <time>2021-05-15T17:38:24.546Z</time>
      </trkpt>
      <trkpt lat="42.91155" lon="0.64121">
        <ele>500.382019</ele>
        <time>2021-05-15T17:38:35.307Z</time>
      </trkpt>
      <trkpt lat="42.91106" lon="0.63993">
        <ele>502.165537</ele>
        <time>2021-05-15T17:39:07.424Z</time>
      </trkpt>
      <trkpt lat="42.91064" lon="0.63914">
        <ele>503.010863</ele>
        <time>2021-05-15T17:39:28.724Z</time>
      </trkpt>
      <trkpt lat="42.91027" lon="0.6386">
        <ele>503.637436</ele>
        <time>2021-05-15T17:39:43.543Z</time>
      </trkpt>
      <trkpt lat="42.90942" lon="0.63766">
        <ele>504.35404</ele>
        <time>2021-05-15T17:40:09.226Z</time>
      </trkpt>
      <trkpt lat="42.90891" lon="0.63723">
        <ele>504.401943</ele>
        <time>2021-05-15T17:40:21.823Z</time>
      </trkpt>
      <trkpt lat="42.90848" lon="0.63694">
        <ele>504.440692</ele>
        <time>2021-05-15T17:40:32.510Z</time>
      </trkpt>
      <trkpt lat="42.90825" lon="0.63681">
        <ele>504.472641</ele>
        <time>2021-05-15T17:40:38.034Z</time>
      </trkpt>
      <trkpt lat="42.90812" lon="0.63674">
        <ele>504.52446</ele>
        <time>2021-05-15T17:40:41.286Z</time>
      </trkpt>
      <trkpt lat="42.90762" lon="0.63646">
        <ele>504.732106</ele>
        <time>2021-05-15T17:40:54.101Z</time>
      </trkpt>
      <trkpt lat="42.90702" lon="0.63615">
        <ele>504.97614</ele>
        <time>2021-05-15T17:41:09.865Z</time>
      </trkpt>
      <trkpt lat="42.90618" lon="0.63559">
        <ele>505.089819</ele>
        <time>2021-05-15T17:41:32.290Z</time>
      </trkpt>
      <trkpt lat="42.9054" lon="0.63492">
        <ele>504.995267</ele>
        <time>2021-05-15T17:41:51.762Z</time>
      </trkpt>
      <trkpt lat="42.90501" lon="0.6344">
        <ele>505.201302</ele>
        <time>2021-05-15T17:42:02.872Z</time>
      </trkpt>
      <trkpt lat="42.9045" lon="0.63337">
        <ele>506.566728</ele>
        <time>2021-05-15T17:42:22.883Z</time>
      </trkpt>
      <trkpt lat="42.90432" lon="0.63313">
        <ele>506.956045</ele>
        <time>2021-05-15T17:42:29.398Z</time>
      </trkpt>
      <trkpt lat="42.90412" lon="0.63296">
        <ele>507.30794</ele>
        <time>2021-05-15T17:42:37.843Z</time>
      </trkpt>
      <trkpt lat="42.90375" lon="0.63282">
        <ele>508.77998</ele>
        <time>2021-05-15T17:42:55.027Z</time>
      </trkpt>
      <trkpt lat="42.9035" lon="0.63283">
        <ele>510.570373</ele>
        <time>2021-05-15T17:43:07.170Z</time>
      </trkpt>
      <trkpt lat="42.90322" lon="0.63294">
        <ele>512.774261</ele>
        <time>2021-05-15T17:43:21.511Z</time>
      </trkpt>
      <trkpt lat="42.90294" lon="0.63316">
        <ele>515.125547</ele>
        <time>2021-05-15T17:43:38.099Z</time>
      </trkpt>
      <trkpt lat="42.90282" lon="0.63331">
        <ele>516.31653</ele>
        <time>2021-05-15T17:43:48.432Z</time>
      </trkpt>
      <trkpt lat="42.90274" lon="0.63342">
        <ele>517.185028</ele>
        <time>2021-05-15T17:43:53.675Z</time>
      </trkpt>
      <trkpt lat="42.90258" lon="0.63361">
        <ele>518.712402</ele>
        <time>2021-05-15T17:44:07.042Z</time>
      </trkpt>
      <trkpt lat="42.90227" lon="0.63392">
        <ele>521.554004</ele>
        <time>2021-05-15T17:44:29.532Z</time>
      </trkpt>
      <trkpt lat="42.90205" lon="0.63401">
        <ele>523.31509</ele>
        <time>2021-05-15T17:44:42.241Z</time>
      </trkpt>
      <trkpt lat="42.90184" lon="0.63401">
        <ele>524.822267</ele>
        <time>2021-05-15T17:44:54.157Z</time>
      </trkpt>
      <trkpt lat="42.90096" lon="0.63352">
        <ele>531.918555</ele>
        <time>2021-05-15T17:45:43.503Z</time>
      </trkpt>
      <trkpt lat="42.89994" lon="0.63317">
        <ele>538.73964</ele>
        <time>2021-05-15T17:46:31.189Z</time>
      </trkpt>
      <trkpt lat="42.89982" lon="0.63311">
        <ele>539.555089</ele>
        <time>2021-05-15T17:46:36.931Z</time>
      </trkpt>
      <trkpt lat="42.89968" lon="0.63302">
        <ele>540.454989</ele>
        <time>2021-05-15T17:46:42.989Z</time>
      </trkpt>
      <trkpt lat="42.89945" lon="0.6328">
        <ele>542.196041</ele>
        <time>2021-05-15T17:46:55.701Z</time>
      </trkpt>
      <trkpt lat="42.8994" lon="0.63273">
        <ele>542.599177</ele>
        <time>2021-05-15T17:46:58.584Z</time>
      </trkpt>
      <trkpt lat="42.89937" lon="0.63277">
        <ele>542.898561</ele>
        <time>2021-05-15T17:47:01.766Z</time>
      </trkpt>
      <trkpt lat="42.8993" lon="0.63279">
        <ele>543.303692</ele>
        <time>2021-05-15T17:47:04.574Z</time>
      </trkpt>
      <trkpt lat="42.89922" lon="0.63269">
        <ele>543.958645</ele>
        <time>2021-05-15T17:47:09.392Z</time>
      </trkpt>
      <trkpt lat="42.89866" lon="0.63165">
        <ele>551.198888</ele>
        <time>2021-05-15T17:47:58.098Z</time>
      </trkpt>
      <trkpt lat="42.89831" lon="0.63114">
        <ele>555.436711</ele>
        <time>2021-05-15T17:48:26.846Z</time>
      </trkpt>
      <trkpt lat="42.89823" lon="0.63089">
        <ele>557.037923</ele>
        <time>2021-05-15T17:48:37.811Z</time>
      </trkpt>
      <trkpt lat="42.89818" lon="0.63048">
        <ele>559.524177</ele>
        <time>2021-05-15T17:48:55.662Z</time>
      </trkpt>
      <trkpt lat="42.8981" lon="0.63031">
        <ele>560.974634</ele>
        <time>2021-05-15T17:49:04.700Z</time>
      </trkpt>
      <trkpt lat="42.89722" lon="0.62934">
        <ele>572.919065</ele>
        <time>2021-05-15T17:50:18.845Z</time>
      </trkpt>
      <trkpt lat="42.89656" lon="0.62883">
        <ele>580.443419</ele>
        <time>2021-05-15T17:51:08.881Z</time>
      </trkpt>
      <trkpt lat="42.89617" lon="0.62859">
        <ele>584.037979</ele>
        <time>2021-05-15T17:51:36.715Z</time>
      </trkpt>
      <trkpt lat="42.89604" lon="0.62845">
        <ele>585.446884</ele>
        <time>2021-05-15T17:51:47.518Z</time>
      </trkpt>
      <trkpt lat="42.89558" lon="0.62768">
        <ele>591.509749</ele>
        <time>2021-05-15T17:52:26.790Z</time>
      </trkpt>
      <trkpt lat="42.8951" lon="0.62692">
        <ele>594.288901</ele>
        <time>2021-05-15T17:52:56.644Z</time>
      </trkpt>
      <trkpt lat="42.8948" lon="0.62646">
        <ele>594.667892</ele>
        <time>2021-05-15T17:53:10.201Z</time>
      </trkpt>
      <trkpt lat="42.8939" lon="0.62499">
        <ele>593.449017</ele>
        <time>2021-05-15T17:53:34.864Z</time>
      </trkpt>
      <trkpt lat="42.89376" lon="0.62476">
        <ele>592.59952</ele>
        <time>2021-05-15T17:53:38.231Z</time>
      </trkpt>
      <trkpt lat="42.89345" lon="0.6243">
        <ele>590.804342</ele>
        <time>2021-05-15T17:53:45.474Z</time>
      </trkpt>
      <trkpt lat="42.89336" lon="0.62416">
        <ele>590.260671</ele>
        <time>2021-05-15T17:53:47.521Z</time>
      </trkpt>
      <trkpt lat="42.8924" lon="0.62328">
        <ele>584.313247</ele>
        <time>2021-05-15T17:54:04.751Z</time>
      </trkpt>
      <trkpt lat="42.89196" lon="0.62305">
        <ele>581.465005</ele>
        <time>2021-05-15T17:54:11.602Z</time>
      </trkpt>
      <trkpt lat="42.89142" lon="0.62292">
        <ele>578.115467</ele>
        <time>2021-05-15T17:54:19.665Z</time>
      </trkpt>
      <trkpt lat="42.89109" lon="0.62266">
        <ele>576.314645</ele>
        <time>2021-05-15T17:54:24.992Z</time>
      </trkpt>
      <trkpt lat="42.89076" lon="0.6222">
        <ele>574.266593</ele>
        <time>2021-05-15T17:54:31.794Z</time>
      </trkpt>
      <trkpt lat="42.89044" lon="0.62124">
        <ele>570.879285</ele>
        <time>2021-05-15T17:54:44.354Z</time>
      </trkpt>
      <trkpt lat="42.89032" lon="0.62108">
        <ele>570.168893</ele>
        <time>2021-05-15T17:54:47.585Z</time>
      </trkpt>
      <trkpt lat="42.89025" lon="0.62106">
        <ele>569.827687</ele>
        <time>2021-05-15T17:54:48.665Z</time>
      </trkpt>
      <trkpt lat="42.88978" lon="0.62115">
        <ele>569.557867</ele>
        <time>2021-05-15T17:54:58.590Z</time>
      </trkpt>
      <trkpt lat="42.8893" lon="0.62115">
        <ele>569.417184</ele>
        <time>2021-05-15T17:55:09.830Z</time>
      </trkpt>
      <trkpt lat="42.88888" lon="0.62093">
        <ele>569.284266</ele>
        <time>2021-05-15T17:55:20.265Z</time>
      </trkpt>
      <trkpt lat="42.88788" lon="0.62014">
        <ele>568.555261</ele>
        <time>2021-05-15T17:55:46.862Z</time>
      </trkpt>
      <trkpt lat="42.88766" lon="0.61989">
        <ele>568.319745</ele>
        <time>2021-05-15T17:55:52.147Z</time>
      </trkpt>
      <trkpt lat="42.88765" lon="0.61967">
        <ele>568.185956</ele>
        <time>2021-05-15T17:55:55.459Z</time>
      </trkpt>
      <trkpt lat="42.88766" lon="0.61963">
        <ele>568.162655</ele>
        <time>2021-05-15T17:55:55.823Z</time>
      </trkpt>
      <trkpt lat="42.88757" lon="0.6196">
        <ele>568.091682</ele>
        <time>2021-05-15T17:55:57.829Z</time>
      </trkpt>
      <trkpt lat="42.88731" lon="0.61946">
        <ele>567.858079</ele>
        <time>2021-05-15T17:56:03.073Z</time>
      </trkpt>
      <trkpt lat="42.88679" lon="0.61888">
        <ele>567.158662</ele>
        <time>2021-05-15T17:56:15.601Z</time>
      </trkpt>
      <trkpt lat="42.88638" lon="0.61853">
        <ele>566.602262</ele>
        <time>2021-05-15T17:56:23.841Z</time>
      </trkpt>
      <trkpt lat="42.88598" lon="0.61824">
        <ele>566.07745</ele>
        <time>2021-05-15T17:56:32.377Z</time>
      </trkpt>
      <trkpt lat="42.88588" lon="0.61814">
        <ele>565.931176</ele>
        <time>2021-05-15T17:56:34.542Z</time>
      </trkpt>
      <trkpt lat="42.88514" lon="0.61697">
        <ele>566.636044</ele>
        <time>2021-05-15T17:57:03.266Z</time>
      </trkpt>
      <trkpt lat="42.88508" lon="0.6169">
        <ele>566.738066</ele>
        <time>2021-05-15T17:57:06.327Z</time>
      </trkpt>
      <trkpt lat="42.885" lon="0.61683">
        <ele>566.861326</ele>
        <time>2021-05-15T17:57:09.400Z</time>
      </trkpt>
      <trkpt lat="42.88486" lon="0.61673">
        <ele>567.055577</ele>
        <time>2021-05-15T17:57:12.230Z</time>
      </trkpt>
      <trkpt lat="42.88477" lon="0.61668">
        <ele>567.175686</ele>
        <time>2021-05-15T17:57:16.199Z</time>
      </trkpt>
      <trkpt lat="42.88423" lon="0.61632">
        <ele>568.010704</ele>
        <time>2021-05-15T17:57:33.532Z</time>
      </trkpt>
      <trkpt lat="42.88411" lon="0.61618">
        <ele>568.371429</ele>
        <time>2021-05-15T17:57:39.848Z</time>
      </trkpt>
      <trkpt lat="42.88401" lon="0.61607">
        <ele>568.657197</ele>
        <time>2021-05-15T17:57:43.173Z</time>
      </trkpt>
      <trkpt lat="42.88378" lon="0.61574">
        <ele>569.425068</ele>
        <time>2021-05-15T17:57:54.376Z</time>
      </trkpt>
      <trkpt lat="42.8832" lon="0.61447">
        <ele>571.979854</ele>
        <time>2021-05-15T17:58:30.573Z</time>
      </trkpt>
      <trkpt lat="42.88299" lon="0.61419">
        <ele>572.099272</ele>
        <time>2021-05-15T17:58:38.321Z</time>
      </trkpt>
      <trkpt lat="42.88269" lon="0.61396">
        <ele>572.217976</ele>
        <time>2021-05-15T17:58:46.953Z</time>
      </trkpt>
      <trkpt lat="42.88214" lon="0.6138">
        <ele>572.40884</ele>
        <time>2021-05-15T17:58:59.535Z</time>
      </trkpt>
      <trkpt lat="42.8816" lon="0.61372">
        <ele>572.597036</ele>
        <time>2021-05-15T17:59:11.450Z</time>
      </trkpt>
      <trkpt lat="42.88043" lon="0.61352">
        <ele>571.908511</ele>
        <time>2021-05-15T17:59:33.572Z</time>
      </trkpt>
      <trkpt lat="42.87987" lon="0.61351">
        <ele>571.547532</ele>
        <time>2021-05-15T17:59:44.426Z</time>
      </trkpt>
      <trkpt lat="42.87925" lon="0.61372">
        <ele>573.003128</ele>
        <time>2021-05-15T18:00:01.414Z</time>
      </trkpt>
      <trkpt lat="42.87908" lon="0.61379">
        <ele>573.530697</ele>
        <time>2021-05-15T18:00:07.336Z</time>
      </trkpt>
      <trkpt lat="42.8789" lon="0.61385">
        <ele>574.090487</ele>
        <time>2021-05-15T18:00:13.553Z</time>
      </trkpt>
      <trkpt lat="42.87878" lon="0.6139">
        <ele>574.456199</ele>
        <time>2021-05-15T18:00:18.092Z</time>
      </trkpt>
      <trkpt lat="42.87846" lon="0.61402">
        <ele>575.450333</ele>
        <time>2021-05-15T18:00:30.364Z</time>
      </trkpt>
      <trkpt lat="42.87834" lon="0.61407">
        <ele>575.806249</ele>
        <time>2021-05-15T18:00:35.135Z</time>
      </trkpt>
      <trkpt lat="42.87822" lon="0.6141">
        <ele>576.182936</ele>
        <time>2021-05-15T18:00:39.747Z</time>
      </trkpt>
      <trkpt lat="42.87811" lon="0.61412">
        <ele>576.522273</ele>
        <time>2021-05-15T18:00:44.764Z</time>
      </trkpt>
      <trkpt lat="42.87793" lon="0.61412">
        <ele>577.263429</ele>
        <time>2021-05-15T18:00:52.584Z</time>
      </trkpt>
      <trkpt lat="42.87769" lon="0.6141">
        <ele>578.616988</ele>
        <time>2021-05-15T18:01:03.273Z</time>
      </trkpt>
      <trkpt lat="42.87748" lon="0.61403">
        <ele>579.883357</ele>
        <time>2021-05-15T18:01:13.575Z</time>
      </trkpt>
      <trkpt lat="42.87728" lon="0.61394">
        <ele>581.096189</ele>
        <time>2021-05-15T18:01:24.807Z</time>
      </trkpt>
      <trkpt lat="42.87677" lon="0.6137">
        <ele>584.260984</ele>
        <time>2021-05-15T18:01:50.081Z</time>
      </trkpt>
      <trkpt lat="42.87653" lon="0.61359">
        <ele>585.683568</ele>
        <time>2021-05-15T18:02:01.240Z</time>
      </trkpt>
      <trkpt lat="42.87619" lon="0.61344">
        <ele>587.662576</ele>
        <time>2021-05-15T18:02:16.858Z</time>
      </trkpt>
      <trkpt lat="42.87574" lon="0.61324">
        <ele>589.80819</ele>
        <time>2021-05-15T18:02:37.261Z</time>
      </trkpt>
      <trkpt lat="42.87546" lon="0.61311">
        <ele>591.139627</ele>
        <time>2021-05-15T18:02:49.969Z</time>
      </trkpt>
      <trkpt lat="42.87531" lon="0.61304">
        <ele>591.838366</ele>
        <time>2021-05-15T18:02:57.032Z</time>
      </trkpt>
      <trkpt lat="42.87523" lon="0.613">
        <ele>592.199454</ele>
        <time>2021-05-15T18:03:00.115Z</time>
      </trkpt>
      <trkpt lat="42.87411" lon="0.6125">
        <ele>596.094363</ele>
        <time>2021-05-15T18:03:42.776Z</time>
      </trkpt>
      <trkpt lat="42.87386" lon="0.61238">
        <ele>596.494406</ele>
        <time>2021-05-15T18:03:51.358Z</time>
      </trkpt>
      <trkpt lat="42.87237" lon="0.61139">
        <ele>597.586474</ele>
        <time>2021-05-15T18:04:30.351Z</time>
      </trkpt>
      <trkpt lat="42.87192" lon="0.61116">
        <ele>597.202648</ele>
        <time>2021-05-15T18:04:39.181Z</time>
      </trkpt>
      <trkpt lat="42.87146" lon="0.611">
        <ele>596.820763</ele>
        <time>2021-05-15T18:04:48.024Z</time>
      </trkpt>
      <trkpt lat="42.87134" lon="0.61096">
        <ele>596.720729</ele>
        <time>2021-05-15T18:04:50.128Z</time>
      </trkpt>
      <trkpt lat="42.8711" lon="0.61085">
        <ele>596.492498</ele>
        <time>2021-05-15T18:04:55.018Z</time>
      </trkpt>
      <trkpt lat="42.87096" lon="0.61078">
        <ele>596.352512</ele>
        <time>2021-05-15T18:04:57.443Z</time>
      </trkpt>
      <trkpt lat="42.86987" lon="0.61001">
        <ele>595.167295</ele>
        <time>2021-05-15T18:05:20.406Z</time>
      </trkpt>
      <trkpt lat="42.86846" lon="0.60952">
        <ele>596.125242</ele>
        <time>2021-05-15T18:05:57.588Z</time>
      </trkpt>
      <trkpt lat="42.86826" lon="0.6094">
        <ele>596.351836</ele>
        <time>2021-05-15T18:06:04.763Z</time>
      </trkpt>
      <trkpt lat="42.86812" lon="0.60929">
        <ele>596.526112</ele>
        <time>2021-05-15T18:06:08.794Z</time>
      </trkpt>
      <trkpt lat="42.86797" lon="0.60915">
        <ele>596.714627</ele>
        <time>2021-05-15T18:06:14.865Z</time>
      </trkpt>
      <trkpt lat="42.86754" lon="0.60862">
        <ele>597.212632</ele>
        <time>2021-05-15T18:06:30.354Z</time>
      </trkpt>
      <trkpt lat="42.86746" lon="0.60851">
        <ele>597.310656</ele>
        <time>2021-05-15T18:06:34.288Z</time>
      </trkpt>
      <trkpt lat="42.86728" lon="0.60827">
        <ele>597.517738</ele>
        <time>2021-05-15T18:06:40.071Z</time>
      </trkpt>
      <trkpt lat="42.86713" lon="0.60809">
        <ele>597.688554</ele>
        <time>2021-05-15T18:06:45.533Z</time>
      </trkpt>
      <trkpt lat="42.8665" lon="0.60742">
        <ele>598.354816</ele>
        <time>2021-05-15T18:07:03.190Z</time>
      </trkpt>
      <trkpt lat="42.86586" lon="0.60684">
        <ele>599.041713</ele>
        <time>2021-05-15T18:07:23.362Z</time>
      </trkpt>
      <trkpt lat="42.86569" lon="0.60669">
        <ele>599.219593</ele>
        <time>2021-05-15T18:07:29.005Z</time>
      </trkpt>
      <trkpt lat="42.86529" lon="0.60632">
        <ele>599.651779</ele>
        <time>2021-05-15T18:07:41.299Z</time>
      </trkpt>
      <trkpt lat="42.86514" lon="0.60615">
        <ele>599.828644</ele>
        <time>2021-05-15T18:07:46.725Z</time>
      </trkpt>
      <trkpt lat="42.86469" lon="0.60571">
        <ele>600.679749</ele>
        <time>2021-05-15T18:08:00.946Z</time>
      </trkpt>
      <trkpt lat="42.86452" lon="0.60558">
        <ele>600.99292</ele>
        <time>2021-05-15T18:08:06.785Z</time>
      </trkpt>
      <trkpt lat="42.86446" lon="0.60553">
        <ele>601.114477</ele>
        <time>2021-05-15T18:08:08.968Z</time>
      </trkpt>
      <trkpt lat="42.86427" lon="0.6054">
        <ele>601.450275</ele>
        <time>2021-05-15T18:08:15.103Z</time>
      </trkpt>
      <trkpt lat="42.86391" lon="0.60522">
        <ele>602.078315</ele>
        <time>2021-05-15T18:08:27.303Z</time>
      </trkpt>
      <trkpt lat="42.86347" lon="0.60511">
        <ele>602.809052</ele>
        <time>2021-05-15T18:08:40.593Z</time>
      </trkpt>
      <trkpt lat="42.86326" lon="0.60512">
        <ele>603.253843</ele>
        <time>2021-05-15T18:08:46.124Z</time>
      </trkpt>
      <trkpt lat="42.863" lon="0.60513">
        <ele>603.787332</ele>
        <time>2021-05-15T18:08:53.453Z</time>
      </trkpt>
      <trkpt lat="42.86263" lon="0.60519">
        <ele>604.569868</ele>
        <time>2021-05-15T18:09:04.601Z</time>
      </trkpt>
      <trkpt lat="42.86037" lon="0.60586">
        <ele>608.649531</ele>
        <time>2021-05-15T18:10:18.144Z</time>
      </trkpt>
      <trkpt lat="42.85997" lon="0.60583">
        <ele>609.254091</ele>
        <time>2021-05-15T18:10:26.667Z</time>
      </trkpt>
      <trkpt lat="42.85925" lon="0.6056">
        <ele>608.641846</ele>
        <time>2021-05-15T18:10:40.816Z</time>
      </trkpt>
      <trkpt lat="42.85848" lon="0.60558">
        <ele>607.885274</ele>
        <time>2021-05-15T18:10:54.756Z</time>
      </trkpt>
      <trkpt lat="42.85819" lon="0.60562">
        <ele>607.594229</ele>
        <time>2021-05-15T18:11:00.325Z</time>
      </trkpt>
      <trkpt lat="42.85704" lon="0.60599">
        <ele>607.504224</ele>
        <time>2021-05-15T18:11:25.541Z</time>
      </trkpt>
      <trkpt lat="42.85659" lon="0.60601">
        <ele>607.484449</ele>
        <time>2021-05-15T18:11:36.905Z</time>
      </trkpt>
      <trkpt lat="42.8561" lon="0.60587">
        <ele>607.318765</ele>
        <time>2021-05-15T18:11:49.236Z</time>
      </trkpt>
      <trkpt lat="42.85583" lon="0.60573">
        <ele>607.159504</ele>
        <time>2021-05-15T18:11:55.904Z</time>
      </trkpt>
      <trkpt lat="42.85487" lon="0.60518">
        <ele>606.585645</ele>
        <time>2021-05-15T18:12:16.845Z</time>
      </trkpt>
      <trkpt lat="42.8546" lon="0.60502">
        <ele>606.167468</ele>
        <time>2021-05-15T18:12:22.078Z</time>
      </trkpt>
      <trkpt lat="42.85404" lon="0.60456">
        <ele>604.363578</ele>
        <time>2021-05-15T18:12:33.319Z</time>
      </trkpt>
      <trkpt lat="42.85291" lon="0.60315">
        <ele>600.270692</ele>
        <time>2021-05-15T18:12:58.019Z</time>
      </trkpt>
      <trkpt lat="42.85275" lon="0.60301">
        <ele>599.792506</ele>
        <time>2021-05-15T18:13:01.132Z</time>
      </trkpt>
      <trkpt lat="42.85262" lon="0.60293">
        <ele>599.438928</ele>
        <time>2021-05-15T18:13:03.664Z</time>
      </trkpt>
      <trkpt lat="42.85249" lon="0.60285">
        <ele>599.094432</ele>
        <time>2021-05-15T18:13:05.952Z</time>
      </trkpt>
      <trkpt lat="42.85231" lon="0.60274">
        <ele>598.597785</ele>
        <time>2021-05-15T18:13:09.484Z</time>
      </trkpt>
      <trkpt lat="42.85195" lon="0.60261">
        <ele>597.69107</ele>
        <time>2021-05-15T18:13:15.893Z</time>
      </trkpt>
      <trkpt lat="42.85181" lon="0.60258">
        <ele>597.34316</ele>
        <time>2021-05-15T18:13:18.336Z</time>
      </trkpt>
      <trkpt lat="42.85168" lon="0.60256">
        <ele>597.055792</ele>
        <time>2021-05-15T18:13:20.664Z</time>
      </trkpt>
      <trkpt lat="42.84992" lon="0.60256">
        <ele>596.027895</ele>
        <time>2021-05-15T18:13:57.018Z</time>
      </trkpt>
      <trkpt lat="42.84864" lon="0.60284">
        <ele>596.267563</ele>
        <time>2021-05-15T18:14:26.096Z</time>
      </trkpt>
      <trkpt lat="42.84597" lon="0.60348">
        <ele>597.750782</ele>
        <time>2021-05-15T18:15:33.737Z</time>
      </trkpt>
      <trkpt lat="42.84558" lon="0.60357">
        <ele>597.958849</ele>
        <time>2021-05-15T18:15:43.764Z</time>
      </trkpt>
      <trkpt lat="42.84478" lon="0.60375">
        <ele>598.380839</ele>
        <time>2021-05-15T18:16:03.119Z</time>
      </trkpt>
      <trkpt lat="42.84439" lon="0.60382">
        <ele>598.580608</ele>
        <time>2021-05-15T18:16:12.216Z</time>
      </trkpt>
      <trkpt lat="42.84419" lon="0.60387">
        <ele>598.680047</ele>
        <time>2021-05-15T18:16:16.788Z</time>
      </trkpt>
      <trkpt lat="42.84391" lon="0.60393">
        <ele>598.823355</ele>
        <time>2021-05-15T18:16:23.359Z</time>
      </trkpt>
      <trkpt lat="42.84356" lon="0.60399">
        <ele>598.994181</ele>
        <time>2021-05-15T18:16:31.443Z</time>
      </trkpt>
      <trkpt lat="42.84307" lon="0.60408">
        <ele>599.238146</ele>
        <time>2021-05-15T18:16:43.473Z</time>
      </trkpt>
      <trkpt lat="42.84264" lon="0.60417">
        <ele>599.808986</ele>
        <time>2021-05-15T18:16:54.173Z</time>
      </trkpt>
      <trkpt lat="42.84252" lon="0.6042">
        <ele>600.150677</ele>
        <time>2021-05-15T18:16:57.501Z</time>
      </trkpt>
      <trkpt lat="42.84127" lon="0.60462">
        <ele>603.731353</ele>
        <time>2021-05-15T18:17:39.972Z</time>
      </trkpt>
      <trkpt lat="42.8408" lon="0.60463">
        <ele>605.477708</ele>
        <time>2021-05-15T18:17:59.830Z</time>
      </trkpt>
      <trkpt lat="42.84034" lon="0.60454">
        <ele>607.647336</ele>
        <time>2021-05-15T18:18:21.559Z</time>
      </trkpt>
      <trkpt lat="42.83862" lon="0.60404">
        <ele>612.522613</ele>
        <time>2021-05-15T18:19:31.349Z</time>
      </trkpt>
      <trkpt lat="42.83849" lon="0.60396">
        <ele>612.491304</ele>
        <time>2021-05-15T18:19:34.081Z</time>
      </trkpt>
      <trkpt lat="42.83782" lon="0.60378">
        <ele>612.339051</ele>
        <time>2021-05-15T18:19:46.056Z</time>
      </trkpt>
      <trkpt lat="42.83718" lon="0.60359">
        <ele>610.437695</ele>
        <time>2021-05-15T18:19:55.948Z</time>
      </trkpt>
      <trkpt lat="42.83697" lon="0.60354">
        <ele>609.317386</ele>
        <time>2021-05-15T18:19:58.999Z</time>
      </trkpt>
      <trkpt lat="42.83667" lon="0.60345">
        <ele>607.697587</ele>
        <time>2021-05-15T18:20:03.476Z</time>
      </trkpt>
      <trkpt lat="42.83659" lon="0.60342">
        <ele>607.250178</ele>
        <time>2021-05-15T18:20:04.642Z</time>
      </trkpt>
      <trkpt lat="42.83557" lon="0.60315">
        <ele>602.3652</ele>
        <time>2021-05-15T18:20:20.209Z</time>
      </trkpt>
      <trkpt lat="42.83535" lon="0.60312">
        <ele>601.889177</ele>
        <time>2021-05-15T18:20:23.665Z</time>
      </trkpt>
      <trkpt lat="42.83206" lon="0.6022">
        <ele>597.039633</ele>
        <time>2021-05-15T18:21:27.244Z</time>
      </trkpt>
      <trkpt lat="42.8317" lon="0.6021">
        <ele>597.128509</ele>
        <time>2021-05-15T18:21:35.488Z</time>
      </trkpt>
      <trkpt lat="42.8303" lon="0.60171">
        <ele>597.552525</ele>
        <time>2021-05-15T18:22:10.744Z</time>
      </trkpt>
      <trkpt lat="42.83013" lon="0.60166">
        <ele>597.676953</ele>
        <time>2021-05-15T18:22:15.476Z</time>
      </trkpt>
      <trkpt lat="42.83" lon="0.60161">
        <ele>597.771395</ele>
        <time>2021-05-15T18:22:18.942Z</time>
      </trkpt>
      <trkpt lat="42.82921" lon="0.6016">
        <ele>598.321821</ele>
        <time>2021-05-15T18:22:38.861Z</time>
      </trkpt>
      <trkpt lat="42.82913" lon="0.60156">
        <ele>598.377461</ele>
        <time>2021-05-15T18:22:40.974Z</time>
      </trkpt>
      <trkpt lat="42.82911" lon="0.60153">
        <ele>598.401684</ele>
        <time>2021-05-15T18:22:41.849Z</time>
      </trkpt>
      <trkpt lat="42.82907" lon="0.60152">
        <ele>598.426294</ele>
        <time>2021-05-15T18:22:42.723Z</time>
      </trkpt>
      <trkpt lat="42.82903" lon="0.60151">
        <ele>598.456448</ele>
        <time>2021-05-15T18:22:43.788Z</time>
      </trkpt>
      <trkpt lat="42.82895" lon="0.60155">
        <ele>598.515787</ele>
        <time>2021-05-15T18:22:45.881Z</time>
      </trkpt>
      <trkpt lat="42.82892" lon="0.6016">
        <ele>598.545675</ele>
        <time>2021-05-15T18:22:46.909Z</time>
      </trkpt>
      <trkpt lat="42.82891" lon="0.60162">
        <ele>598.556884</ele>
        <time>2021-05-15T18:22:47.275Z</time>
      </trkpt>
      <trkpt lat="42.82886" lon="0.60167">
        <ele>598.603299</ele>
        <time>2021-05-15T18:22:48.994Z</time>
      </trkpt>
      <trkpt lat="42.82813" lon="0.60186">
        <ele>598.907104</ele>
        <time>2021-05-15T18:23:06.853Z</time>
      </trkpt>
      <trkpt lat="42.82785" lon="0.60195">
        <ele>599.008292</ele>
        <time>2021-05-15T18:23:13.494Z</time>
      </trkpt>
      <trkpt lat="42.82756" lon="0.60201">
        <ele>599.113473</ele>
        <time>2021-05-15T18:23:20.509Z</time>
      </trkpt>
      <trkpt lat="42.82667" lon="0.60228">
        <ele>599.380708</ele>
        <time>2021-05-15T18:23:41.519Z</time>
      </trkpt>
      <trkpt lat="42.82388" lon="0.60354">
        <ele>599.952593</ele>
        <time>2021-05-15T18:24:49.149Z</time>
      </trkpt>
      <trkpt lat="42.82296" lon="0.60378">
        <ele>600.331913</ele>
        <time>2021-05-15T18:25:11.038Z</time>
      </trkpt>
      <trkpt lat="42.82267" lon="0.60381">
        <ele>600.482869</ele>
        <time>2021-05-15T18:25:18.017Z</time>
      </trkpt>
      <trkpt lat="42.82264" lon="0.60382">
        <ele>600.498459</ele>
        <time>2021-05-15T18:25:18.746Z</time>
      </trkpt>
      <trkpt lat="42.82235" lon="0.60384">
        <ele>600.645808</ele>
        <time>2021-05-15T18:25:25.664Z</time>
      </trkpt>
      <trkpt lat="42.82171" lon="0.60382">
        <ele>601.003587</ele>
        <time>2021-05-15T18:25:41.725Z</time>
      </trkpt>
      <trkpt lat="42.82044" lon="0.60358">
        <ele>602.242293</ele>
        <time>2021-05-15T18:26:15.258Z</time>
      </trkpt>
      <trkpt lat="42.81875" lon="0.6032">
        <ele>603.769685</ele>
        <time>2021-05-15T18:27:00.213Z</time>
      </trkpt>
      <trkpt lat="42.81348" lon="0.60202">
        <ele>606.68235</ele>
        <time>2021-05-15T18:29:09.419Z</time>
      </trkpt>
      <trkpt lat="42.8127" lon="0.60184">
        <ele>607.169708</ele>
        <time>2021-05-15T18:29:28.861Z</time>
      </trkpt>
      <trkpt lat="42.81129" lon="0.60152">
        <ele>608.382072</ele>
        <time>2021-05-15T18:30:05.558Z</time>
      </trkpt>
      <trkpt lat="42.80686" lon="0.60052">
        <ele>613.369179</ele>
        <time>2021-05-15T18:32:05.088Z</time>
      </trkpt>
      <trkpt lat="42.80658" lon="0.60043">
        <ele>613.750277</ele>
        <time>2021-05-15T18:32:13.194Z</time>
      </trkpt>
      <trkpt lat="42.80545" lon="0.60016">
        <ele>615.246699</ele>
        <time>2021-05-15T18:32:45.160Z</time>
      </trkpt>
      <trkpt lat="42.80539" lon="0.60008">
        <ele>615.351964</ele>
        <time>2021-05-15T18:32:47.671Z</time>
      </trkpt>
      <trkpt lat="42.80536" lon="0.60004">
        <ele>615.404602</ele>
        <time>2021-05-15T18:32:48.801Z</time>
      </trkpt>
      <trkpt lat="42.80532" lon="0.60002">
        <ele>615.456752</ele>
        <time>2021-05-15T18:32:49.905Z</time>
      </trkpt>
      <trkpt lat="42.80528" lon="0.60001">
        <ele>615.50956</ele>
        <time>2021-05-15T18:32:51.061Z</time>
      </trkpt>
      <trkpt lat="42.8052" lon="0.59998">
        <ele>615.613148</ele>
        <time>2021-05-15T18:32:53.459Z</time>
      </trkpt>
      <trkpt lat="42.80498" lon="0.59982">
        <ele>615.926158</ele>
        <time>2021-05-15T18:33:00.173Z</time>
      </trkpt>
      <trkpt lat="42.80486" lon="0.59975">
        <ele>616.089875</ele>
        <time>2021-05-15T18:33:03.763Z</time>
      </trkpt>
      <trkpt lat="42.8048" lon="0.5997">
        <ele>616.182253</ele>
        <time>2021-05-15T18:33:05.769Z</time>
      </trkpt>
      <trkpt lat="42.80434" lon="0.59932">
        <ele>616.846067</ele>
        <time>2021-05-15T18:33:20.086Z</time>
      </trkpt>
      <trkpt lat="42.80421" lon="0.59922">
        <ele>617.039933</ele>
        <time>2021-05-15T18:33:24.262Z</time>
      </trkpt>
      <trkpt lat="42.80389" lon="0.59897">
        <ele>617.340648</ele>
        <time>2021-05-15T18:33:34.150Z</time>
      </trkpt>
      <trkpt lat="42.80269" lon="0.598">
        <ele>618.440115</ele>
        <time>2021-05-15T18:34:09.309Z</time>
      </trkpt>
      <trkpt lat="42.8024" lon="0.59783">
        <ele>618.616785</ele>
        <time>2021-05-15T18:34:16.909Z</time>
      </trkpt>
      <trkpt lat="42.80185" lon="0.59754">
        <ele>618.906684</ele>
        <time>2021-05-15T18:34:31.028Z</time>
      </trkpt>
      <trkpt lat="42.80169" lon="0.59751">
        <ele>618.983979</ele>
        <time>2021-05-15T18:34:34.792Z</time>
      </trkpt>
      <trkpt lat="42.80152" lon="0.59746">
        <ele>619.073344</ele>
        <time>2021-05-15T18:34:39.173Z</time>
      </trkpt>
      <trkpt lat="42.80149" lon="0.59746">
        <ele>619.087271</ele>
        <time>2021-05-15T18:34:39.867Z</time>
      </trkpt>
      <trkpt lat="42.80102" lon="0.5974">
        <ele>619.322447</ele>
        <time>2021-05-15T18:34:51.308Z</time>
      </trkpt>
      <trkpt lat="42.80107" lon="0.59645">
        <ele>620.030749</ele>
        <time>2021-05-15T18:35:07.967Z</time>
      </trkpt>
      <trkpt lat="42.79927" lon="0.59622">
        <ele>623.152829</ele>
        <time>2021-05-15T18:35:58.238Z</time>
      </trkpt>
      <trkpt lat="42.79887" lon="0.59616">
        <ele>624.368468</ele>
        <time>2021-05-15T18:36:12.710Z</time>
      </trkpt>
      <trkpt lat="42.79811" lon="0.59604">
        <ele>626.649559</ele>
        <time>2021-05-15T18:36:41.711Z</time>
      </trkpt>
      <trkpt lat="42.79741" lon="0.59592">
        <ele>629.123808</ele>
        <time>2021-05-15T18:37:09.645Z</time>
      </trkpt>
      <trkpt lat="42.79722" lon="0.5959">
        <ele>629.808796</ele>
        <time>2021-05-15T18:37:17.408Z</time>
      </trkpt>
      <trkpt lat="42.79683" lon="0.59585">
        <ele>631.159404</ele>
        <time>2021-05-15T18:37:31.749Z</time>
      </trkpt>
      <trkpt lat="42.79663" lon="0.59578">
        <ele>631.901836</ele>
        <time>2021-05-15T18:37:39.060Z</time>
      </trkpt>
      <trkpt lat="42.79656" lon="0.59575">
        <ele>632.151801</ele>
        <time>2021-05-15T18:37:41.398Z</time>
      </trkpt>
      <trkpt lat="42.79642" lon="0.59564">
        <ele>632.71472</ele>
        <time>2021-05-15T18:37:46.497Z</time>
      </trkpt>
      <trkpt lat="42.7963" lon="0.59552">
        <ele>633.148841</ele>
        <time>2021-05-15T18:37:51.213Z</time>
      </trkpt>
      <trkpt lat="42.79591" lon="0.59511">
        <ele>633.511386</ele>
        <time>2021-05-15T18:38:05.467Z</time>
      </trkpt>
      <trkpt lat="42.79586" lon="0.59506">
        <ele>633.5535</ele>
        <time>2021-05-15T18:38:07.078Z</time>
      </trkpt>
      <trkpt lat="42.79567" lon="0.59488">
        <ele>633.729519</ele>
        <time>2021-05-15T18:38:13.053Z</time>
      </trkpt>
      <trkpt lat="42.79559" lon="0.59481">
        <ele>633.796472</ele>
        <time>2021-05-15T18:38:15.313Z</time>
      </trkpt>
      <trkpt lat="42.79545" lon="0.59467">
        <ele>633.923412</ele>
        <time>2021-05-15T18:38:19.636Z</time>
      </trkpt>
      <trkpt lat="42.7953" lon="0.59453">
        <ele>634.055518</ele>
        <time>2021-05-15T18:38:23.967Z</time>
      </trkpt>
      <trkpt lat="42.79519" lon="0.59441">
        <ele>634.157165</ele>
        <time>2021-05-15T18:38:27.003Z</time>
      </trkpt>
      <trkpt lat="42.79516" lon="0.59438">
        <ele>634.188733</ele>
        <time>2021-05-15T18:38:27.907Z</time>
      </trkpt>
      <trkpt lat="42.79514" lon="0.59433">
        <ele>634.218662</ele>
        <time>2021-05-15T18:38:28.873Z</time>
      </trkpt>
      <trkpt lat="42.79508" lon="0.59424">
        <ele>634.280851</ele>
        <time>2021-05-15T18:38:30.601Z</time>
      </trkpt>
      <trkpt lat="42.79506" lon="0.59419">
        <ele>634.311487</ele>
        <time>2021-05-15T18:38:31.470Z</time>
      </trkpt>
      <trkpt lat="42.79504" lon="0.59412">
        <ele>634.353204</ele>
        <time>2021-05-15T18:38:32.690Z</time>
      </trkpt>
      <trkpt lat="42.79502" lon="0.59395">
        <ele>634.437244</ele>
        <time>2021-05-15T18:38:35.169Z</time>
      </trkpt>
      <trkpt lat="42.79499" lon="0.59391">
        <ele>634.409646</ele>
        <time>2021-05-15T18:38:36.086Z</time>
      </trkpt>
      <trkpt lat="42.79497" lon="0.59384">
        <ele>634.37126</ele>
        <time>2021-05-15T18:38:37.181Z</time>
      </trkpt>
      <trkpt lat="42.79491" lon="0.59373">
        <ele>634.302528</ele>
        <time>2021-05-15T18:38:39.153Z</time>
      </trkpt>
      <trkpt lat="42.79489" lon="0.59371">
        <ele>634.280952</ele>
        <time>2021-05-15T18:38:39.798Z</time>
      </trkpt>
      <trkpt lat="42.79475" lon="0.59339">
        <ele>634.09121</ele>
        <time>2021-05-15T18:38:45.042Z</time>
      </trkpt>
      <trkpt lat="42.79451" lon="0.59294">
        <ele>633.809916</ele>
        <time>2021-05-15T18:38:52.902Z</time>
      </trkpt>
      <trkpt lat="42.79439" lon="0.59275">
        <ele>633.682396</ele>
        <time>2021-05-15T18:38:56.450Z</time>
      </trkpt>
      <trkpt lat="42.79423" lon="0.59248">
        <ele>633.508141</ele>
        <time>2021-05-15T18:39:01.520Z</time>
      </trkpt>
      <trkpt lat="42.79383" lon="0.59173">
        <ele>633.288582</ele>
        <time>2021-05-15T18:39:15.401Z</time>
      </trkpt>
      <trkpt lat="42.79373" lon="0.59129">
        <ele>633.43074</ele>
        <time>2021-05-15T18:39:22.709Z</time>
      </trkpt>
      <trkpt lat="42.79373" lon="0.59117">
        <ele>633.466133</ele>
        <time>2021-05-15T18:39:24.321Z</time>
      </trkpt>
      <trkpt lat="42.79374" lon="0.59099">
        <ele>633.520935</ele>
        <time>2021-05-15T18:39:27.759Z</time>
      </trkpt>
      <trkpt lat="42.79379" lon="0.59035">
        <ele>633.717859</ele>
        <time>2021-05-15T18:39:39.372Z</time>
      </trkpt>
      <trkpt lat="42.79367" lon="0.58944">
        <ele>634.284461</ele>
        <time>2021-05-15T18:39:57.723Z</time>
      </trkpt>
      <trkpt lat="42.7936" lon="0.58901">
        <ele>635.088799</ele>
        <time>2021-05-15T18:40:07.092Z</time>
      </trkpt>
      <trkpt lat="42.79359" lon="0.58893">
        <ele>635.226324</ele>
        <time>2021-05-15T18:40:08.703Z</time>
      </trkpt>
      <trkpt lat="42.79357" lon="0.5887">
        <ele>635.648636</ele>
        <time>2021-05-15T18:40:13.610Z</time>
      </trkpt>
      <trkpt lat="42.79351" lon="0.58822">
        <ele>636.528104</ele>
        <time>2021-05-15T18:40:24.072Z</time>
      </trkpt>
      <trkpt lat="42.79348" lon="0.5878">
        <ele>637.290011</ele>
        <time>2021-05-15T18:40:33.490Z</time>
      </trkpt>
      <trkpt lat="42.79338" lon="0.58668">
        <ele>641.002755</ele>
        <time>2021-05-15T18:41:06.709Z</time>
      </trkpt>
      <trkpt lat="42.79339" lon="0.58637">
        <ele>642.518177</ele>
        <time>2021-05-15T18:41:16.513Z</time>
      </trkpt>
      <trkpt lat="42.7934" lon="0.58627">
        <ele>643.05982</ele>
        <time>2021-05-15T18:41:20.717Z</time>
      </trkpt>
      <trkpt lat="42.79344" lon="0.58612">
        <ele>643.826466</ele>
        <time>2021-05-15T18:41:26.097Z</time>
      </trkpt>
      <trkpt lat="42.79349" lon="0.58598">
        <ele>644.578114</ele>
        <time>2021-05-15T18:41:31.242Z</time>
      </trkpt>
      <trkpt lat="42.79374" lon="0.58529">
        <ele>648.397124</ele>
        <time>2021-05-15T18:42:01.932Z</time>
      </trkpt>
      <trkpt lat="42.79391" lon="0.58468">
        <ele>651.936041</ele>
        <time>2021-05-15T18:42:29.938Z</time>
      </trkpt>
      <trkpt lat="42.79406" lon="0.58352">
        <ele>659.173826</ele>
        <time>2021-05-15T18:43:22.802Z</time>
      </trkpt>
      <trkpt lat="42.79423" lon="0.58281">
        <ele>663.809704</ele>
        <time>2021-05-15T18:43:52.719Z</time>
      </trkpt>
      <trkpt lat="42.79426" lon="0.58233">
        <ele>666.494927</ele>
        <time>2021-05-15T18:44:09.308Z</time>
      </trkpt>
      <trkpt lat="42.79423" lon="0.58121">
        <ele>671.867176</ele>
        <time>2021-05-15T18:44:46.311Z</time>
      </trkpt>
      <trkpt lat="42.79427" lon="0.58063">
        <ele>674.611797</ele>
        <time>2021-05-15T18:45:05.844Z</time>
      </trkpt>
      <trkpt lat="42.7943" lon="0.58039">
        <ele>675.769597</ele>
        <time>2021-05-15T18:45:15.323Z</time>
      </trkpt>
      <trkpt lat="42.79437" lon="0.58006">
        <ele>677.422156</ele>
        <time>2021-05-15T18:45:28.060Z</time>
      </trkpt>
      <trkpt lat="42.79447" lon="0.57959">
        <ele>680.281167</ele>
        <time>2021-05-15T18:45:47.690Z</time>
      </trkpt>
      <trkpt lat="42.79464" lon="0.57916">
        <ele>683.109504</ele>
        <time>2021-05-15T18:46:07.620Z</time>
      </trkpt>
      <trkpt lat="42.79485" lon="0.57891">
        <ele>685.378211</ele>
        <time>2021-05-15T18:46:23.865Z</time>
      </trkpt>
      <trkpt lat="42.79501" lon="0.57867">
        <ele>687.251794</ele>
        <time>2021-05-15T18:46:37.288Z</time>
      </trkpt>
      <trkpt lat="42.7955" lon="0.57777">
        <ele>692.775771</ele>
        <time>2021-05-15T18:47:21.345Z</time>
      </trkpt>
      <trkpt lat="42.79567" lon="0.57746">
        <ele>693.978286</ele>
        <time>2021-05-15T18:47:34.954Z</time>
      </trkpt>
      <trkpt lat="42.79578" lon="0.57709">
        <ele>695.246392</ele>
        <time>2021-05-15T18:47:46.975Z</time>
      </trkpt>
      <trkpt lat="42.79586" lon="0.57617">
        <ele>698.205524</ele>
        <time>2021-05-15T18:48:07.786Z</time>
      </trkpt>
      <trkpt lat="42.79582" lon="0.57575">
        <ele>699.515903</ele>
        <time>2021-05-15T18:48:17.581Z</time>
      </trkpt>
      <trkpt lat="42.79592" lon="0.57531">
        <ele>700.847048</ele>
        <time>2021-05-15T18:48:28.566Z</time>
      </trkpt>
      <trkpt lat="42.79603" lon="0.57485">
        <ele>702.267751</ele>
        <time>2021-05-15T18:48:41.176Z</time>
      </trkpt>
      <trkpt lat="42.79632" lon="0.57375">
        <ele>705.678184</ele>
        <time>2021-05-15T18:49:15.556Z</time>
      </trkpt>
      <trkpt lat="42.79656" lon="0.57208">
        <ele>712.172371</ele>
        <time>2021-05-15T18:50:12.263Z</time>
      </trkpt>
      <trkpt lat="42.79645" lon="0.57139">
        <ele>714.99196</ele>
        <time>2021-05-15T18:50:33.829Z</time>
      </trkpt>
      <trkpt lat="42.79621" lon="0.57057">
        <ele>719.008554</ele>
        <time>2021-05-15T18:51:02.503Z</time>
      </trkpt>
      <trkpt lat="42.79621" lon="0.57039">
        <ele>719.877521</ele>
        <time>2021-05-15T18:51:09.049Z</time>
      </trkpt>
      <trkpt lat="42.79627" lon="0.57014">
        <ele>721.141764</ele>
        <time>2021-05-15T18:51:17.383Z</time>
      </trkpt>
      <trkpt lat="42.79668" lon="0.56879">
        <ele>728.186187</ele>
        <time>2021-05-15T18:52:10.965Z</time>
      </trkpt>
      <trkpt lat="42.7969" lon="0.56828">
        <ele>731.921986</ele>
        <time>2021-05-15T18:52:35.612Z</time>
      </trkpt>
      <trkpt lat="42.79725" lon="0.56767">
        <ele>736.848212</ele>
        <time>2021-05-15T18:53:11.039Z</time>
      </trkpt>
      <trkpt lat="42.79753" lon="0.56685">
        <ele>742.61671</ele>
        <time>2021-05-15T18:53:49.204Z</time>
      </trkpt>
      <trkpt lat="42.79763" lon="0.56673">
        <ele>743.754552</ele>
        <time>2021-05-15T18:53:56.570Z</time>
      </trkpt>
      <trkpt lat="42.79792" lon="0.56657">
        <ele>745.658164</ele>
        <time>2021-05-15T18:54:12.724Z</time>
      </trkpt>
      <trkpt lat="42.79839" lon="0.56661">
        <ele>748.585622</ele>
        <time>2021-05-15T18:54:36.427Z</time>
      </trkpt>
      <trkpt lat="42.79909" lon="0.56645">
        <ele>753.03491</ele>
        <time>2021-05-15T18:55:09.295Z</time>
      </trkpt>
      <trkpt lat="42.80017" lon="0.56553">
        <ele>757.930332</ele>
        <time>2021-05-15T18:55:57.440Z</time>
      </trkpt>
      <trkpt lat="42.80061" lon="0.56529">
        <ele>759.432737</ele>
        <time>2021-05-15T18:56:12.548Z</time>
      </trkpt>
      <trkpt lat="42.80094" lon="0.56512">
        <ele>760.525651</ele>
        <time>2021-05-15T18:56:23.158Z</time>
      </trkpt>
      <trkpt lat="42.80112" lon="0.56499">
        <ele>760.753651</ele>
        <time>2021-05-15T18:56:28.859Z</time>
      </trkpt>
      <trkpt lat="42.80131" lon="0.5648">
        <ele>761.031413</ele>
        <time>2021-05-15T18:56:35.620Z</time>
      </trkpt>
      <trkpt lat="42.80193" lon="0.56403">
        <ele>761.996304</ele>
        <time>2021-05-15T18:56:56.822Z</time>
      </trkpt>
      <trkpt lat="42.80253" lon="0.56324">
        <ele>763.905254</ele>
        <time>2021-05-15T18:57:17.350Z</time>
      </trkpt>
      <trkpt lat="42.80258" lon="0.56318">
        <ele>764.18612</ele>
        <time>2021-05-15T18:57:20.414Z</time>
      </trkpt>
      <trkpt lat="42.80277" lon="0.56292">
        <ele>765.255359</ele>
        <time>2021-05-15T18:57:28.842Z</time>
      </trkpt>
      <trkpt lat="42.80287" lon="0.56278">
        <ele>765.861914</ele>
        <time>2021-05-15T18:57:35.563Z</time>
      </trkpt>
      <trkpt lat="42.80319" lon="0.56214">
        <ele>768.161832</ele>
        <time>2021-05-15T18:57:57.462Z</time>
      </trkpt>
      <trkpt lat="42.80341" lon="0.56199">
        <ele>769.180673</ele>
        <time>2021-05-15T18:58:09.437Z</time>
      </trkpt>
      <trkpt lat="42.80355" lon="0.56197">
        <ele>769.750524</ele>
        <time>2021-05-15T18:58:15.334Z</time>
      </trkpt>
      <trkpt lat="42.8037" lon="0.56198">
        <ele>770.748262</ele>
        <time>2021-05-15T18:58:23.947Z</time>
      </trkpt>
      <trkpt lat="42.80394" lon="0.56197">
        <ele>772.677598</ele>
        <time>2021-05-15T18:58:35.405Z</time>
      </trkpt>
      <trkpt lat="42.80445" lon="0.56177">
        <ele>776.889461</ele>
        <time>2021-05-15T18:59:06.429Z</time>
      </trkpt>
      <trkpt lat="42.80544" lon="0.56113">
        <ele>784.807084</ele>
        <time>2021-05-15T19:00:09.863Z</time>
      </trkpt>
      <trkpt lat="42.80624" lon="0.56097">
        <ele>787.719105</ele>
        <time>2021-05-15T19:00:41.245Z</time>
      </trkpt>
      <trkpt lat="42.80631" lon="0.56086">
        <ele>788.10614</ele>
        <time>2021-05-15T19:00:45.408Z</time>
      </trkpt>
      <trkpt lat="42.80634" lon="0.56076">
        <ele>788.408289</ele>
        <time>2021-05-15T19:00:47.655Z</time>
      </trkpt>
      <trkpt lat="42.80634" lon="0.56065">
        <ele>788.707209</ele>
        <time>2021-05-15T19:00:49.934Z</time>
      </trkpt>
      <trkpt lat="42.80632" lon="0.56054">
        <ele>789.007861</ele>
        <time>2021-05-15T19:00:52.183Z</time>
      </trkpt>
      <trkpt lat="42.80626" lon="0.56042">
        <ele>789.393893</ele>
        <time>2021-05-15T19:00:55.768Z</time>
      </trkpt>
      <trkpt lat="42.80582" lon="0.56013">
        <ele>790.784571</ele>
        <time>2021-05-15T19:01:07.041Z</time>
      </trkpt>
      <trkpt lat="42.80531" lon="0.56003">
        <ele>791.229832</ele>
        <time>2021-05-15T19:01:18.048Z</time>
      </trkpt>
      <trkpt lat="42.8051" lon="0.56007">
        <ele>791.416979</ele>
        <time>2021-05-15T19:01:22.486Z</time>
      </trkpt>
      <trkpt lat="42.80479" lon="0.56031">
        <ele>791.719362</ele>
        <time>2021-05-15T19:01:29.136Z</time>
      </trkpt>
      <trkpt lat="42.80471" lon="0.56032">
        <ele>791.78945</ele>
        <time>2021-05-15T19:01:31.284Z</time>
      </trkpt>
      <trkpt lat="42.80461" lon="0.56021">
        <ele>791.901956</ele>
        <time>2021-05-15T19:01:34.940Z</time>
      </trkpt>
      <trkpt lat="42.80462" lon="0.56001">
        <ele>792.031389</ele>
        <time>2021-05-15T19:01:39.354Z</time>
      </trkpt>
      <trkpt lat="42.80473" lon="0.55993">
        <ele>792.138741</ele>
        <time>2021-05-15T19:01:43.476Z</time>
      </trkpt>
      <trkpt lat="42.80501" lon="0.55988">
        <ele>793.408535</ele>
        <time>2021-05-15T19:01:53.309Z</time>
      </trkpt>
      <trkpt lat="42.80533" lon="0.55966">
        <ele>795.768982</ele>
        <time>2021-05-15T19:02:09.604Z</time>
      </trkpt>
      <trkpt lat="42.80548" lon="0.55964">
        <ele>796.81655</ele>
        <time>2021-05-15T19:02:16.930Z</time>
      </trkpt>
      <trkpt lat="42.80602" lon="0.55965">
        <ele>800.368225</ele>
        <time>2021-05-15T19:02:44.283Z</time>
      </trkpt>
      <trkpt lat="42.80633" lon="0.55983">
        <ele>802.631566</ele>
        <time>2021-05-15T19:03:02.998Z</time>
      </trkpt>
      <trkpt lat="42.80651" lon="0.55986">
        <ele>803.823259</ele>
        <time>2021-05-15T19:03:11.988Z</time>
      </trkpt>
      <trkpt lat="42.80655" lon="0.55983">
        <ele>804.1614</ele>
        <time>2021-05-15T19:03:16.325Z</time>
      </trkpt>
      <trkpt lat="42.80659" lon="0.55978">
        <ele>804.745246</ele>
        <time>2021-05-15T19:03:19.893Z</time>
      </trkpt>
      <trkpt lat="42.8066" lon="0.55962">
        <ele>806.041965</ele>
        <time>2021-05-15T19:03:25.937Z</time>
      </trkpt>
      <trkpt lat="42.80652" lon="0.55947">
        <ele>807.619843</ele>
        <time>2021-05-15T19:03:33.555Z</time>
      </trkpt>
      <trkpt lat="42.80606" lon="0.55935">
        <ele>812.8957</ele>
        <time>2021-05-15T19:04:05.809Z</time>
      </trkpt>
      <trkpt lat="42.80581" lon="0.5592">
        <ele>816.047814</ele>
        <time>2021-05-15T19:04:23.719Z</time>
      </trkpt>
      <trkpt lat="42.80557" lon="0.55896">
        <ele>819.459214</ele>
        <time>2021-05-15T19:04:45.258Z</time>
      </trkpt>
      <trkpt lat="42.80546" lon="0.55871">
        <ele>821.852235</ele>
        <time>2021-05-15T19:05:02.092Z</time>
      </trkpt>
      <trkpt lat="42.80547" lon="0.55841">
        <ele>824.403836</ele>
        <time>2021-05-15T19:05:17.801Z</time>
      </trkpt>
      <trkpt lat="42.80591" lon="0.55687">
        <ele>839.80063</ele>
        <time>2021-05-15T19:06:49.554Z</time>
      </trkpt>
      <trkpt lat="42.80599" lon="0.55613">
        <ele>846.828182</ele>
        <time>2021-05-15T19:07:29.863Z</time>
      </trkpt>
      <trkpt lat="42.80609" lon="0.55572">
        <ele>850.003043</ele>
        <time>2021-05-15T19:07:51.304Z</time>
      </trkpt>
      <trkpt lat="42.80607" lon="0.55449">
        <ele>858.576855</ele>
        <time>2021-05-15T19:08:46.218Z</time>
      </trkpt>
      <trkpt lat="42.80595" lon="0.55345">
        <ele>865.83978</ele>
        <time>2021-05-15T19:09:27.476Z</time>
      </trkpt>
      <trkpt lat="42.80594" lon="0.55296">
        <ele>869.1539</ele>
        <time>2021-05-15T19:09:46.615Z</time>
      </trkpt>
      <trkpt lat="42.80598" lon="0.55218">
        <ele>874.385424</ele>
        <time>2021-05-15T19:10:20.520Z</time>
      </trkpt>
      <trkpt lat="42.80616" lon="0.551">
        <ele>882.841979</ele>
        <time>2021-05-15T19:11:15.878Z</time>
      </trkpt>
      <trkpt lat="42.80627" lon="0.55018">
        <ele>889.68136</ele>
        <time>2021-05-15T19:11:54.660Z</time>
      </trkpt>
      <trkpt lat="42.80631" lon="0.54992">
        <ele>891.901522</ele>
        <time>2021-05-15T19:12:09.480Z</time>
      </trkpt>
      <trkpt lat="42.80632" lon="0.54976">
        <ele>893.199999</ele>
        <time>2021-05-15T19:12:16.693Z</time>
      </trkpt>
      <trkpt lat="42.80632" lon="0.5495">
        <ele>895.335682</ele>
        <time>2021-05-15T19:12:32.475Z</time>
      </trkpt>
      <trkpt lat="42.80631" lon="0.54937">
        <ele>896.393248</ele>
        <time>2021-05-15T19:12:38.154Z</time>
      </trkpt>
      <trkpt lat="42.80629" lon="0.54894">
        <ele>899.981913</ele>
        <time>2021-05-15T19:13:01.323Z</time>
      </trkpt>
      <trkpt lat="42.80627" lon="0.54866">
        <ele>902.096852</ele>
        <time>2021-05-15T19:13:14.908Z</time>
      </trkpt>
      <trkpt lat="42.80628" lon="0.54852">
        <ele>902.990543</ele>
        <time>2021-05-15T19:13:24.009Z</time>
      </trkpt>
      <trkpt lat="42.80631" lon="0.54838">
        <ele>903.948237</ele>
        <time>2021-05-15T19:13:29.611Z</time>
      </trkpt>
      <trkpt lat="42.80649" lon="0.54789">
        <ele>907.481376</ele>
        <time>2021-05-15T19:13:53.091Z</time>
      </trkpt>
      <trkpt lat="42.80651" lon="0.54778">
        <ele>908.19203</ele>
        <time>2021-05-15T19:13:57.133Z</time>
      </trkpt>
      <trkpt lat="42.80653" lon="0.54766">
        <ele>909.026446</ele>
        <time>2021-05-15T19:14:04.136Z</time>
      </trkpt>
      <trkpt lat="42.80657" lon="0.5471">
        <ele>912.647926</ele>
        <time>2021-05-15T19:14:26.314Z</time>
      </trkpt>
      <trkpt lat="42.80659" lon="0.54669">
        <ele>915.334159</ele>
        <time>2021-05-15T19:14:43.113Z</time>
      </trkpt>
      <trkpt lat="42.80659" lon="0.54662">
        <ele>915.804053</ele>
        <time>2021-05-15T19:14:46.354Z</time>
      </trkpt>
      <trkpt lat="42.80657" lon="0.54639">
        <ele>917.223713</ele>
        <time>2021-05-15T19:14:53.877Z</time>
      </trkpt>
      <trkpt lat="42.80656" lon="0.54634">
        <ele>917.371533</ele>
        <time>2021-05-15T19:14:56.130Z</time>
      </trkpt>
      <trkpt lat="42.80651" lon="0.54598">
        <ele>918.283984</ele>
        <time>2021-05-15T19:15:08.055Z</time>
      </trkpt>
      <trkpt lat="42.80651" lon="0.54597">
        <ele>918.301918</ele>
        <time>2021-05-15T19:15:08.269Z</time>
      </trkpt>
      <trkpt lat="42.80649" lon="0.54586">
        <ele>918.582681</ele>
        <time>2021-05-15T19:15:11.949Z</time>
      </trkpt>
      <trkpt lat="42.80645" lon="0.54552">
        <ele>919.46464</ele>
        <time>2021-05-15T19:15:21.635Z</time>
      </trkpt>
      <trkpt lat="42.80645" lon="0.54546">
        <ele>919.605637</ele>
        <time>2021-05-15T19:15:23.129Z</time>
      </trkpt>
      <trkpt lat="42.80646" lon="0.54484">
        <ele>921.18029</ele>
        <time>2021-05-15T19:15:38.041Z</time>
      </trkpt>
      <trkpt lat="42.80645" lon="0.54469">
        <ele>921.544044</ele>
        <time>2021-05-15T19:15:40.929Z</time>
      </trkpt>
      <trkpt lat="42.80644" lon="0.5445">
        <ele>922.029269</ele>
        <time>2021-05-15T19:15:44.602Z</time>
      </trkpt>
      <trkpt lat="42.80644" lon="0.54448">
        <ele>922.069652</ele>
        <time>2021-05-15T19:15:44.947Z</time>
      </trkpt>
      <trkpt lat="42.80642" lon="0.54435">
        <ele>922.405568</ele>
        <time>2021-05-15T19:15:47.813Z</time>
      </trkpt>
      <trkpt lat="42.8064" lon="0.54416">
        <ele>922.899238</ele>
        <time>2021-05-15T19:15:51.073Z</time>
      </trkpt>
      <trkpt lat="42.80623" lon="0.5433">
        <ele>925.529929</ele>
        <time>2021-05-15T19:16:11.045Z</time>
      </trkpt>
      <trkpt lat="42.80618" lon="0.54232">
        <ele>928.556368</ele>
        <time>2021-05-15T19:16:39.324Z</time>
      </trkpt>
      <trkpt lat="42.80618" lon="0.54142">
        <ele>931.715549</ele>
        <time>2021-05-15T19:17:09.567Z</time>
      </trkpt>
      <trkpt lat="42.80621" lon="0.54091">
        <ele>934.775499</ele>
        <time>2021-05-15T19:17:29.128Z</time>
      </trkpt>
      <trkpt lat="42.8066" lon="0.53774">
        <ele>953.755627</ele>
        <time>2021-05-15T19:19:44.818Z</time>
      </trkpt>
      <trkpt lat="42.8066" lon="0.53744">
        <ele>955.480011</ele>
        <time>2021-05-15T19:19:56.339Z</time>
      </trkpt>
      <trkpt lat="42.80661" lon="0.53691">
        <ele>958.578426</ele>
        <time>2021-05-15T19:20:15.873Z</time>
      </trkpt>
      <trkpt lat="42.80659" lon="0.53642">
        <ele>960.997274</ele>
        <time>2021-05-15T19:20:33.305Z</time>
      </trkpt>
      <trkpt lat="42.80666" lon="0.53566">
        <ele>964.214886</ele>
        <time>2021-05-15T19:20:59.272Z</time>
      </trkpt>
      <trkpt lat="42.80673" lon="0.53521">
        <ele>966.154533</ele>
        <time>2021-05-15T19:21:14.105Z</time>
      </trkpt>
      <trkpt lat="42.80682" lon="0.53479">
        <ele>967.977642</ele>
        <time>2021-05-15T19:21:26.755Z</time>
      </trkpt>
      <trkpt lat="42.80685" lon="0.53452">
        <ele>969.142549</ele>
        <time>2021-05-15T19:21:34.584Z</time>
      </trkpt>
      <trkpt lat="42.80686" lon="0.53425">
        <ele>970.294251</ele>
        <time>2021-05-15T19:21:43.921Z</time>
      </trkpt>
      <trkpt lat="42.80684" lon="0.53402">
        <ele>971.511447</ele>
        <time>2021-05-15T19:21:51.720Z</time>
      </trkpt>
      <trkpt lat="42.80681" lon="0.53353">
        <ele>974.078941</ele>
        <time>2021-05-15T19:22:09.262Z</time>
      </trkpt>
      <trkpt lat="42.80681" lon="0.53345">
        <ele>974.462894</ele>
        <time>2021-05-15T19:22:12.036Z</time>
      </trkpt>
      <trkpt lat="42.80681" lon="0.53341">
        <ele>974.691145</ele>
        <time>2021-05-15T19:22:14.287Z</time>
      </trkpt>
      <trkpt lat="42.80688" lon="0.53281">
        <ele>977.867184</ele>
        <time>2021-05-15T19:22:35.450Z</time>
      </trkpt>
      <trkpt lat="42.80694" lon="0.53261">
        <ele>978.969767</ele>
        <time>2021-05-15T19:22:42.363Z</time>
      </trkpt>
      <trkpt lat="42.80696" lon="0.53253">
        <ele>979.36163</ele>
        <time>2021-05-15T19:22:46.937Z</time>
      </trkpt>
      <trkpt lat="42.80707" lon="0.53207">
        <ele>981.914652</ele>
        <time>2021-05-15T19:23:06.985Z</time>
      </trkpt>
      <trkpt lat="42.80735" lon="0.5307">
        <ele>991.427744</ele>
        <time>2021-05-15T19:24:07.409Z</time>
      </trkpt>
      <trkpt lat="42.80736" lon="0.53067">
        <ele>991.599799</ele>
        <time>2021-05-15T19:24:09.548Z</time>
      </trkpt>
      <trkpt lat="42.80737" lon="0.53056">
        <ele>992.365406</ele>
        <time>2021-05-15T19:24:15.196Z</time>
      </trkpt>
      <trkpt lat="42.80737" lon="0.53052">
        <ele>992.684857</ele>
        <time>2021-05-15T19:24:17.941Z</time>
      </trkpt>
      <trkpt lat="42.80738" lon="0.53034">
        <ele>993.912972</ele>
        <time>2021-05-15T19:24:24.253Z</time>
      </trkpt>
      <trkpt lat="42.80736" lon="0.5302">
        <ele>994.891871</ele>
        <time>2021-05-15T19:24:30.807Z</time>
      </trkpt>
      <trkpt lat="42.80735" lon="0.53003">
        <ele>996.044195</ele>
        <time>2021-05-15T19:24:40.038Z</time>
      </trkpt>
      <trkpt lat="42.80723" lon="0.52922">
        <ele>1001.529011</ele>
        <time>2021-05-15T19:25:14.752Z</time>
      </trkpt>
      <trkpt lat="42.80712" lon="0.52887">
        <ele>1003.831847</ele>
        <time>2021-05-15T19:25:29.967Z</time>
      </trkpt>
      <trkpt lat="42.80704" lon="0.52862">
        <ele>1005.496517</ele>
        <time>2021-05-15T19:25:44.229Z</time>
      </trkpt>
      <trkpt lat="42.80672" lon="0.52786">
        <ele>1010.792038</ele>
        <time>2021-05-15T19:26:16.523Z</time>
      </trkpt>
      <trkpt lat="42.80656" lon="0.52737">
        <ele>1014.054954</ele>
        <time>2021-05-15T19:26:36.269Z</time>
      </trkpt>
      <trkpt lat="42.80612" lon="0.52543">
        <ele>1027.848025</ele>
        <time>2021-05-15T19:28:03.086Z</time>
      </trkpt>
      <trkpt lat="42.80609" lon="0.52527">
        <ele>1028.9713</ele>
        <time>2021-05-15T19:28:10.544Z</time>
      </trkpt>
      <trkpt lat="42.80606" lon="0.52511">
        <ele>1030.059193</ele>
        <time>2021-05-15T19:28:18.971Z</time>
      </trkpt>
      <trkpt lat="42.80605" lon="0.52337">
        <ele>1044.434092</ele>
        <time>2021-05-15T19:29:45.228Z</time>
      </trkpt>
      <trkpt lat="42.80596" lon="0.52203">
        <ele>1055.985955</ele>
        <time>2021-05-15T19:30:54.731Z</time>
      </trkpt>
      <trkpt lat="42.80604" lon="0.52167">
        <ele>1059.393217</ele>
        <time>2021-05-15T19:31:14.630Z</time>
      </trkpt>
      <trkpt lat="42.80662" lon="0.52001">
        <ele>1075.706774</ele>
        <time>2021-05-15T19:32:51.566Z</time>
      </trkpt>
      <trkpt lat="42.8069" lon="0.51967">
        <ele>1079.658792</ele>
        <time>2021-05-15T19:33:18.403Z</time>
      </trkpt>
      <trkpt lat="42.80713" lon="0.51954">
        <ele>1082.34267</ele>
        <time>2021-05-15T19:33:35.081Z</time>
      </trkpt>
      <trkpt lat="42.80816" lon="0.51948">
        <ele>1093.437152</ele>
        <time>2021-05-15T19:34:40.113Z</time>
      </trkpt>
      <trkpt lat="42.80825" lon="0.51943">
        <ele>1094.14226</ele>
        <time>2021-05-15T19:34:47.129Z</time>
      </trkpt>
      <trkpt lat="42.80839" lon="0.51932">
        <ele>1095.253837</ele>
        <time>2021-05-15T19:34:54.840Z</time>
      </trkpt>
      <trkpt lat="42.80863" lon="0.51894">
        <ele>1097.932949</ele>
        <time>2021-05-15T19:35:14.238Z</time>
      </trkpt>
      <trkpt lat="42.8087" lon="0.51884">
        <ele>1098.642377</ele>
        <time>2021-05-15T19:35:18.644Z</time>
      </trkpt>
      <trkpt lat="42.80875" lon="0.51855">
        <ele>1100.224205</ele>
        <time>2021-05-15T19:35:30.484Z</time>
      </trkpt>
      <trkpt lat="42.80884" lon="0.51741">
        <ele>1106.349753</ele>
        <time>2021-05-15T19:36:09.470Z</time>
      </trkpt>
      <trkpt lat="42.80868" lon="0.51551">
        <ele>1116.026201</ele>
        <time>2021-05-15T19:37:17.503Z</time>
      </trkpt>
      <trkpt lat="42.80867" lon="0.51539">
        <ele>1116.616789</ele>
        <time>2021-05-15T19:37:23.381Z</time>
      </trkpt>
      <trkpt lat="42.80866" lon="0.51535">
        <ele>1116.840784</ele>
        <time>2021-05-15T19:37:25.737Z</time>
      </trkpt>
      <trkpt lat="42.80864" lon="0.51518">
        <ele>1117.717034</ele>
        <time>2021-05-15T19:37:31.316Z</time>
      </trkpt>
      <trkpt lat="42.80857" lon="0.51508">
        <ele>1118.419414</ele>
        <time>2021-05-15T19:37:35.698Z</time>
      </trkpt>
      <trkpt lat="42.80853" lon="0.51505">
        <ele>1118.731857</ele>
        <time>2021-05-15T19:37:38.832Z</time>
      </trkpt>
      <trkpt lat="42.80834" lon="0.51499">
        <ele>1120.233453</ele>
        <time>2021-05-15T19:37:49.685Z</time>
      </trkpt>
      <trkpt lat="42.80823" lon="0.51489">
        <ele>1121.261926</ele>
        <time>2021-05-15T19:37:55.705Z</time>
      </trkpt>
      <trkpt lat="42.80814" lon="0.51475">
        <ele>1122.33397</ele>
        <time>2021-05-15T19:38:05.313Z</time>
      </trkpt>
      <trkpt lat="42.80804" lon="0.51436">
        <ele>1124.658937</ele>
        <time>2021-05-15T19:38:21.076Z</time>
      </trkpt>
      <trkpt lat="42.80804" lon="0.51409">
        <ele>1126.21859</ele>
        <time>2021-05-15T19:38:31.513Z</time>
      </trkpt>
      <trkpt lat="42.80823" lon="0.5122">
        <ele>1136.773125</ele>
        <time>2021-05-15T19:39:45.453Z</time>
      </trkpt>
      <trkpt lat="42.80813" lon="0.51159">
        <ele>1140.121576</ele>
        <time>2021-05-15T19:40:08.387Z</time>
      </trkpt>
      <trkpt lat="42.80804" lon="0.51085">
        <ele>1144.127997</ele>
        <time>2021-05-15T19:40:35.792Z</time>
      </trkpt>
      <trkpt lat="42.808" lon="0.51063">
        <ele>1145.325476</ele>
        <time>2021-05-15T19:40:44.600Z</time>
      </trkpt>
      <trkpt lat="42.80773" lon="0.50964">
        <ele>1151.391594</ele>
        <time>2021-05-15T19:41:25.469Z</time>
      </trkpt>
      <trkpt lat="42.80772" lon="0.50961">
        <ele>1151.583366</ele>
        <time>2021-05-15T19:41:26.725Z</time>
      </trkpt>
      <trkpt lat="42.80728" lon="0.50792">
        <ele>1162.151744</ele>
        <time>2021-05-15T19:42:38.437Z</time>
      </trkpt>
      <trkpt lat="42.80719" lon="0.50749">
        <ele>1165.025829</ele>
        <time>2021-05-15T19:42:56.682Z</time>
      </trkpt>
      <trkpt lat="42.80695" lon="0.50581">
        <ele>1176.150642</ele>
        <time>2021-05-15T19:44:10.370Z</time>
      </trkpt>
      <trkpt lat="42.80683" lon="0.50493">
        <ele>1182.468894</ele>
        <time>2021-05-15T19:44:50.579Z</time>
      </trkpt>
      <trkpt lat="42.80678" lon="0.50454">
        <ele>1185.260319</ele>
        <time>2021-05-15T19:45:08.155Z</time>
      </trkpt>
      <trkpt lat="42.80673" lon="0.50412">
        <ele>1188.264986</ele>
        <time>2021-05-15T19:45:27.156Z</time>
      </trkpt>
      <trkpt lat="42.80654" lon="0.50358">
        <ele>1192.476065</ele>
        <time>2021-05-15T19:45:52.911Z</time>
      </trkpt>
      <trkpt lat="42.80565" lon="0.50263">
        <ele>1204.016729</ele>
        <time>2021-05-15T19:47:05.629Z</time>
      </trkpt>
      <trkpt lat="42.80556" lon="0.50252">
        <ele>1205.204674</ele>
        <time>2021-05-15T19:47:14.477Z</time>
      </trkpt>
      <trkpt lat="42.80547" lon="0.50221">
        <ele>1207.724383</ele>
        <time>2021-05-15T19:47:28.148Z</time>
      </trkpt>
      <trkpt lat="42.80547" lon="0.50208">
        <ele>1208.683442</ele>
        <time>2021-05-15T19:47:35.690Z</time>
      </trkpt>
      <trkpt lat="42.80548" lon="0.50194">
        <ele>1209.712584</ele>
        <time>2021-05-15T19:47:42.061Z</time>
      </trkpt>
      <trkpt lat="42.80556" lon="0.50157">
        <ele>1212.567357</ele>
        <time>2021-05-15T19:47:59.576Z</time>
      </trkpt>
      <trkpt lat="42.80566" lon="0.50131">
        <ele>1214.654095</ele>
        <time>2021-05-15T19:48:11.201Z</time>
      </trkpt>
      <trkpt lat="42.80577" lon="0.50106">
        <ele>1216.698652</ele>
        <time>2021-05-15T19:48:25.774Z</time>
      </trkpt>
      <trkpt lat="42.80655" lon="0.4993">
        <ele>1231.420552</ele>
        <time>2021-05-15T19:49:57.783Z</time>
      </trkpt>
      <trkpt lat="42.80661" lon="0.49904">
        <ele>1233.347455</ele>
        <time>2021-05-15T19:50:09.345Z</time>
      </trkpt>
      <trkpt lat="42.80662" lon="0.4979">
        <ele>1241.457101</ele>
        <time>2021-05-15T19:50:59.702Z</time>
      </trkpt>
      <trkpt lat="42.8063" lon="0.49703">
        <ele>1248.374086</ele>
        <time>2021-05-15T19:51:45.094Z</time>
      </trkpt>
      <trkpt lat="42.80628" lon="0.49657">
        <ele>1251.60452</ele>
        <time>2021-05-15T19:52:06.592Z</time>
      </trkpt>
      <trkpt lat="42.80639" lon="0.49523">
        <ele>1261.045943</ele>
        <time>2021-05-15T19:53:06.638Z</time>
      </trkpt>
      <trkpt lat="42.80656" lon="0.49435">
        <ele>1266.604588</ele>
        <time>2021-05-15T19:53:44.343Z</time>
      </trkpt>
      <trkpt lat="42.80713" lon="0.49069">
        <ele>1286.870204</ele>
        <time>2021-05-15T19:56:04.869Z</time>
      </trkpt>
      <trkpt lat="42.80739" lon="0.48954">
        <ele>1293.21172</ele>
        <time>2021-05-15T19:56:48.739Z</time>
      </trkpt>
      <trkpt lat="42.80756" lon="0.48842">
        <ele>1299.363568</ele>
        <time>2021-05-15T19:57:31.764Z</time>
      </trkpt>
      <trkpt lat="42.80761" lon="0.4879">
        <ele>1302.14143</ele>
        <time>2021-05-15T19:57:51.689Z</time>
      </trkpt>
      <trkpt lat="42.80759" lon="0.48649">
        <ele>1311.083369</ele>
        <time>2021-05-15T19:58:48.472Z</time>
      </trkpt>
      <trkpt lat="42.80764" lon="0.48541">
        <ele>1318.086302</ele>
        <time>2021-05-15T19:59:35.187Z</time>
      </trkpt>
      <trkpt lat="42.80759" lon="0.48416">
        <ele>1328.681611</ele>
        <time>2021-05-15T20:00:35.371Z</time>
      </trkpt>
      <trkpt lat="42.80745" lon="0.48352">
        <ele>1334.507971</ele>
        <time>2021-05-15T20:01:10.407Z</time>
      </trkpt>
      <trkpt lat="42.80721" lon="0.48301">
        <ele>1339.786632</ele>
        <time>2021-05-15T20:01:43.951Z</time>
      </trkpt>
      <trkpt lat="42.80674" lon="0.48227">
        <ele>1350.273185</ele>
        <time>2021-05-15T20:02:41.595Z</time>
      </trkpt>
      <trkpt lat="42.80619" lon="0.48156">
        <ele>1361.502491</ele>
        <time>2021-05-15T20:03:45.180Z</time>
      </trkpt>
      <trkpt lat="42.80526" lon="0.48022">
        <ele>1381.330742</ele>
        <time>2021-05-15T20:05:36.790Z</time>
      </trkpt>
      <trkpt lat="42.80487" lon="0.47898">
        <ele>1395.700205</ele>
        <time>2021-05-15T20:06:56.155Z</time>
      </trkpt>
      <trkpt lat="42.80453" lon="0.47749">
        <ele>1411.016222</ele>
        <time>2021-05-15T20:08:23.784Z</time>
      </trkpt>
      <trkpt lat="42.8039" lon="0.47593">
        <ele>1426.765109</ele>
        <time>2021-05-15T20:09:59.045Z</time>
      </trkpt>
      <trkpt lat="42.80361" lon="0.4755">
        <ele>1431.574204</ele>
        <time>2021-05-15T20:10:27.969Z</time>
      </trkpt>
      <trkpt lat="42.80278" lon="0.47456">
        <ele>1441.435699</ele>
        <time>2021-05-15T20:11:32.318Z</time>
      </trkpt>
      <trkpt lat="42.80243" lon="0.47396">
        <ele>1445.354532</ele>
        <time>2021-05-15T20:11:59.350Z</time>
      </trkpt>
      <trkpt lat="42.80216" lon="0.47314">
        <ele>1449.995447</ele>
        <time>2021-05-15T20:12:28.864Z</time>
      </trkpt>
      <trkpt lat="42.80181" lon="0.4727">
        <ele>1452.057882</ele>
        <time>2021-05-15T20:12:49.424Z</time>
      </trkpt>
      <trkpt lat="42.80172" lon="0.47258">
        <ele>1452.575323</ele>
        <time>2021-05-15T20:12:54.857Z</time>
      </trkpt>
      <trkpt lat="42.80168" lon="0.47252">
        <ele>1452.792271</ele>
        <time>2021-05-15T20:12:57.089Z</time>
      </trkpt>
      <trkpt lat="42.80162" lon="0.47242">
        <ele>1453.161974</ele>
        <time>2021-05-15T20:13:00.824Z</time>
      </trkpt>
      <trkpt lat="42.80157" lon="0.47231">
        <ele>1453.558252</ele>
        <time>2021-05-15T20:13:05.032Z</time>
      </trkpt>
      <trkpt lat="42.80144" lon="0.47184">
        <ele>1455.031676</ele>
        <time>2021-05-15T20:13:19.356Z</time>
      </trkpt>
      <trkpt lat="42.80143" lon="0.4713">
        <ele>1456.615065</ele>
        <time>2021-05-15T20:13:33.850Z</time>
      </trkpt>
      <trkpt lat="42.80163" lon="0.47049">
        <ele>1456.998472</ele>
        <time>2021-05-15T20:13:53.491Z</time>
      </trkpt>
      <trkpt lat="42.80172" lon="0.46954">
        <ele>1456.018784</ele>
        <time>2021-05-15T20:14:07.692Z</time>
      </trkpt>
      <trkpt lat="42.80184" lon="0.46915">
        <ele>1455.582554</ele>
        <time>2021-05-15T20:14:12.717Z</time>
      </trkpt>
      <trkpt lat="42.80236" lon="0.46891">
        <ele>1454.724629</ele>
        <time>2021-05-15T20:14:20.898Z</time>
      </trkpt>
      <trkpt lat="42.80297" lon="0.46892">
        <ele>1453.533707</ele>
        <time>2021-05-15T20:14:29.877Z</time>
      </trkpt>
      <trkpt lat="42.80346" lon="0.46915">
        <ele>1452.497718</ele>
        <time>2021-05-15T20:14:38.470Z</time>
      </trkpt>
      <trkpt lat="42.80378" lon="0.46955">
        <ele>1451.657585</ele>
        <time>2021-05-15T20:14:48.196Z</time>
      </trkpt>
      <trkpt lat="42.80386" lon="0.46954">
        <ele>1451.499687</ele>
        <time>2021-05-15T20:14:50.919Z</time>
      </trkpt>
      <trkpt lat="42.8039" lon="0.46947">
        <ele>1452.127181</ele>
        <time>2021-05-15T20:14:53.386Z</time>
      </trkpt>
      <trkpt lat="42.80388" lon="0.46936">
        <ele>1452.922862</ele>
        <time>2021-05-15T20:14:56.450Z</time>
      </trkpt>
      <trkpt lat="42.80304" lon="0.46836">
        <ele>1463.909583</ele>
        <time>2021-05-15T20:16:07.035Z</time>
      </trkpt>
      <trkpt lat="42.80254" lon="0.46767">
        <ele>1470.471371</ele>
        <time>2021-05-15T20:17:04.352Z</time>
      </trkpt>
      <trkpt lat="42.80212" lon="0.46734">
        <ele>1474.035797</ele>
        <time>2021-05-15T20:17:38.880Z</time>
      </trkpt>
      <trkpt lat="42.80168" lon="0.4673">
        <ele>1477.325117</ele>
        <time>2021-05-15T20:18:04.888Z</time>
      </trkpt>
      <trkpt lat="42.80162" lon="0.4672">
        <ele>1478.039937</ele>
        <time>2021-05-15T20:18:09.797Z</time>
      </trkpt>
      <trkpt lat="42.80165" lon="0.46701">
        <ele>1479.114809</ele>
        <time>2021-05-15T20:18:16.066Z</time>
      </trkpt>
      <trkpt lat="42.80175" lon="0.46696">
        <ele>1479.913242</ele>
        <time>2021-05-15T20:18:19.911Z</time>
      </trkpt>
      <trkpt lat="42.80198" lon="0.467">
        <ele>1481.623209</ele>
        <time>2021-05-15T20:18:26.749Z</time>
      </trkpt>
      <trkpt lat="42.80258" lon="0.46724">
        <ele>1480.233982</ele>
        <time>2021-05-15T20:18:37.105Z</time>
      </trkpt>
      <trkpt lat="42.80397" lon="0.4682">
        <ele>1474.455118</ele>
        <time>2021-05-15T20:18:59.591Z</time>
      </trkpt>
      <trkpt lat="42.80462" lon="0.4688">
        <ele>1474.968523</ele>
        <time>2021-05-15T20:19:13.051Z</time>
      </trkpt>
      <trkpt lat="42.80469" lon="0.46882">
        <ele>1475.019489</ele>
        <time>2021-05-15T20:19:15.457Z</time>
      </trkpt>
      <trkpt lat="42.80477" lon="0.46874">
        <ele>1475.079372</ele>
        <time>2021-05-15T20:19:18.509Z</time>
      </trkpt>
      <trkpt lat="42.80471" lon="0.46859">
        <ele>1475.160598</ele>
        <time>2021-05-15T20:19:22.472Z</time>
      </trkpt>
      <trkpt lat="42.80439" lon="0.4683">
        <ele>1475.41425</ele>
        <time>2021-05-15T20:19:40.490Z</time>
      </trkpt>
      <trkpt lat="42.80387" lon="0.46762">
        <ele>1485.589256</ele>
        <time>2021-05-15T20:20:28.652Z</time>
      </trkpt>
      <trkpt lat="42.80306" lon="0.46643">
        <ele>1504.672524</ele>
        <time>2021-05-15T20:22:19.389Z</time>
      </trkpt>
      <trkpt lat="42.80277" lon="0.46549">
        <ele>1525.196864</ele>
        <time>2021-05-15T20:23:45.291Z</time>
      </trkpt>
      <trkpt lat="42.80248" lon="0.46425">
        <ele>1551.3505</ele>
        <time>2021-05-15T20:25:35.583Z</time>
      </trkpt>
      <trkpt lat="42.80239" lon="0.46397">
        <ele>1556.528035</ele>
        <time>2021-05-15T20:26:01.475Z</time>
      </trkpt>
      <trkpt lat="42.80235" lon="0.46379">
        <ele>1559.466269</ele>
        <time>2021-05-15T20:26:17.380Z</time>
      </trkpt>
      <trkpt lat="42.80228" lon="0.46267">
        <ele>1577.172713</ele>
        <time>2021-05-15T20:27:51.588Z</time>
      </trkpt>
      <trkpt lat="42.80225" lon="0.46229">
        <ele>1583.176258</ele>
        <time>2021-05-15T20:28:22.084Z</time>
      </trkpt>
      <trkpt lat="42.80221" lon="0.46193">
        <ele>1588.969736</ele>
        <time>2021-05-15T20:28:45.980Z</time>
      </trkpt>
      <trkpt lat="42.80221" lon="0.46189">
        <ele>1589.639849</ele>
        <time>2021-05-15T20:28:49.503Z</time>
      </trkpt>
      <trkpt lat="42.80212" lon="0.46107">
        <ele>1590.073025</ele>
        <time>2021-05-15T20:29:11.858Z</time>
      </trkpt>
      <trkpt lat="42.80206" lon="0.4606">
        <ele>1589.07814</ele>
        <time>2021-05-15T20:29:18.208Z</time>
      </trkpt>
      <trkpt lat="42.80197" lon="0.45984">
        <ele>1587.469058</ele>
        <time>2021-05-15T20:29:26.280Z</time>
      </trkpt>
      <trkpt lat="42.8019" lon="0.45927">
        <ele>1585.578356</ele>
        <time>2021-05-15T20:29:31.894Z</time>
      </trkpt>
      <trkpt lat="42.80188" lon="0.45899">
        <ele>1582.332047</ele>
        <time>2021-05-15T20:29:34.593Z</time>
      </trkpt>
      <trkpt lat="42.80171" lon="0.45706">
        <ele>1559.904769</ele>
        <time>2021-05-15T20:29:53.010Z</time>
      </trkpt>
      <trkpt lat="42.8019" lon="0.4552">
        <ele>1534.878331</ele>
        <time>2021-05-15T20:30:10.649Z</time>
      </trkpt>
      <trkpt lat="42.80203" lon="0.45445">
        <ele>1524.407884</ele>
        <time>2021-05-15T20:30:17.906Z</time>
      </trkpt>
      <trkpt lat="42.80207" lon="0.45336">
        <ele>1509.77708</ele>
        <time>2021-05-15T20:30:28.087Z</time>
      </trkpt>
      <trkpt lat="42.80236" lon="0.45258">
        <ele>1497.933233</ele>
        <time>2021-05-15T20:30:36.347Z</time>
      </trkpt>
      <trkpt lat="42.80232" lon="0.45142">
        <ele>1483.614743</ele>
        <time>2021-05-15T20:30:47.294Z</time>
      </trkpt>
      <trkpt lat="42.80219" lon="0.45057">
        <ele>1473.483407</ele>
        <time>2021-05-15T20:30:55.539Z</time>
      </trkpt>
      <trkpt lat="42.80192" lon="0.44969">
        <ele>1462.505506</ele>
        <time>2021-05-15T20:31:04.710Z</time>
      </trkpt>
      <trkpt lat="42.80182" lon="0.44904">
        <ele>1456.298464</ele>
        <time>2021-05-15T20:31:11.071Z</time>
      </trkpt>
      <trkpt lat="42.80196" lon="0.44684">
        <ele>1436.552273</ele>
        <time>2021-05-15T20:31:32.597Z</time>
      </trkpt>
      <trkpt lat="42.80203" lon="0.44475">
        <ele>1420.889254</ele>
        <time>2021-05-15T20:31:53.640Z</time>
      </trkpt>
      <trkpt lat="42.80213" lon="0.44411">
        <ele>1416.825536</ele>
        <time>2021-05-15T20:32:00.301Z</time>
      </trkpt>
      <trkpt lat="42.80204" lon="0.44385">
        <ele>1415.076298</ele>
        <time>2021-05-15T20:32:03.172Z</time>
      </trkpt>
      <trkpt lat="42.80166" lon="0.44313">
        <ele>1409.543157</ele>
        <time>2021-05-15T20:32:12.296Z</time>
      </trkpt>
      <trkpt lat="42.80143" lon="0.44184">
        <ele>1401.991625</ele>
        <time>2021-05-15T20:32:26.011Z</time>
      </trkpt>
      <trkpt lat="42.80121" lon="0.44143">
        <ele>1399.212885</ele>
        <time>2021-05-15T20:32:31.379Z</time>
      </trkpt>
      <trkpt lat="42.80111" lon="0.44109">
        <ele>1397.285261</ele>
        <time>2021-05-15T20:32:35.128Z</time>
      </trkpt>
      <trkpt lat="42.80109" lon="0.44041">
        <ele>1393.606247</ele>
        <time>2021-05-15T20:32:42.365Z</time>
      </trkpt>
      <trkpt lat="42.80097" lon="0.43962">
        <ele>1390.181012</ele>
        <time>2021-05-15T20:32:51.072Z</time>
      </trkpt>
      <trkpt lat="42.80091" lon="0.43872">
        <ele>1386.428742</ele>
        <time>2021-05-15T20:33:01.026Z</time>
      </trkpt>
      <trkpt lat="42.80085" lon="0.43671">
        <ele>1378.285681</ele>
        <time>2021-05-15T20:33:23.100Z</time>
      </trkpt>
      <trkpt lat="42.80087" lon="0.43643">
        <ele>1377.155427</ele>
        <time>2021-05-15T20:33:26.206Z</time>
      </trkpt>
      <trkpt lat="42.80108" lon="0.43531">
        <ele>1372.634442</ele>
        <time>2021-05-15T20:33:38.811Z</time>
      </trkpt>
      <trkpt lat="42.80138" lon="0.43296">
        <ele>1363.857636</ele>
        <time>2021-05-15T20:34:05.310Z</time>
      </trkpt>
      <trkpt lat="42.80139" lon="0.43277">
        <ele>1363.175496</ele>
        <time>2021-05-15T20:34:07.520Z</time>
      </trkpt>
      <trkpt lat="42.80139" lon="0.43229">
        <ele>1361.485151</ele>
        <time>2021-05-15T20:34:13.034Z</time>
      </trkpt>
      <trkpt lat="42.8014" lon="0.432">
        <ele>1360.468454</ele>
        <time>2021-05-15T20:34:16.319Z</time>
      </trkpt>
      <trkpt lat="42.80141" lon="0.43179">
        <ele>1359.713371</ele>
        <time>2021-05-15T20:34:18.734Z</time>
      </trkpt>
      <trkpt lat="42.80144" lon="0.4316">
        <ele>1359.044296</ele>
        <time>2021-05-15T20:34:20.856Z</time>
      </trkpt>
      <trkpt lat="42.80178" lon="0.4304">
        <ele>1353.901989</ele>
        <time>2021-05-15T20:34:35.203Z</time>
      </trkpt>
      <trkpt lat="42.80178" lon="0.42959">
        <ele>1349.716145</ele>
        <time>2021-05-15T20:34:43.810Z</time>
      </trkpt>
      <trkpt lat="42.80183" lon="0.42899">
        <ele>1346.579939</ele>
        <time>2021-05-15T20:34:50.097Z</time>
      </trkpt>
      <trkpt lat="42.80189" lon="0.42855">
        <ele>1344.279413</ele>
        <time>2021-05-15T20:34:54.647Z</time>
      </trkpt>
      <trkpt lat="42.80209" lon="0.42785">
        <ele>1340.393866</ele>
        <time>2021-05-15T20:35:02.357Z</time>
      </trkpt>
      <trkpt lat="42.8021" lon="0.4277">
        <ele>1339.599132</ele>
        <time>2021-05-15T20:35:03.855Z</time>
      </trkpt>
      <trkpt lat="42.80211" lon="0.42763">
        <ele>1339.188363</ele>
        <time>2021-05-15T20:35:04.719Z</time>
      </trkpt>
      <trkpt lat="42.80214" lon="0.42727">
        <ele>1337.341819</ele>
        <time>2021-05-15T20:35:08.363Z</time>
      </trkpt>
      <trkpt lat="42.80221" lon="0.42688">
        <ele>1335.242709</ele>
        <time>2021-05-15T20:35:12.629Z</time>
      </trkpt>
      <trkpt lat="42.80263" lon="0.42553">
        <ele>1329.126134</ele>
        <time>2021-05-15T20:35:28.235Z</time>
      </trkpt>
      <trkpt lat="42.8034" lon="0.42494">
        <ele>1326.418769</ele>
        <time>2021-05-15T20:35:44.082Z</time>
      </trkpt>
      <trkpt lat="42.80389" lon="0.42467">
        <ele>1324.80217</ele>
        <time>2021-05-15T20:35:53.651Z</time>
      </trkpt>
      <trkpt lat="42.80424" lon="0.42459">
        <ele>1322.656728</ele>
        <time>2021-05-15T20:35:59.878Z</time>
      </trkpt>
      <trkpt lat="42.80492" lon="0.42468">
        <ele>1318.51441</ele>
        <time>2021-05-15T20:36:10.376Z</time>
      </trkpt>
      <trkpt lat="42.80508" lon="0.42469">
        <ele>1317.575438</ele>
        <time>2021-05-15T20:36:12.868Z</time>
      </trkpt>
      <trkpt lat="42.80502" lon="0.4246">
        <ele>1317.012058</ele>
        <time>2021-05-15T20:36:15.070Z</time>
      </trkpt>
      <trkpt lat="42.80484" lon="0.4243">
        <ele>1315.29663</ele>
        <time>2021-05-15T20:36:22.382Z</time>
      </trkpt>
      <trkpt lat="42.80459" lon="0.42408">
        <ele>1312.889521</ele>
        <time>2021-05-15T20:36:29.560Z</time>
      </trkpt>
      <trkpt lat="42.8049" lon="0.42402">
        <ele>1307.844122</ele>
        <time>2021-05-15T20:36:36.871Z</time>
      </trkpt>
      <trkpt lat="42.80507" lon="0.42408">
        <ele>1304.970793</ele>
        <time>2021-05-15T20:36:40.977Z</time>
      </trkpt>
      <trkpt lat="42.80519" lon="0.42407">
        <ele>1302.914135</ele>
        <time>2021-05-15T20:36:43.847Z</time>
      </trkpt>
      <trkpt lat="42.80585" lon="0.42408">
        <ele>1292.162534</ele>
        <time>2021-05-15T20:36:58.855Z</time>
      </trkpt>
      <trkpt lat="42.80601" lon="0.42399">
        <ele>1289.431996</ele>
        <time>2021-05-15T20:37:02.647Z</time>
      </trkpt>
      <trkpt lat="42.80651" lon="0.42346">
        <ele>1277.502661</ele>
        <time>2021-05-15T20:37:16.909Z</time>
      </trkpt>
      <trkpt lat="42.80713" lon="0.423">
        <ele>1263.013625</ele>
        <time>2021-05-15T20:37:32.568Z</time>
      </trkpt>
      <trkpt lat="42.80846" lon="0.42288">
        <ele>1235.386616</ele>
        <time>2021-05-15T20:38:02.296Z</time>
      </trkpt>
      <trkpt lat="42.809" lon="0.42305">
        <ele>1223.818625</ele>
        <time>2021-05-15T20:38:14.713Z</time>
      </trkpt>
      <trkpt lat="42.80928" lon="0.42304">
        <ele>1217.996137</ele>
        <time>2021-05-15T20:38:20.917Z</time>
      </trkpt>
      <trkpt lat="42.80929" lon="0.42284">
        <ele>1215.013591</ele>
        <time>2021-05-15T20:38:24.159Z</time>
      </trkpt>
      <trkpt lat="42.80899" lon="0.422">
        <ele>1202.700466</ele>
        <time>2021-05-15T20:38:39.619Z</time>
      </trkpt>
      <trkpt lat="42.8089" lon="0.42175">
        <ele>1199.2708</ele>
        <time>2021-05-15T20:38:44.331Z</time>
      </trkpt>
      <trkpt lat="42.8088" lon="0.42161">
        <ele>1196.877127</ele>
        <time>2021-05-15T20:38:46.249Z</time>
      </trkpt>
      <trkpt lat="42.80877" lon="0.42153">
        <ele>1195.871847</ele>
        <time>2021-05-15T20:38:47.051Z</time>
      </trkpt>
      <trkpt lat="42.80877" lon="0.42145">
        <ele>1194.967233</ele>
        <time>2021-05-15T20:38:47.750Z</time>
      </trkpt>
      <trkpt lat="42.80881" lon="0.42136">
        <ele>1193.691624</ele>
        <time>2021-05-15T20:38:48.740Z</time>
      </trkpt>
      <trkpt lat="42.80884" lon="0.42132">
        <ele>1192.957899</ele>
        <time>2021-05-15T20:38:49.326Z</time>
      </trkpt>
      <trkpt lat="42.80889" lon="0.42131">
        <ele>1192.19826</ele>
        <time>2021-05-15T20:38:49.937Z</time>
      </trkpt>
      <trkpt lat="42.80893" lon="0.42131">
        <ele>1191.505785</ele>
        <time>2021-05-15T20:38:50.501Z</time>
      </trkpt>
      <trkpt lat="42.80919" lon="0.42173">
        <ele>1184.873678</ele>
        <time>2021-05-15T20:38:55.776Z</time>
      </trkpt>
      <trkpt lat="42.80991" lon="0.42184">
        <ele>1175.48789</ele>
        <time>2021-05-15T20:39:05.322Z</time>
      </trkpt>
      <trkpt lat="42.81126" lon="0.42276">
        <ele>1159.12058</ele>
        <time>2021-05-15T20:39:25.916Z</time>
      </trkpt>
      <trkpt lat="42.81243" lon="0.42328">
        <ele>1144.815542</ele>
        <time>2021-05-15T20:39:42.386Z</time>
      </trkpt>
      <trkpt lat="42.81294" lon="0.42358">
        <ele>1138.171375</ele>
        <time>2021-05-15T20:39:49.727Z</time>
      </trkpt>
      <trkpt lat="42.81326" lon="0.42362">
        <ele>1134.189168</ele>
        <time>2021-05-15T20:39:53.866Z</time>
      </trkpt>
      <trkpt lat="42.81346" lon="0.42347">
        <ele>1131.327486</ele>
        <time>2021-05-15T20:39:56.841Z</time>
      </trkpt>
      <trkpt lat="42.81356" lon="0.42328">
        <ele>1129.167595</ele>
        <time>2021-05-15T20:39:59.176Z</time>
      </trkpt>
      <trkpt lat="42.81367" lon="0.42307">
        <ele>1126.814564</ele>
        <time>2021-05-15T20:40:01.622Z</time>
      </trkpt>
      <trkpt lat="42.8138" lon="0.42278">
        <ele>1123.653743</ele>
        <time>2021-05-15T20:40:05.000Z</time>
      </trkpt>
      <trkpt lat="42.81412" lon="0.4221">
        <ele>1116.669109</ele>
        <time>2021-05-15T20:40:12.923Z</time>
      </trkpt>
      <trkpt lat="42.81437" lon="0.42172">
        <ele>1113.480732</ele>
        <time>2021-05-15T20:40:17.991Z</time>
      </trkpt>
      <trkpt lat="42.81464" lon="0.42145">
        <ele>1110.659967</ele>
        <time>2021-05-15T20:40:22.476Z</time>
      </trkpt>
      <trkpt lat="42.81599" lon="0.42081">
        <ele>1099.123652</ele>
        <time>2021-05-15T20:40:43.112Z</time>
      </trkpt>
      <trkpt lat="42.81665" lon="0.42007">
        <ele>1092.895535</ele>
        <time>2021-05-15T20:40:55.388Z</time>
      </trkpt>
      <trkpt lat="42.81704" lon="0.41976">
        <ele>1089.632152</ele>
        <time>2021-05-15T20:41:01.775Z</time>
      </trkpt>
      <trkpt lat="42.81881" lon="0.41894">
        <ele>1073.588891</ele>
        <time>2021-05-15T20:41:27.696Z</time>
      </trkpt>
      <trkpt lat="42.81905" lon="0.41879">
        <ele>1070.961381</ele>
        <time>2021-05-15T20:41:31.334Z</time>
      </trkpt>
      <trkpt lat="42.81943" lon="0.41836">
        <ele>1066.075109</ele>
        <time>2021-05-15T20:41:38.102Z</time>
      </trkpt>
      <trkpt lat="42.82001" lon="0.41797">
        <ele>1059.755838</ele>
        <time>2021-05-15T20:41:46.759Z</time>
      </trkpt>
      <trkpt lat="42.82044" lon="0.4176">
        <ele>1054.626635</ele>
        <time>2021-05-15T20:41:53.610Z</time>
      </trkpt>
      <trkpt lat="42.82107" lon="0.41724">
        <ele>1047.164981</ele>
        <time>2021-05-15T20:42:02.946Z</time>
      </trkpt>
      <trkpt lat="42.82142" lon="0.41703">
        <ele>1043.11495</ele>
        <time>2021-05-15T20:42:07.989Z</time>
      </trkpt>
      <trkpt lat="42.82199" lon="0.41665">
        <ele>1036.251681</ele>
        <time>2021-05-15T20:42:16.556Z</time>
      </trkpt>
      <trkpt lat="42.8223" lon="0.41644">
        <ele>1032.929457</ele>
        <time>2021-05-15T20:42:21.231Z</time>
      </trkpt>
      <trkpt lat="42.82273" lon="0.41613">
        <ele>1028.320543</ele>
        <time>2021-05-15T20:42:27.797Z</time>
      </trkpt>
      <trkpt lat="42.82315" lon="0.41584">
        <ele>1023.79887</ele>
        <time>2021-05-15T20:42:34.233Z</time>
      </trkpt>
      <trkpt lat="42.82335" lon="0.41562">
        <ele>1021.316218</ele>
        <time>2021-05-15T20:42:37.805Z</time>
      </trkpt>
      <trkpt lat="42.82369" lon="0.41508">
        <ele>1017.218479</ele>
        <time>2021-05-15T20:42:45.352Z</time>
      </trkpt>
      <trkpt lat="42.82398" lon="0.41483">
        <ele>1014.88479</ele>
        <time>2021-05-15T20:42:50.303Z</time>
      </trkpt>
      <trkpt lat="42.82409" lon="0.41479">
        <ele>1014.107965</ele>
        <time>2021-05-15T20:42:51.833Z</time>
      </trkpt>
      <trkpt lat="42.8244" lon="0.41473">
        <ele>1012.005351</ele>
        <time>2021-05-15T20:42:56.329Z</time>
      </trkpt>
      <trkpt lat="42.82473" lon="0.4147">
        <ele>1009.771325</ele>
        <time>2021-05-15T20:43:01.180Z</time>
      </trkpt>
      <trkpt lat="42.82488" lon="0.41479">
        <ele>1008.647661</ele>
        <time>2021-05-15T20:43:03.594Z</time>
      </trkpt>
      <trkpt lat="42.82499" lon="0.41495">
        <ele>1007.578497</ele>
        <time>2021-05-15T20:43:05.949Z</time>
      </trkpt>
      <trkpt lat="42.82502" lon="0.415">
        <ele>1007.241169</ele>
        <time>2021-05-15T20:43:06.606Z</time>
      </trkpt>
      <trkpt lat="42.82511" lon="0.41508">
        <ele>1006.401</ele>
        <time>2021-05-15T20:43:08.198Z</time>
      </trkpt>
      <trkpt lat="42.82523" lon="0.41507">
        <ele>1005.502872</ele>
        <time>2021-05-15T20:43:10.270Z</time>
      </trkpt>
      <trkpt lat="42.82535" lon="0.41498">
        <ele>1004.469253</ele>
        <time>2021-05-15T20:43:12.097Z</time>
      </trkpt>
      <trkpt lat="42.82571" lon="0.41466">
        <ele>1001.200762</ele>
        <time>2021-05-15T20:43:18.330Z</time>
      </trkpt>
      <trkpt lat="42.82582" lon="0.41412">
        <ele>998.037548</ele>
        <time>2021-05-15T20:43:24.300Z</time>
      </trkpt>
      <trkpt lat="42.82592" lon="0.41404">
        <ele>997.213078</ele>
        <time>2021-05-15T20:43:25.931Z</time>
      </trkpt>
      <trkpt lat="42.82646" lon="0.41406">
        <ele>993.036295</ele>
        <time>2021-05-15T20:43:33.279Z</time>
      </trkpt>
      <trkpt lat="42.82693" lon="0.41395">
        <ele>988.934864</ele>
        <time>2021-05-15T20:43:39.791Z</time>
      </trkpt>
      <trkpt lat="42.82753" lon="0.41368">
        <ele>983.425086</ele>
        <time>2021-05-15T20:43:48.591Z</time>
      </trkpt>
      <trkpt lat="42.82797" lon="0.41353">
        <ele>979.552335</ele>
        <time>2021-05-15T20:43:54.838Z</time>
      </trkpt>
      <trkpt lat="42.82828" lon="0.41343">
        <ele>977.345783</ele>
        <time>2021-05-15T20:43:59.329Z</time>
      </trkpt>
      <trkpt lat="42.82967" lon="0.41311">
        <ele>970.995609</ele>
        <time>2021-05-15T20:44:20.377Z</time>
      </trkpt>
      <trkpt lat="42.82973" lon="0.41311">
        <ele>970.692333</ele>
        <time>2021-05-15T20:44:21.408Z</time>
      </trkpt>
      <trkpt lat="42.82991" lon="0.41313">
        <ele>969.873295</ele>
        <time>2021-05-15T20:44:26.274Z</time>
      </trkpt>
      <trkpt lat="42.8302" lon="0.41319">
        <ele>970.1449</ele>
        <time>2021-05-15T20:44:33.744Z</time>
      </trkpt>
      <trkpt lat="42.83245" lon="0.41365">
        <ele>971.889356</ele>
        <time>2021-05-15T20:45:40.627Z</time>
      </trkpt>
      <trkpt lat="42.8325" lon="0.41358">
        <ele>971.894744</ele>
        <time>2021-05-15T20:45:41.721Z</time>
      </trkpt>
      <trkpt lat="42.83266" lon="0.41337">
        <ele>971.911101</ele>
        <time>2021-05-15T20:45:49.486Z</time>
      </trkpt>
      <trkpt lat="42.83267" lon="0.41333">
        <ele>971.913722</ele>
        <time>2021-05-15T20:45:49.983Z</time>
      </trkpt>
      <trkpt lat="42.8327" lon="0.4133">
        <ele>971.916455</ele>
        <time>2021-05-15T20:45:50.599Z</time>
      </trkpt>
      <trkpt lat="42.83275" lon="0.41327">
        <ele>971.920451</ele>
        <time>2021-05-15T20:45:51.385Z</time>
      </trkpt>
      <trkpt lat="42.83305" lon="0.41319">
        <ele>971.943094</ele>
        <time>2021-05-15T20:45:59.349Z</time>
      </trkpt>
      <trkpt lat="42.8331" lon="0.41319">
        <ele>971.946909</ele>
        <time>2021-05-15T20:46:00.205Z</time>
      </trkpt>
      <trkpt lat="42.83329" lon="0.4132">
        <ele>971.961504</ele>
        <time>2021-05-15T20:46:05.106Z</time>
      </trkpt>
      <trkpt lat="42.83348" lon="0.41308">
        <ele>971.766626</ele>
        <time>2021-05-15T20:46:08.745Z</time>
      </trkpt>
      <trkpt lat="42.83353" lon="0.41306">
        <ele>971.69592</ele>
        <time>2021-05-15T20:46:09.500Z</time>
      </trkpt>
      <trkpt lat="42.83395" lon="0.41306">
        <ele>971.077671</ele>
        <time>2021-05-15T20:46:16.888Z</time>
      </trkpt>
      <trkpt lat="42.83442" lon="0.41318">
        <ele>970.366661</ele>
        <time>2021-05-15T20:46:25.601Z</time>
      </trkpt>
      <trkpt lat="42.83451" lon="0.41324">
        <ele>970.215715</ele>
        <time>2021-05-15T20:46:29.058Z</time>
      </trkpt>
      <trkpt lat="42.83486" lon="0.41307">
        <ele>969.665823</ele>
        <time>2021-05-15T20:46:37.733Z</time>
      </trkpt>
      <trkpt lat="42.83612" lon="0.41234">
        <ele>966.057695</ele>
        <time>2021-05-15T20:47:02.159Z</time>
      </trkpt>
      <trkpt lat="42.83694" lon="0.412">
        <ele>963.238696</ele>
        <time>2021-05-15T20:47:15.109Z</time>
      </trkpt>
      <trkpt lat="42.83754" lon="0.41168">
        <ele>960.164871</ele>
        <time>2021-05-15T20:47:24.708Z</time>
      </trkpt>
      <trkpt lat="42.83775" lon="0.41168">
        <ele>959.131332</ele>
        <time>2021-05-15T20:47:27.948Z</time>
      </trkpt>
      <trkpt lat="42.83813" lon="0.41185">
        <ele>957.214599</ele>
        <time>2021-05-15T20:47:34.052Z</time>
      </trkpt>
      <trkpt lat="42.83883" lon="0.41177">
        <ele>953.813712</ele>
        <time>2021-05-15T20:47:44.810Z</time>
      </trkpt>
      <trkpt lat="42.8392" lon="0.41164">
        <ele>951.930145</ele>
        <time>2021-05-15T20:47:50.640Z</time>
      </trkpt>
      <trkpt lat="42.83966" lon="0.41132">
        <ele>949.359599</ele>
        <time>2021-05-15T20:47:58.526Z</time>
      </trkpt>
      <trkpt lat="42.83986" lon="0.41125">
        <ele>948.342097</ele>
        <time>2021-05-15T20:48:01.615Z</time>
      </trkpt>
      <trkpt lat="42.84008" lon="0.41126">
        <ele>947.270272</ele>
        <time>2021-05-15T20:48:04.887Z</time>
      </trkpt>
      <trkpt lat="42.84101" lon="0.41154">
        <ele>939.722808</ele>
        <time>2021-05-15T20:48:18.888Z</time>
      </trkpt>
      <trkpt lat="42.84124" lon="0.41155">
        <ele>937.74935</ele>
        <time>2021-05-15T20:48:22.012Z</time>
      </trkpt>
      <trkpt lat="42.84185" lon="0.41152">
        <ele>932.601121</ele>
        <time>2021-05-15T20:48:30.248Z</time>
      </trkpt>
      <trkpt lat="42.84256" lon="0.41132">
        <ele>925.056416</ele>
        <time>2021-05-15T20:48:40.062Z</time>
      </trkpt>
      <trkpt lat="42.84265" lon="0.41129">
        <ele>924.135656</ele>
        <time>2021-05-15T20:48:41.147Z</time>
      </trkpt>
      <trkpt lat="42.84276" lon="0.41125">
        <ele>922.813893</ele>
        <time>2021-05-15T20:48:42.795Z</time>
      </trkpt>
      <trkpt lat="42.84303" lon="0.41111">
        <ele>919.777626</ele>
        <time>2021-05-15T20:48:46.583Z</time>
      </trkpt>
      <trkpt lat="42.84329" lon="0.4109">
        <ele>916.508341</ele>
        <time>2021-05-15T20:48:50.615Z</time>
      </trkpt>
      <trkpt lat="42.84424" lon="0.40972">
        <ele>906.695401</ele>
        <time>2021-05-15T20:49:08.453Z</time>
      </trkpt>
      <trkpt lat="42.84432" lon="0.40959">
        <ele>905.93029</ele>
        <time>2021-05-15T20:49:10.257Z</time>
      </trkpt>
      <trkpt lat="42.84445" lon="0.40933">
        <ele>904.498327</ele>
        <time>2021-05-15T20:49:14.162Z</time>
      </trkpt>
      <trkpt lat="42.84455" lon="0.40918">
        <ele>903.617476</ele>
        <time>2021-05-15T20:49:16.321Z</time>
      </trkpt>
      <trkpt lat="42.8447" lon="0.40905">
        <ele>902.515428</ele>
        <time>2021-05-15T20:49:19.419Z</time>
      </trkpt>
      <trkpt lat="42.84478" lon="0.40902">
        <ele>902.02799</ele>
        <time>2021-05-15T20:49:20.670Z</time>
      </trkpt>
      <trkpt lat="42.84497" lon="0.40909">
        <ele>900.946211</ele>
        <time>2021-05-15T20:49:23.962Z</time>
      </trkpt>
      <trkpt lat="42.84536" lon="0.4096">
        <ele>900.162065</ele>
        <time>2021-05-15T20:49:33.096Z</time>
      </trkpt>
      <trkpt lat="42.84558" lon="0.40974">
        <ele>899.808905</ele>
        <time>2021-05-15T20:49:37.687Z</time>
      </trkpt>
      <trkpt lat="42.84574" lon="0.40974">
        <ele>899.577188</ele>
        <time>2021-05-15T20:49:40.950Z</time>
      </trkpt>
      <trkpt lat="42.84582" lon="0.40972">
        <ele>899.452395</ele>
        <time>2021-05-15T20:49:43.157Z</time>
      </trkpt>
      <trkpt lat="42.84595" lon="0.40964">
        <ele>899.24729</ele>
        <time>2021-05-15T20:49:45.962Z</time>
      </trkpt>
      <trkpt lat="42.84601" lon="0.40961">
        <ele>899.161952</ele>
        <time>2021-05-15T20:49:47.142Z</time>
      </trkpt>
      <trkpt lat="42.84604" lon="0.40959">
        <ele>899.105332</ele>
        <time>2021-05-15T20:49:47.941Z</time>
      </trkpt>
      <trkpt lat="42.84625" lon="0.40947">
        <ele>898.77369</ele>
        <time>2021-05-15T20:49:52.909Z</time>
      </trkpt>
      <trkpt lat="42.84648" lon="0.40944">
        <ele>898.436939</ele>
        <time>2021-05-15T20:49:57.566Z</time>
      </trkpt>
      <trkpt lat="42.84706" lon="0.40946">
        <ele>896.937846</ele>
        <time>2021-05-15T20:50:08.042Z</time>
      </trkpt>
      <trkpt lat="42.84726" lon="0.40937">
        <ele>896.37538</ele>
        <time>2021-05-15T20:50:11.662Z</time>
      </trkpt>
      <trkpt lat="42.84796" lon="0.40891">
        <ele>894.274856</ele>
        <time>2021-05-15T20:50:24.247Z</time>
      </trkpt>
      <trkpt lat="42.84822" lon="0.40873">
        <ele>893.487084</ele>
        <time>2021-05-15T20:50:28.794Z</time>
      </trkpt>
      <trkpt lat="42.84842" lon="0.40862">
        <ele>892.662103</ele>
        <time>2021-05-15T20:50:32.309Z</time>
      </trkpt>
      <trkpt lat="42.84868" lon="0.40853">
        <ele>891.651415</ele>
        <time>2021-05-15T20:50:36.513Z</time>
      </trkpt>
      <trkpt lat="42.84887" lon="0.40848">
        <ele>890.916713</ele>
        <time>2021-05-15T20:50:39.409Z</time>
      </trkpt>
      <trkpt lat="42.84948" lon="0.40838">
        <ele>888.553109</ele>
        <time>2021-05-15T20:50:49.111Z</time>
      </trkpt>
      <trkpt lat="42.84971" lon="0.40822">
        <ele>887.589299</ele>
        <time>2021-05-15T20:50:53.106Z</time>
      </trkpt>
      <trkpt lat="42.84997" lon="0.40793">
        <ele>886.43974</ele>
        <time>2021-05-15T20:50:58.502Z</time>
      </trkpt>
      <trkpt lat="42.85006" lon="0.40787">
        <ele>886.187089</ele>
        <time>2021-05-15T20:51:00.134Z</time>
      </trkpt>
      <trkpt lat="42.85015" lon="0.40784">
        <ele>885.956073</ele>
        <time>2021-05-15T20:51:01.628Z</time>
      </trkpt>
      <trkpt lat="42.85081" lon="0.40761">
        <ele>884.301101</ele>
        <time>2021-05-15T20:51:13.369Z</time>
      </trkpt>
      <trkpt lat="42.85126" lon="0.4073">
        <ele>883.07443</ele>
        <time>2021-05-15T20:51:22.149Z</time>
      </trkpt>
      <trkpt lat="42.85219" lon="0.40712">
        <ele>880.988394</ele>
        <time>2021-05-15T20:51:38.744Z</time>
      </trkpt>
      <trkpt lat="42.8527" lon="0.40718">
        <ele>879.906702</ele>
        <time>2021-05-15T20:51:47.784Z</time>
      </trkpt>
      <trkpt lat="42.85337" lon="0.40693">
        <ele>878.418627</ele>
        <time>2021-05-15T20:51:59.855Z</time>
      </trkpt>
      <trkpt lat="42.85367" lon="0.40667">
        <ele>877.432578</ele>
        <time>2021-05-15T20:52:05.920Z</time>
      </trkpt>
      <trkpt lat="42.8538" lon="0.40648">
        <ele>876.909643</ele>
        <time>2021-05-15T20:52:09.095Z</time>
      </trkpt>
      <trkpt lat="42.8543" lon="0.40553">
        <ele>874.550404</ele>
        <time>2021-05-15T20:52:23.326Z</time>
      </trkpt>
      <trkpt lat="42.85446" lon="0.40537">
        <ele>874.010396</ele>
        <time>2021-05-15T20:52:26.520Z</time>
      </trkpt>
      <trkpt lat="42.85516" lon="0.40492">
        <ele>872.036442</ele>
        <time>2021-05-15T20:52:39.320Z</time>
      </trkpt>
      <trkpt lat="42.85586" lon="0.40457">
        <ele>870.160932</ele>
        <time>2021-05-15T20:52:51.946Z</time>
      </trkpt>
      <trkpt lat="42.8562" lon="0.40447">
        <ele>869.297594</ele>
        <time>2021-05-15T20:52:57.918Z</time>
      </trkpt>
      <trkpt lat="42.85722" lon="0.40438">
        <ele>868.08773</ele>
        <time>2021-05-15T20:53:16.917Z</time>
      </trkpt>
      <trkpt lat="42.85778" lon="0.40417">
        <ele>867.477637</ele>
        <time>2021-05-15T20:53:28.806Z</time>
      </trkpt>
      <trkpt lat="42.85866" lon="0.40397">
        <ele>866.888512</ele>
        <time>2021-05-15T20:53:47.115Z</time>
      </trkpt>
      <trkpt lat="42.85914" lon="0.40377">
        <ele>866.65103</ele>
        <time>2021-05-15T20:53:57.536Z</time>
      </trkpt>
      <trkpt lat="42.85936" lon="0.4036">
        <ele>866.530124</ele>
        <time>2021-05-15T20:54:03.065Z</time>
      </trkpt>
      <trkpt lat="42.85967" lon="0.40318">
        <ele>866.325963</ele>
        <time>2021-05-15T20:54:12.142Z</time>
      </trkpt>
      <trkpt lat="42.85985" lon="0.40302">
        <ele>866.082775</ele>
        <time>2021-05-15T20:54:16.481Z</time>
      </trkpt>
      <trkpt lat="42.86005" lon="0.40291">
        <ele>865.821366</ele>
        <time>2021-05-15T20:54:20.828Z</time>
      </trkpt>
      <trkpt lat="42.86076" lon="0.40275">
        <ele>864.977566</ele>
        <time>2021-05-15T20:54:34.532Z</time>
      </trkpt>
      <trkpt lat="42.86091" lon="0.40266">
        <ele>864.788292</ele>
        <time>2021-05-15T20:54:37.575Z</time>
      </trkpt>
      <trkpt lat="42.86103" lon="0.40255">
        <ele>864.621224</ele>
        <time>2021-05-15T20:54:40.000Z</time>
      </trkpt>
      <trkpt lat="42.86156" lon="0.4017">
        <ele>863.291708</ele>
        <time>2021-05-15T20:54:54.813Z</time>
      </trkpt>
      <trkpt lat="42.86179" lon="0.40143">
        <ele>862.688522</ele>
        <time>2021-05-15T20:55:00.163Z</time>
      </trkpt>
      <trkpt lat="42.86192" lon="0.40134">
        <ele>862.397368</ele>
        <time>2021-05-15T20:55:02.904Z</time>
      </trkpt>
      <trkpt lat="42.86204" lon="0.40127">
        <ele>862.142093</ele>
        <time>2021-05-15T20:55:04.962Z</time>
      </trkpt>
      <trkpt lat="42.86227" lon="0.40119">
        <ele>861.662848</ele>
        <time>2021-05-15T20:55:09.373Z</time>
      </trkpt>
      <trkpt lat="42.86269" lon="0.40118">
        <ele>860.843404</ele>
        <time>2021-05-15T20:55:16.497Z</time>
      </trkpt>
      <trkpt lat="42.86363" lon="0.40132">
        <ele>858.925697</ele>
        <time>2021-05-15T20:55:33.006Z</time>
      </trkpt>
      <trkpt lat="42.86425" lon="0.40125">
        <ele>857.654796</ele>
        <time>2021-05-15T20:55:44.188Z</time>
      </trkpt>
      <trkpt lat="42.86512" lon="0.40125">
        <ele>855.378169</ele>
        <time>2021-05-15T20:55:59.283Z</time>
      </trkpt>
      <trkpt lat="42.86532" lon="0.40116">
        <ele>854.785349</ele>
        <time>2021-05-15T20:56:02.682Z</time>
      </trkpt>
      <trkpt lat="42.8655" lon="0.401">
        <ele>854.15579</ele>
        <time>2021-05-15T20:56:06.254Z</time>
      </trkpt>
      <trkpt lat="42.86613" lon="0.40012">
        <ele>851.476307</ele>
        <time>2021-05-15T20:56:20.887Z</time>
      </trkpt>
      <trkpt lat="42.86723" lon="0.39907">
        <ele>847.053856</ele>
        <time>2021-05-15T20:56:42.289Z</time>
      </trkpt>
      <trkpt lat="42.86737" lon="0.39886">
        <ele>846.378165</ele>
        <time>2021-05-15T20:56:45.657Z</time>
      </trkpt>
      <trkpt lat="42.86759" lon="0.39737">
        <ele>843.879238</ele>
        <time>2021-05-15T20:57:04.719Z</time>
      </trkpt>
      <trkpt lat="42.86772" lon="0.39707">
        <ele>843.35865</ele>
        <time>2021-05-15T20:57:09.243Z</time>
      </trkpt>
      <trkpt lat="42.8679" lon="0.39685">
        <ele>842.864915</ele>
        <time>2021-05-15T20:57:13.674Z</time>
      </trkpt>
      <trkpt lat="42.86817" lon="0.39665">
        <ele>842.236752</ele>
        <time>2021-05-15T20:57:19.391Z</time>
      </trkpt>
      <trkpt lat="42.86844" lon="0.3965">
        <ele>841.930131</ele>
        <time>2021-05-15T20:57:24.851Z</time>
      </trkpt>
      <trkpt lat="42.86862" lon="0.39647">
        <ele>841.780522</ele>
        <time>2021-05-15T20:57:28.349Z</time>
      </trkpt>
      <trkpt lat="42.87015" lon="0.39653">
        <ele>840.622641</ele>
        <time>2021-05-15T20:57:58.958Z</time>
      </trkpt>
      <trkpt lat="42.87027" lon="0.3965">
        <ele>840.590015</ele>
        <time>2021-05-15T20:58:01.528Z</time>
      </trkpt>
      <trkpt lat="42.87037" lon="0.39648">
        <ele>840.561613</ele>
        <time>2021-05-15T20:58:03.720Z</time>
      </trkpt>
      <trkpt lat="42.87062" lon="0.39625">
        <ele>840.479774</ele>
        <time>2021-05-15T20:58:10.066Z</time>
      </trkpt>
      <trkpt lat="42.87084" lon="0.39579">
        <ele>840.367908</ele>
        <time>2021-05-15T20:58:18.815Z</time>
      </trkpt>
      <trkpt lat="42.87088" lon="0.39567">
        <ele>840.341025</ele>
        <time>2021-05-15T20:58:20.890Z</time>
      </trkpt>
      <trkpt lat="42.87108" lon="0.39512">
        <ele>840.216861</ele>
        <time>2021-05-15T20:58:30.725Z</time>
      </trkpt>
      <trkpt lat="42.87127" lon="0.39461">
        <ele>840.09723</ele>
        <time>2021-05-15T20:58:39.801Z</time>
      </trkpt>
      <trkpt lat="42.87135" lon="0.39438">
        <ele>840.043421</ele>
        <time>2021-05-15T20:58:43.746Z</time>
      </trkpt>
      <trkpt lat="42.87159" lon="0.39387">
        <ele>839.914517</ele>
        <time>2021-05-15T20:58:53.277Z</time>
      </trkpt>
      <trkpt lat="42.87184" lon="0.39368">
        <ele>839.830385</ele>
        <time>2021-05-15T20:58:59.428Z</time>
      </trkpt>
      <trkpt lat="42.8719" lon="0.39366">
        <ele>839.812587</ele>
        <time>2021-05-15T20:59:00.771Z</time>
      </trkpt>
      <trkpt lat="42.87199" lon="0.39364">
        <ele>839.786435</ele>
        <time>2021-05-15T20:59:02.686Z</time>
      </trkpt>
      <trkpt lat="42.87215" lon="0.39359">
        <ele>839.74079</ele>
        <time>2021-05-15T20:59:05.956Z</time>
      </trkpt>
      <trkpt lat="42.87345" lon="0.39318">
        <ele>838.779527</ele>
        <time>2021-05-15T20:59:33.547Z</time>
      </trkpt>
      <trkpt lat="42.87349" lon="0.39317">
        <ele>838.743528</ele>
        <time>2021-05-15T20:59:34.324Z</time>
      </trkpt>
      <trkpt lat="42.87379" lon="0.39309">
        <ele>838.475105</ele>
        <time>2021-05-15T20:59:40.537Z</time>
      </trkpt>
      <trkpt lat="42.874" lon="0.39302">
        <ele>838.291524</ele>
        <time>2021-05-15T20:59:44.751Z</time>
      </trkpt>
      <trkpt lat="42.8741" lon="0.39299">
        <ele>838.204919</ele>
        <time>2021-05-15T20:59:46.599Z</time>
      </trkpt>
      <trkpt lat="42.87532" lon="0.39232">
        <ele>834.572195</ele>
        <time>2021-05-15T21:00:09.164Z</time>
      </trkpt>
      <trkpt lat="42.87576" lon="0.39192">
        <ele>832.987996</ele>
        <time>2021-05-15T21:00:17.383Z</time>
      </trkpt>
      <trkpt lat="42.87614" lon="0.39155">
        <ele>831.148153</ele>
        <time>2021-05-15T21:00:24.454Z</time>
      </trkpt>
      <trkpt lat="42.87641" lon="0.39117">
        <ele>829.526109</ele>
        <time>2021-05-15T21:00:30.438Z</time>
      </trkpt>
      <trkpt lat="42.87654" lon="0.39104">
        <ele>828.846431</ele>
        <time>2021-05-15T21:00:32.925Z</time>
      </trkpt>
      <trkpt lat="42.87661" lon="0.39101">
        <ele>828.566747</ele>
        <time>2021-05-15T21:00:33.986Z</time>
      </trkpt>
      <trkpt lat="42.87665" lon="0.39098">
        <ele>828.362153</ele>
        <time>2021-05-15T21:00:34.683Z</time>
      </trkpt>
      <trkpt lat="42.87711" lon="0.39092">
        <ele>826.426358</ele>
        <time>2021-05-15T21:00:41.919Z</time>
      </trkpt>
      <trkpt lat="42.87725" lon="0.39081">
        <ele>825.771648</ele>
        <time>2021-05-15T21:00:44.368Z</time>
      </trkpt>
      <trkpt lat="42.87737" lon="0.39064">
        <ele>825.161444</ele>
        <time>2021-05-15T21:00:47.213Z</time>
      </trkpt>
      <trkpt lat="42.87778" lon="0.38978">
        <ele>823.822526</ele>
        <time>2021-05-15T21:00:59.994Z</time>
      </trkpt>
      <trkpt lat="42.87792" lon="0.38961">
        <ele>823.478885</ele>
        <time>2021-05-15T21:01:03.744Z</time>
      </trkpt>
      <trkpt lat="42.87853" lon="0.38967">
        <ele>822.397561</ele>
        <time>2021-05-15T21:01:15.621Z</time>
      </trkpt>
      <trkpt lat="42.87885" lon="0.38955">
        <ele>821.911723</ele>
        <time>2021-05-15T21:01:22.230Z</time>
      </trkpt>
      <trkpt lat="42.87991" lon="0.38898">
        <ele>820.819736</ele>
        <time>2021-05-15T21:01:44.733Z</time>
      </trkpt>
      <trkpt lat="42.88115" lon="0.38876">
        <ele>818.870755</ele>
        <time>2021-05-15T21:02:07.896Z</time>
      </trkpt>
      <trkpt lat="42.88166" lon="0.38852">
        <ele>817.808614</ele>
        <time>2021-05-15T21:02:17.387Z</time>
      </trkpt>
      <trkpt lat="42.88253" lon="0.38793">
        <ele>815.176733</ele>
        <time>2021-05-15T21:02:33.736Z</time>
      </trkpt>
      <trkpt lat="42.88291" lon="0.38773">
        <ele>813.718838</ele>
        <time>2021-05-15T21:02:40.297Z</time>
      </trkpt>
      <trkpt lat="42.88416" lon="0.38617">
        <ele>807.569867</ele>
        <time>2021-05-15T21:03:06.805Z</time>
      </trkpt>
      <trkpt lat="42.88549" lon="0.38542">
        <ele>802.756073</ele>
        <time>2021-05-15T21:03:29.856Z</time>
      </trkpt>
      <trkpt lat="42.8858" lon="0.38521">
        <ele>801.953055</ele>
        <time>2021-05-15T21:03:35.748Z</time>
      </trkpt>
      <trkpt lat="42.88601" lon="0.38498">
        <ele>801.313677</ele>
        <time>2021-05-15T21:03:40.569Z</time>
      </trkpt>
      <trkpt lat="42.88684" lon="0.38304">
        <ele>797.201687</ele>
        <time>2021-05-15T21:04:09.965Z</time>
      </trkpt>
      <trkpt lat="42.88695" lon="0.38285">
        <ele>796.732734</ele>
        <time>2021-05-15T21:04:12.995Z</time>
      </trkpt>
      <trkpt lat="42.88711" lon="0.38258">
        <ele>796.056724</ele>
        <time>2021-05-15T21:04:17.129Z</time>
      </trkpt>
      <trkpt lat="42.88752" lon="0.38206">
        <ele>794.509381</ele>
        <time>2021-05-15T21:04:26.223Z</time>
      </trkpt>
      <trkpt lat="42.88759" lon="0.38181">
        <ele>793.683558</ele>
        <time>2021-05-15T21:04:29.249Z</time>
      </trkpt>
      <trkpt lat="42.88771" lon="0.38089">
        <ele>790.810449</ele>
        <time>2021-05-15T21:04:39.709Z</time>
      </trkpt>
      <trkpt lat="42.88778" lon="0.38055">
        <ele>789.70233</ele>
        <time>2021-05-15T21:04:43.757Z</time>
      </trkpt>
      <trkpt lat="42.88797" lon="0.38026">
        <ele>788.518271</ele>
        <time>2021-05-15T21:04:48.033Z</time>
      </trkpt>
      <trkpt lat="42.88962" lon="0.37937">
        <ele>782.061179</ele>
        <time>2021-05-15T21:05:16.091Z</time>
      </trkpt>
      <trkpt lat="42.89008" lon="0.37897">
        <ele>780.391456</ele>
        <time>2021-05-15T21:05:25.452Z</time>
      </trkpt>
      <trkpt lat="42.89017" lon="0.37865">
        <ele>779.861355</ele>
        <time>2021-05-15T21:05:29.797Z</time>
      </trkpt>
      <trkpt lat="42.89011" lon="0.37828">
        <ele>779.281093</ele>
        <time>2021-05-15T21:05:34.606Z</time>
      </trkpt>
      <trkpt lat="42.88957" lon="0.37738">
        <ele>777.461686</ele>
        <time>2021-05-15T21:05:49.989Z</time>
      </trkpt>
      <trkpt lat="42.88951" lon="0.37711">
        <ele>777.017788</ele>
        <time>2021-05-15T21:05:53.703Z</time>
      </trkpt>
      <trkpt lat="42.88956" lon="0.37688">
        <ele>776.598776</ele>
        <time>2021-05-15T21:05:56.731Z</time>
      </trkpt>
      <trkpt lat="42.89007" lon="0.37619">
        <ele>774.851385</ele>
        <time>2021-05-15T21:06:08.770Z</time>
      </trkpt>
      <trkpt lat="42.89033" lon="0.37566">
        <ele>773.720131</ele>
        <time>2021-05-15T21:06:16.577Z</time>
      </trkpt>
      <trkpt lat="42.89073" lon="0.37461">
        <ele>771.893696</ele>
        <time>2021-05-15T21:06:31.616Z</time>
      </trkpt>
      <trkpt lat="42.89131" lon="0.37369">
        <ele>770.381741</ele>
        <time>2021-05-15T21:06:47.531Z</time>
      </trkpt>
      <trkpt lat="42.89157" lon="0.3734">
        <ele>769.791752</ele>
        <time>2021-05-15T21:06:54.045Z</time>
      </trkpt>
      <trkpt lat="42.89164" lon="0.37333">
        <ele>769.641717</ele>
        <time>2021-05-15T21:06:55.607Z</time>
      </trkpt>
      <trkpt lat="42.89282" lon="0.37217">
        <ele>767.673823</ele>
        <time>2021-05-15T21:07:23.484Z</time>
      </trkpt>
      <trkpt lat="42.89369" lon="0.37153">
        <ele>765.528567</ele>
        <time>2021-05-15T21:07:40.993Z</time>
      </trkpt>
      <trkpt lat="42.89428" lon="0.37118">
        <ele>763.741004</ele>
        <time>2021-05-15T21:07:51.771Z</time>
      </trkpt>
      <trkpt lat="42.89486" lon="0.371">
        <ele>762.066234</ele>
        <time>2021-05-15T21:08:01.184Z</time>
      </trkpt>
      <trkpt lat="42.89522" lon="0.37072">
        <ele>760.908217</ele>
        <time>2021-05-15T21:08:07.586Z</time>
      </trkpt>
      <trkpt lat="42.89579" lon="0.37045">
        <ele>759.203397</ele>
        <time>2021-05-15T21:08:17.389Z</time>
      </trkpt>
      <trkpt lat="42.89593" lon="0.37036">
        <ele>758.7484</ele>
        <time>2021-05-15T21:08:20.030Z</time>
      </trkpt>
      <trkpt lat="42.89605" lon="0.37028">
        <ele>758.359642</ele>
        <time>2021-05-15T21:08:22.324Z</time>
      </trkpt>
      <trkpt lat="42.89657" lon="0.37008">
        <ele>756.940887</ele>
        <time>2021-05-15T21:08:31.983Z</time>
      </trkpt>
      <trkpt lat="42.89678" lon="0.36991">
        <ele>756.795809</ele>
        <time>2021-05-15T21:08:36.474Z</time>
      </trkpt>
      <trkpt lat="42.89685" lon="0.3697">
        <ele>756.689131</ele>
        <time>2021-05-15T21:08:39.714Z</time>
      </trkpt>
      <trkpt lat="42.89696" lon="0.36855">
        <ele>756.172218</ele>
        <time>2021-05-15T21:08:58.536Z</time>
      </trkpt>
      <trkpt lat="42.89712" lon="0.36801">
        <ele>755.910326</ele>
        <time>2021-05-15T21:09:08.939Z</time>
      </trkpt>
      <trkpt lat="42.89747" lon="0.36729">
        <ele>753.32755</ele>
        <time>2021-05-15T21:09:21.437Z</time>
      </trkpt>
      <trkpt lat="42.89807" lon="0.36635">
        <ele>749.274665</ele>
        <time>2021-05-15T21:09:34.822Z</time>
      </trkpt>
      <trkpt lat="42.89837" lon="0.36562">
        <ele>745.225036</ele>
        <time>2021-05-15T21:09:43.705Z</time>
      </trkpt>
      <trkpt lat="42.89842" lon="0.36564">
        <ele>744.747133</ele>
        <time>2021-05-15T21:09:44.381Z</time>
      </trkpt>
      <trkpt lat="42.89851" lon="0.36568">
        <ele>743.890987</ele>
        <time>2021-05-15T21:09:45.791Z</time>
      </trkpt>
      <trkpt lat="42.89866" lon="0.36562">
        <ele>742.492291</ele>
        <time>2021-05-15T21:09:48.075Z</time>
      </trkpt>
      <trkpt lat="42.89921" lon="0.36443">
        <ele>733.401895</ele>
        <time>2021-05-15T21:10:02.079Z</time>
      </trkpt>
      <trkpt lat="42.89965" lon="0.3639">
        <ele>729.742328</ele>
        <time>2021-05-15T21:10:10.199Z</time>
      </trkpt>
      <trkpt lat="42.89996" lon="0.36368">
        <ele>727.829339</ele>
        <time>2021-05-15T21:10:15.460Z</time>
      </trkpt>
      <trkpt lat="42.90005" lon="0.3636">
        <ele>727.252744</ele>
        <time>2021-05-15T21:10:17.051Z</time>
      </trkpt>
      <trkpt lat="42.90098" lon="0.36264">
        <ele>721.75748</ele>
        <time>2021-05-15T21:10:35.673Z</time>
      </trkpt>
      <trkpt lat="42.90138" lon="0.362">
        <ele>720.336037</ele>
        <time>2021-05-15T21:10:46.645Z</time>
      </trkpt>
      <trkpt lat="42.90172" lon="0.36175">
        <ele>719.464987</ele>
        <time>2021-05-15T21:10:53.368Z</time>
      </trkpt>
      <trkpt lat="42.9018" lon="0.36171">
        <ele>719.260892</ele>
        <time>2021-05-15T21:10:54.884Z</time>
      </trkpt>
      <trkpt lat="42.90202" lon="0.36157">
        <ele>718.709077</ele>
        <time>2021-05-15T21:10:59.279Z</time>
      </trkpt>
      <trkpt lat="42.90237" lon="0.3614">
        <ele>717.87213</ele>
        <time>2021-05-15T21:11:05.884Z</time>
      </trkpt>
      <trkpt lat="42.90242" lon="0.36137">
        <ele>717.766985</ele>
        <time>2021-05-15T21:11:06.642Z</time>
      </trkpt>
      <trkpt lat="42.90255" lon="0.36118">
        <ele>717.341051</ele>
        <time>2021-05-15T21:11:10.090Z</time>
      </trkpt>
      <trkpt lat="42.90272" lon="0.36096">
        <ele>716.824767</ele>
        <time>2021-05-15T21:11:14.142Z</time>
      </trkpt>
      <trkpt lat="42.90311" lon="0.36074">
        <ele>715.892624</ele>
        <time>2021-05-15T21:11:21.399Z</time>
      </trkpt>
      <trkpt lat="42.9032" lon="0.36114">
        <ele>715.220153</ele>
        <time>2021-05-15T21:11:42.679Z</time>
      </trkpt>
      <trkpt lat="42.90348" lon="0.36101">
        <ele>714.572496</ele>
        <time>2021-05-15T21:11:47.713Z</time>
      </trkpt>
      <trkpt lat="42.90354" lon="0.36098">
        <ele>714.421902</ele>
        <time>2021-05-15T21:11:48.903Z</time>
      </trkpt>
      <trkpt lat="42.90366" lon="0.36087">
        <ele>714.17404</ele>
        <time>2021-05-15T21:11:51.333Z</time>
      </trkpt>
      <trkpt lat="42.90371" lon="0.36083">
        <ele>714.088752</ele>
        <time>2021-05-15T21:11:52.455Z</time>
      </trkpt>
      <trkpt lat="42.90382" lon="0.36072">
        <ele>713.905098</ele>
        <time>2021-05-15T21:11:55.001Z</time>
      </trkpt>
      <trkpt lat="42.90387" lon="0.36058">
        <ele>713.759867</ele>
        <time>2021-05-15T21:11:57.047Z</time>
      </trkpt>
      <trkpt lat="42.90388" lon="0.36053">
        <ele>713.701062</ele>
        <time>2021-05-15T21:11:57.862Z</time>
      </trkpt>
      <trkpt lat="42.90389" lon="0.36047">
        <ele>713.643724</ele>
        <time>2021-05-15T21:11:58.676Z</time>
      </trkpt>
      <trkpt lat="42.90388" lon="0.36035">
        <ele>713.534624</ele>
        <time>2021-05-15T21:12:00.206Z</time>
      </trkpt>
      <trkpt lat="42.90387" lon="0.3602">
        <ele>713.383369</ele>
        <time>2021-05-15T21:12:02.359Z</time>
      </trkpt>
      <trkpt lat="42.90399" lon="0.36007">
        <ele>713.175386</ele>
        <time>2021-05-15T21:12:05.196Z</time>
      </trkpt>
      <trkpt lat="42.90406" lon="0.35999">
        <ele>713.05564</ele>
        <time>2021-05-15T21:12:06.823Z</time>
      </trkpt>
      <trkpt lat="42.90421" lon="0.35983">
        <ele>712.799124</ele>
        <time>2021-05-15T21:12:10.332Z</time>
      </trkpt>
      <trkpt lat="42.90434" lon="0.35971">
        <ele>712.596749</ele>
        <time>2021-05-15T21:12:13.090Z</time>
      </trkpt>
      <trkpt lat="42.90456" lon="0.3595">
        <ele>712.240325</ele>
        <time>2021-05-15T21:12:18.170Z</time>
      </trkpt>
      <trkpt lat="42.9047" lon="0.35933">
        <ele>711.996887</ele>
        <time>2021-05-15T21:12:21.959Z</time>
      </trkpt>
      <trkpt lat="42.90479" lon="0.35918">
        <ele>711.925724</ele>
        <time>2021-05-15T21:12:25.057Z</time>
      </trkpt>
      <trkpt lat="42.90493" lon="0.35903">
        <ele>712.069909</ele>
        <time>2021-05-15T21:12:29.697Z</time>
      </trkpt>
      <trkpt lat="42.90499" lon="0.35896">
        <ele>712.134871</ele>
        <time>2021-05-15T21:12:31.801Z</time>
      </trkpt>
      <trkpt lat="42.90513" lon="0.35883">
        <ele>712.272931</ele>
        <time>2021-05-15T21:12:36.354Z</time>
      </trkpt>
      <trkpt lat="42.90532" lon="0.35863">
        <ele>712.467266</ele>
        <time>2021-05-15T21:12:42.933Z</time>
      </trkpt>
      <trkpt lat="42.90559" lon="0.35839">
        <ele>712.725755</ele>
        <time>2021-05-15T21:12:51.997Z</time>
      </trkpt>
      <trkpt lat="42.90564" lon="0.35834">
        <ele>712.771036</ele>
        <time>2021-05-15T21:12:53.467Z</time>
      </trkpt>
      <trkpt lat="42.90568" lon="0.35829">
        <ele>712.814946</ele>
        <time>2021-05-15T21:12:55.026Z</time>
      </trkpt>
      <trkpt lat="42.90569" lon="0.35827">
        <ele>712.829233</ele>
        <time>2021-05-15T21:12:55.579Z</time>
      </trkpt>
      <trkpt lat="42.90575" lon="0.35815">
        <ele>712.915442</ele>
        <time>2021-05-15T21:12:58.887Z</time>
      </trkpt>
      <trkpt lat="42.9058" lon="0.35799">
        <ele>713.0171</ele>
        <time>2021-05-15T21:13:02.439Z</time>
      </trkpt>
      <trkpt lat="42.90584" lon="0.35787">
        <ele>713.092211</ele>
        <time>2021-05-15T21:13:04.911Z</time>
      </trkpt>
      <trkpt lat="42.90585" lon="0.35784">
        <ele>713.112737</ele>
        <time>2021-05-15T21:13:05.757Z</time>
      </trkpt>
      <trkpt lat="42.90591" lon="0.35759">
        <ele>713.270271</ele>
        <time>2021-05-15T21:13:11.265Z</time>
      </trkpt>
      <trkpt lat="42.90593" lon="0.35753">
        <ele>713.307244</ele>
        <time>2021-05-15T21:13:12.435Z</time>
      </trkpt>
      <trkpt lat="42.90608" lon="0.35754">
        <ele>713.153123</ele>
        <time>2021-05-15T21:13:15.310Z</time>
      </trkpt>
      <trkpt lat="42.90614" lon="0.35753">
        <ele>713.071228</ele>
        <time>2021-05-15T21:13:17.103Z</time>
      </trkpt>
      <trkpt lat="42.9068" lon="0.35744">
        <ele>712.156578</ele>
        <time>2021-05-15T21:13:30.742Z</time>
      </trkpt>
      <trkpt lat="42.90693" lon="0.35749">
        <ele>711.972427</ele>
        <time>2021-05-15T21:13:33.889Z</time>
      </trkpt>
      <trkpt lat="42.90717" lon="0.35769">
        <ele>711.588073</ele>
        <time>2021-05-15T21:13:38.831Z</time>
      </trkpt>
      <trkpt lat="42.90739" lon="0.35787">
        <ele>711.242788</ele>
        <time>2021-05-15T21:13:43.337Z</time>
      </trkpt>
      <trkpt lat="42.90741" lon="0.35789">
        <ele>711.203438</ele>
        <time>2021-05-15T21:13:43.705Z</time>
      </trkpt>
      <trkpt lat="42.90791" lon="0.35832">
        <ele>709.634408</ele>
        <time>2021-05-15T21:13:53.160Z</time>
      </trkpt>
      <trkpt lat="42.90831" lon="0.35875">
        <ele>707.785226</ele>
        <time>2021-05-15T21:14:00.818Z</time>
      </trkpt>
      <trkpt lat="42.90908" lon="0.35965">
        <ele>704.291263</ele>
        <time>2021-05-15T21:14:17.191Z</time>
      </trkpt>
      <trkpt lat="42.90924" lon="0.35991">
        <ele>704.195941</ele>
        <time>2021-05-15T21:14:21.609Z</time>
      </trkpt>
      <trkpt lat="42.90931" lon="0.36001">
        <ele>704.158336</ele>
        <time>2021-05-15T21:14:23.290Z</time>
      </trkpt>
      <trkpt lat="42.90938" lon="0.36014">
        <ele>704.111214</ele>
        <time>2021-05-15T21:14:25.503Z</time>
      </trkpt>
      <trkpt lat="42.90963" lon="0.36033">
        <ele>704.001663</ele>
        <time>2021-05-15T21:14:30.933Z</time>
      </trkpt>
      <trkpt lat="42.91036" lon="0.36067">
        <ele>703.707369</ele>
        <time>2021-05-15T21:14:49.225Z</time>
      </trkpt>
      <trkpt lat="42.91073" lon="0.36064">
        <ele>704.019463</ele>
        <time>2021-05-15T21:15:00.768Z</time>
      </trkpt>
      <trkpt lat="42.91143" lon="0.36008">
        <ele>706.041199</ele>
        <time>2021-05-15T21:15:28.911Z</time>
      </trkpt>
      <trkpt lat="42.91168" lon="0.35983">
        <ele>706.805051</ele>
        <time>2021-05-15T21:15:39.569Z</time>
      </trkpt>
      <trkpt lat="42.91194" lon="0.3595">
        <ele>707.680095</ele>
        <time>2021-05-15T21:15:51.169Z</time>
      </trkpt>
      <trkpt lat="42.91232" lon="0.35916">
        <ele>707.952122</ele>
        <time>2021-05-15T21:16:04.767Z</time>
      </trkpt>
      <trkpt lat="42.91277" lon="0.35895">
        <ele>707.734664</ele>
        <time>2021-05-15T21:16:17.104Z</time>
      </trkpt>
      <trkpt lat="42.9131" lon="0.35894">
        <ele>707.5847</ele>
        <time>2021-05-15T21:16:23.812Z</time>
      </trkpt>
      <trkpt lat="42.91334" lon="0.35899">
        <ele>707.474311</ele>
        <time>2021-05-15T21:16:28.142Z</time>
      </trkpt>
      <trkpt lat="42.91415" lon="0.35955">
        <ele>706.091938</ele>
        <time>2021-05-15T21:16:43.150Z</time>
      </trkpt>
      <trkpt lat="42.91527" lon="0.36047">
        <ele>702.681908</ele>
        <time>2021-05-15T21:17:04.884Z</time>
      </trkpt>
      <trkpt lat="42.91564" lon="0.36084">
        <ele>701.991165</ele>
        <time>2021-05-15T21:17:13.158Z</time>
      </trkpt>
      <trkpt lat="42.91581" lon="0.36105">
        <ele>701.670359</ele>
        <time>2021-05-15T21:17:17.466Z</time>
      </trkpt>
      <trkpt lat="42.91633" lon="0.36194">
        <ele>700.521539</ele>
        <time>2021-05-15T21:17:33.628Z</time>
      </trkpt>
      <trkpt lat="42.91691" lon="0.36263">
        <ele>699.034472</ele>
        <time>2021-05-15T21:17:48.326Z</time>
      </trkpt>
      <trkpt lat="42.91711" lon="0.3628">
        <ele>698.466349</ele>
        <time>2021-05-15T21:17:52.772Z</time>
      </trkpt>
      <trkpt lat="42.9172" lon="0.36288">
        <ele>698.223991</ele>
        <time>2021-05-15T21:17:54.562Z</time>
      </trkpt>
      <trkpt lat="42.91834" lon="0.36324">
        <ele>695.216663</ele>
        <time>2021-05-15T21:18:13.888Z</time>
      </trkpt>
      <trkpt lat="42.91973" lon="0.36358">
        <ele>689.606642</ele>
        <time>2021-05-15T21:18:35.701Z</time>
      </trkpt>
      <trkpt lat="42.92073" lon="0.36366">
        <ele>686.100923</ele>
        <time>2021-05-15T21:18:51.369Z</time>
      </trkpt>
      <trkpt lat="42.92158" lon="0.36384">
        <ele>683.202356</ele>
        <time>2021-05-15T21:19:05.593Z</time>
      </trkpt>
      <trkpt lat="42.922" lon="0.36411">
        <ele>682.222101</ele>
        <time>2021-05-15T21:19:13.419Z</time>
      </trkpt>
      <trkpt lat="42.92242" lon="0.36451">
        <ele>681.431748</ele>
        <time>2021-05-15T21:19:22.538Z</time>
      </trkpt>
      <trkpt lat="42.92374" lon="0.36596">
        <ele>679.552207</ele>
        <time>2021-05-15T21:19:55.352Z</time>
      </trkpt>
      <trkpt lat="42.92458" lon="0.36646">
        <ele>679.07412</ele>
        <time>2021-05-15T21:20:14.983Z</time>
      </trkpt>
      <trkpt lat="42.92473" lon="0.36653">
        <ele>678.992097</ele>
        <time>2021-05-15T21:20:18.542Z</time>
      </trkpt>
      <trkpt lat="42.92501" lon="0.36664">
        <ele>678.865047</ele>
        <time>2021-05-15T21:20:24.871Z</time>
      </trkpt>
      <trkpt lat="42.92637" lon="0.36714">
        <ele>678.25287</ele>
        <time>2021-05-15T21:20:53.988Z</time>
      </trkpt>
      <trkpt lat="42.92647" lon="0.36718">
        <ele>678.205584</ele>
        <time>2021-05-15T21:20:56.029Z</time>
      </trkpt>
      <trkpt lat="42.92682" lon="0.36728">
        <ele>677.997777</ele>
        <time>2021-05-15T21:21:03.081Z</time>
      </trkpt>
      <trkpt lat="42.92894" lon="0.36762">
        <ele>676.960399</ele>
        <time>2021-05-15T21:21:46.622Z</time>
      </trkpt>
      <trkpt lat="42.92994" lon="0.36757">
        <ele>676.667281</ele>
        <time>2021-05-15T21:22:09.007Z</time>
      </trkpt>
      <trkpt lat="42.93097" lon="0.36741">
        <ele>675.363109</ele>
        <time>2021-05-15T21:22:29.952Z</time>
      </trkpt>
      <trkpt lat="42.93118" lon="0.36743">
        <ele>675.073825</ele>
        <time>2021-05-15T21:22:33.738Z</time>
      </trkpt>
      <trkpt lat="42.93193" lon="0.36769">
        <ele>673.894995</ele>
        <time>2021-05-15T21:22:46.899Z</time>
      </trkpt>
      <trkpt lat="42.93227" lon="0.36773">
        <ele>673.083443</ele>
        <time>2021-05-15T21:22:52.620Z</time>
      </trkpt>
      <trkpt lat="42.93276" lon="0.36778">
        <ele>671.919733</ele>
        <time>2021-05-15T21:23:00.898Z</time>
      </trkpt>
      <trkpt lat="42.933" lon="0.36786">
        <ele>671.321471</ele>
        <time>2021-05-15T21:23:05.148Z</time>
      </trkpt>
      <trkpt lat="42.93355" lon="0.36809">
        <ele>669.965297</ele>
        <time>2021-05-15T21:23:14.933Z</time>
      </trkpt>
      <trkpt lat="42.93418" lon="0.36838">
        <ele>669.26903</ele>
        <time>2021-05-15T21:23:27.174Z</time>
      </trkpt>
      <trkpt lat="42.93435" lon="0.36845">
        <ele>669.093129</ele>
        <time>2021-05-15T21:23:30.622Z</time>
      </trkpt>
      <trkpt lat="42.93472" lon="0.36862">
        <ele>668.708912</ele>
        <time>2021-05-15T21:23:38.759Z</time>
      </trkpt>
      <trkpt lat="42.93538" lon="0.36902">
        <ele>667.998</ele>
        <time>2021-05-15T21:23:54.219Z</time>
      </trkpt>
      <trkpt lat="42.9367" lon="0.36998">
        <ele>666.587714</ele>
        <time>2021-05-15T21:24:22.862Z</time>
      </trkpt>
      <trkpt lat="42.93679" lon="0.37004">
        <ele>666.49279</ele>
        <time>2021-05-15T21:24:24.771Z</time>
      </trkpt>
      <trkpt lat="42.93691" lon="0.37011">
        <ele>666.347889</ele>
        <time>2021-05-15T21:24:27.174Z</time>
      </trkpt>
      <trkpt lat="42.93726" lon="0.37027">
        <ele>665.850793</ele>
        <time>2021-05-15T21:24:33.981Z</time>
      </trkpt>
      <trkpt lat="42.9374" lon="0.37033">
        <ele>665.640368</ele>
        <time>2021-05-15T21:24:36.847Z</time>
      </trkpt>
      <trkpt lat="42.93769" lon="0.37045">
        <ele>665.233912</ele>
        <time>2021-05-15T21:24:42.369Z</time>
      </trkpt>
      <trkpt lat="42.94002" lon="0.37118">
        <ele>661.949629</ele>
        <time>2021-05-15T21:25:26.493Z</time>
      </trkpt>
      <trkpt lat="42.94116" lon="0.37148">
        <ele>660.392388</ele>
        <time>2021-05-15T21:25:48.293Z</time>
      </trkpt>
      <trkpt lat="42.9414" lon="0.37158">
        <ele>660.076342</ele>
        <time>2021-05-15T21:25:52.926Z</time>
      </trkpt>
      <trkpt lat="42.94166" lon="0.37185">
        <ele>659.650584</ele>
        <time>2021-05-15T21:25:58.999Z</time>
      </trkpt>
      <trkpt lat="42.94169" lon="0.3719">
        <ele>659.578658</ele>
        <time>2021-05-15T21:26:00.063Z</time>
      </trkpt>
      <trkpt lat="42.94176" lon="0.37202">
        <ele>659.44033</ele>
        <time>2021-05-15T21:26:01.932Z</time>
      </trkpt>
      <trkpt lat="42.94185" lon="0.37231">
        <ele>659.132952</ele>
        <time>2021-05-15T21:26:06.457Z</time>
      </trkpt>
      <trkpt lat="42.94197" lon="0.37309">
        <ele>658.401814</ele>
        <time>2021-05-15T21:26:17.243Z</time>
      </trkpt>
      <trkpt lat="42.94217" lon="0.37356">
        <ele>657.906671</ele>
        <time>2021-05-15T21:26:24.648Z</time>
      </trkpt>
      <trkpt lat="42.94247" lon="0.3738">
        <ele>657.480402</ele>
        <time>2021-05-15T21:26:31.021Z</time>
      </trkpt>
      <trkpt lat="42.94263" lon="0.37388">
        <ele>657.259051</ele>
        <time>2021-05-15T21:26:34.290Z</time>
      </trkpt>
      <trkpt lat="42.94281" lon="0.37389">
        <ele>657.03566</ele>
        <time>2021-05-15T21:26:37.888Z</time>
      </trkpt>
      <trkpt lat="42.94301" lon="0.37384">
        <ele>656.847986</ele>
        <time>2021-05-15T21:26:41.657Z</time>
      </trkpt>
      <trkpt lat="42.9432" lon="0.37384">
        <ele>656.767923</ele>
        <time>2021-05-15T21:26:45.499Z</time>
      </trkpt>
      <trkpt lat="42.94404" lon="0.37387">
        <ele>656.409657</ele>
        <time>2021-05-15T21:27:02.399Z</time>
      </trkpt>
      <trkpt lat="42.94482" lon="0.37374">
        <ele>656.130036</ele>
        <time>2021-05-15T21:27:19.997Z</time>
      </trkpt>
      <trkpt lat="42.94531" lon="0.37368">
        <ele>656.208261</ele>
        <time>2021-05-15T21:27:31.612Z</time>
      </trkpt>
      <trkpt lat="42.94624" lon="0.37357">
        <ele>656.357892</ele>
        <time>2021-05-15T21:27:53.388Z</time>
      </trkpt>
      <trkpt lat="42.94651" lon="0.37358">
        <ele>656.400909</ele>
        <time>2021-05-15T21:27:59.314Z</time>
      </trkpt>
      <trkpt lat="42.94676" lon="0.37367">
        <ele>656.39984</ele>
        <time>2021-05-15T21:28:04.930Z</time>
      </trkpt>
      <trkpt lat="42.94703" lon="0.37387">
        <ele>656.397802</ele>
        <time>2021-05-15T21:28:11.384Z</time>
      </trkpt>
      <trkpt lat="42.9475" lon="0.37426">
        <ele>656.394032</ele>
        <time>2021-05-15T21:28:23.436Z</time>
      </trkpt>
      <trkpt lat="42.9477" lon="0.37446">
        <ele>656.392362</ele>
        <time>2021-05-15T21:28:28.707Z</time>
      </trkpt>
      <trkpt lat="42.9483" lon="0.37482">
        <ele>656.484283</ele>
        <time>2021-05-15T21:28:43.675Z</time>
      </trkpt>
      <trkpt lat="42.9492" lon="0.37515">
        <ele>656.897383</ele>
        <time>2021-05-15T21:29:07.371Z</time>
      </trkpt>
      <trkpt lat="42.94964" lon="0.37524">
        <ele>657.093622</ele>
        <time>2021-05-15T21:29:18.451Z</time>
      </trkpt>
      <trkpt lat="42.94982" lon="0.3752">
        <ele>657.173571</ele>
        <time>2021-05-15T21:29:22.303Z</time>
      </trkpt>
      <trkpt lat="42.95008" lon="0.37504">
        <ele>656.77313</ele>
        <time>2021-05-15T21:29:28.765Z</time>
      </trkpt>
      <trkpt lat="42.95035" lon="0.37487">
        <ele>656.313813</ele>
        <time>2021-05-15T21:29:34.897Z</time>
      </trkpt>
      <trkpt lat="42.95056" lon="0.37483">
        <ele>655.970118</ele>
        <time>2021-05-15T21:29:38.820Z</time>
      </trkpt>
      <trkpt lat="42.95094" lon="0.37495">
        <ele>655.349793</ele>
        <time>2021-05-15T21:29:45.805Z</time>
      </trkpt>
      <trkpt lat="42.95147" lon="0.37561">
        <ele>654.108692</ele>
        <time>2021-05-15T21:29:57.954Z</time>
      </trkpt>
      <trkpt lat="42.952" lon="0.37615">
        <ele>652.185102</ele>
        <time>2021-05-15T21:30:08.320Z</time>
      </trkpt>
      <trkpt lat="42.95219" lon="0.37632">
        <ele>651.509786</ele>
        <time>2021-05-15T21:30:11.970Z</time>
      </trkpt>
      <trkpt lat="42.95246" lon="0.37656">
        <ele>650.567319</ele>
        <time>2021-05-15T21:30:17.352Z</time>
      </trkpt>
      <trkpt lat="42.95288" lon="0.37694">
        <ele>649.087732</ele>
        <time>2021-05-15T21:30:25.960Z</time>
      </trkpt>
      <trkpt lat="42.95344" lon="0.37748">
        <ele>648.132026</ele>
        <time>2021-05-15T21:30:38.352Z</time>
      </trkpt>
      <trkpt lat="42.95377" lon="0.37773">
        <ele>647.622658</ele>
        <time>2021-05-15T21:30:46.087Z</time>
      </trkpt>
      <trkpt lat="42.95614" lon="0.37842">
        <ele>644.249292</ele>
        <time>2021-05-15T21:31:31.866Z</time>
      </trkpt>
      <trkpt lat="42.95632" lon="0.37847">
        <ele>643.935145</ele>
        <time>2021-05-15T21:31:35.017Z</time>
      </trkpt>
      <trkpt lat="42.95654" lon="0.37854">
        <ele>643.424063</ele>
        <time>2021-05-15T21:31:38.861Z</time>
      </trkpt>
      <trkpt lat="42.95685" lon="0.37862">
        <ele>642.71368</ele>
        <time>2021-05-15T21:31:44.181Z</time>
      </trkpt>
      <trkpt lat="42.95721" lon="0.37871">
        <ele>641.878793</ele>
        <time>2021-05-15T21:31:50.376Z</time>
      </trkpt>
      <trkpt lat="42.95806" lon="0.37893">
        <ele>639.954427</ele>
        <time>2021-05-15T21:32:04.995Z</time>
      </trkpt>
      <trkpt lat="42.95834" lon="0.37902">
        <ele>639.617969</ele>
        <time>2021-05-15T21:32:10.100Z</time>
      </trkpt>
      <trkpt lat="42.95871" lon="0.37903">
        <ele>639.176403</ele>
        <time>2021-05-15T21:32:17.055Z</time>
      </trkpt>
      <trkpt lat="42.95879" lon="0.37903">
        <ele>639.079313</ele>
        <time>2021-05-15T21:32:18.619Z</time>
      </trkpt>
      <trkpt lat="42.95893" lon="0.37903">
        <ele>638.919528</ele>
        <time>2021-05-15T21:32:21.211Z</time>
      </trkpt>
      <trkpt lat="42.9592" lon="0.37903">
        <ele>638.592851</ele>
        <time>2021-05-15T21:32:26.586Z</time>
      </trkpt>
      <trkpt lat="42.95927" lon="0.37902">
        <ele>638.518239</ele>
        <time>2021-05-15T21:32:27.798Z</time>
      </trkpt>
      <trkpt lat="42.95941" lon="0.37902">
        <ele>638.350113</ele>
        <time>2021-05-15T21:32:30.622Z</time>
      </trkpt>
      <trkpt lat="42.95959" lon="0.37903">
        <ele>638.139084</ele>
        <time>2021-05-15T21:32:34.204Z</time>
      </trkpt>
      <trkpt lat="42.95978" lon="0.37906">
        <ele>637.907799</ele>
        <time>2021-05-15T21:32:38.144Z</time>
      </trkpt>
      <trkpt lat="42.96007" lon="0.37914">
        <ele>637.85071</ele>
        <time>2021-05-15T21:32:44.269Z</time>
      </trkpt>
      <trkpt lat="42.96031" lon="0.37921">
        <ele>637.833307</ele>
        <time>2021-05-15T21:32:49.521Z</time>
      </trkpt>
      <trkpt lat="42.96033" lon="0.37922">
        <ele>637.832299</ele>
        <time>2021-05-15T21:32:49.822Z</time>
      </trkpt>
      <trkpt lat="42.96061" lon="0.3793">
        <ele>637.811593</ele>
        <time>2021-05-15T21:32:56.264Z</time>
      </trkpt>
      <trkpt lat="42.96073" lon="0.37931">
        <ele>637.803653</ele>
        <time>2021-05-15T21:32:58.762Z</time>
      </trkpt>
      <trkpt lat="42.96077" lon="0.37932">
        <ele>637.800687</ele>
        <time>2021-05-15T21:32:59.676Z</time>
      </trkpt>
      <trkpt lat="42.96084" lon="0.37933">
        <ele>637.795317</ele>
        <time>2021-05-15T21:33:01.360Z</time>
      </trkpt>
      <trkpt lat="42.9609" lon="0.37933">
        <ele>637.7915</ele>
        <time>2021-05-15T21:33:02.566Z</time>
      </trkpt>
      <trkpt lat="42.96099" lon="0.37934">
        <ele>637.784934</ele>
        <time>2021-05-15T21:33:04.746Z</time>
      </trkpt>
      <trkpt lat="42.96165" lon="0.37936">
        <ele>637.725339</ele>
        <time>2021-05-15T21:33:20.061Z</time>
      </trkpt>
      <trkpt lat="42.96183" lon="0.37936">
        <ele>637.674016</ele>
        <time>2021-05-15T21:33:24.212Z</time>
      </trkpt>
      <trkpt lat="42.96205" lon="0.37932">
        <ele>637.611757</ele>
        <time>2021-05-15T21:33:29.403Z</time>
      </trkpt>
      <trkpt lat="42.96212" lon="0.3793">
        <ele>637.589249</ele>
        <time>2021-05-15T21:33:31.287Z</time>
      </trkpt>
      <trkpt lat="42.96234" lon="0.37922">
        <ele>637.524653</ele>
        <time>2021-05-15T21:33:36.408Z</time>
      </trkpt>
      <trkpt lat="42.96242" lon="0.37917">
        <ele>637.499818</ele>
        <time>2021-05-15T21:33:38.479Z</time>
      </trkpt>
      <trkpt lat="42.96287" lon="0.37894">
        <ele>637.363059</ele>
        <time>2021-05-15T21:33:48.216Z</time>
      </trkpt>
      <trkpt lat="42.96301" lon="0.37886">
        <ele>637.319953</ele>
        <time>2021-05-15T21:33:51.241Z</time>
      </trkpt>
      <trkpt lat="42.96303" lon="0.37885">
        <ele>637.314116</ele>
        <time>2021-05-15T21:33:51.658Z</time>
      </trkpt>
      <trkpt lat="42.96312" lon="0.37881">
        <ele>637.286515</ele>
        <time>2021-05-15T21:33:53.672Z</time>
      </trkpt>
      <trkpt lat="42.96313" lon="0.3788">
        <ele>637.283119</ele>
        <time>2021-05-15T21:33:53.900Z</time>
      </trkpt>
      <trkpt lat="42.96313" lon="0.37888">
        <ele>637.266485</ele>
        <time>2021-05-15T21:33:54.993Z</time>
      </trkpt>
      <trkpt lat="42.9632" lon="0.3789">
        <ele>637.247431</ele>
        <time>2021-05-15T21:33:56.231Z</time>
      </trkpt>
      <trkpt lat="42.96355" lon="0.37885">
        <ele>636.699381</ele>
        <time>2021-05-15T21:34:03.291Z</time>
      </trkpt>
      <trkpt lat="42.96373" lon="0.37881">
        <ele>636.356816</ele>
        <time>2021-05-15T21:34:07.101Z</time>
      </trkpt>
      <trkpt lat="42.96393" lon="0.37877">
        <ele>635.965892</ele>
        <time>2021-05-15T21:34:10.955Z</time>
      </trkpt>
      <trkpt lat="42.96416" lon="0.37866">
        <ele>635.521762</ele>
        <time>2021-05-15T21:34:15.494Z</time>
      </trkpt>
      <trkpt lat="42.96424" lon="0.37863">
        <ele>635.355829</ele>
        <time>2021-05-15T21:34:16.987Z</time>
      </trkpt>
      <trkpt lat="42.96514" lon="0.37825">
        <ele>633.529693</ele>
        <time>2021-05-15T21:34:33.859Z</time>
      </trkpt>
      <trkpt lat="42.96545" lon="0.37805">
        <ele>632.751417</ele>
        <time>2021-05-15T21:34:39.820Z</time>
      </trkpt>
      <trkpt lat="42.96554" lon="0.37808">
        <ele>632.540586</ele>
        <time>2021-05-15T21:34:41.996Z</time>
      </trkpt>
      <trkpt lat="42.96557" lon="0.37808">
        <ele>632.462281</ele>
        <time>2021-05-15T21:34:42.553Z</time>
      </trkpt>
      <trkpt lat="42.96568" lon="0.37811">
        <ele>632.200814</ele>
        <time>2021-05-15T21:34:45.086Z</time>
      </trkpt>
      <trkpt lat="42.9658" lon="0.37808">
        <ele>631.939609</ele>
        <time>2021-05-15T21:34:47.941Z</time>
      </trkpt>
      <trkpt lat="42.96599" lon="0.37801">
        <ele>631.483511</ele>
        <time>2021-05-15T21:34:52.649Z</time>
      </trkpt>
      <trkpt lat="42.96602" lon="0.37803">
        <ele>631.415965</ele>
        <time>2021-05-15T21:34:53.287Z</time>
      </trkpt>
      <trkpt lat="42.96627" lon="0.37802">
        <ele>630.842611</ele>
        <time>2021-05-15T21:34:59.490Z</time>
      </trkpt>
      <trkpt lat="42.96629" lon="0.37804">
        <ele>630.790738</ele>
        <time>2021-05-15T21:34:59.971Z</time>
      </trkpt>
      <trkpt lat="42.9663" lon="0.37805">
        <ele>630.763022</ele>
        <time>2021-05-15T21:35:00.244Z</time>
      </trkpt>
      <trkpt lat="42.96657" lon="0.37793">
        <ele>630.120906</ele>
        <time>2021-05-15T21:35:07.091Z</time>
      </trkpt>
      <trkpt lat="42.96672" lon="0.3779">
        <ele>629.762066</ele>
        <time>2021-05-15T21:35:10.672Z</time>
      </trkpt>
      <trkpt lat="42.96674" lon="0.37796">
        <ele>629.68561</ele>
        <time>2021-05-15T21:35:11.617Z</time>
      </trkpt>
      <trkpt lat="42.96679" lon="0.37808">
        <ele>629.567359</ele>
        <time>2021-05-15T21:35:13.526Z</time>
      </trkpt>
      <trkpt lat="42.96684" lon="0.37823">
        <ele>629.428276</ele>
        <time>2021-05-15T21:35:15.630Z</time>
      </trkpt>
      <trkpt lat="42.96686" lon="0.37826">
        <ele>629.402199</ele>
        <time>2021-05-15T21:35:16.009Z</time>
      </trkpt>
      <trkpt lat="42.96689" lon="0.37825">
        <ele>629.367411</ele>
        <time>2021-05-15T21:35:16.550Z</time>
      </trkpt>
      <trkpt lat="42.96692" lon="0.37825">
        <ele>629.327551</ele>
        <time>2021-05-15T21:35:17.114Z</time>
      </trkpt>
      <trkpt lat="42.96696" lon="0.37825">
        <ele>629.279749</ele>
        <time>2021-05-15T21:35:17.903Z</time>
      </trkpt>
      <trkpt lat="42.96702" lon="0.37822">
        <ele>629.200911</ele>
        <time>2021-05-15T21:35:19.244Z</time>
      </trkpt>
      <trkpt lat="42.96739" lon="0.37798">
        <ele>628.725386</ele>
        <time>2021-05-15T21:35:27.290Z</time>
      </trkpt>
      <trkpt lat="42.96808" lon="0.37768">
        <ele>627.891684</ele>
        <time>2021-05-15T21:35:42.116Z</time>
      </trkpt>
      <trkpt lat="42.96866" lon="0.37766">
        <ele>627.474565</ele>
        <time>2021-05-15T21:35:54.337Z</time>
      </trkpt>
      <trkpt lat="42.96897" lon="0.3776">
        <ele>627.326736</ele>
        <time>2021-05-15T21:36:01.235Z</time>
      </trkpt>
      <trkpt lat="42.96917" lon="0.37758">
        <ele>627.231963</ele>
        <time>2021-05-15T21:36:05.666Z</time>
      </trkpt>
      <trkpt lat="42.96979" lon="0.37749">
        <ele>626.940106</ele>
        <time>2021-05-15T21:36:19.240Z</time>
      </trkpt>
      <trkpt lat="42.97004" lon="0.3775">
        <ele>626.825156</ele>
        <time>2021-05-15T21:36:24.704Z</time>
      </trkpt>
      <trkpt lat="42.97009" lon="0.37751">
        <ele>626.798362</ele>
        <time>2021-05-15T21:36:25.775Z</time>
      </trkpt>
      <trkpt lat="42.97045" lon="0.37759">
        <ele>626.435033</ele>
        <time>2021-05-15T21:36:33.879Z</time>
      </trkpt>
      <trkpt lat="42.97157" lon="0.37807">
        <ele>625.245906</ele>
        <time>2021-05-15T21:36:57.297Z</time>
      </trkpt>
      <trkpt lat="42.97182" lon="0.37821">
        <ele>624.967472</ele>
        <time>2021-05-15T21:37:02.680Z</time>
      </trkpt>
      <trkpt lat="42.97192" lon="0.37811">
        <ele>624.784539</ele>
        <time>2021-05-15T21:37:04.785Z</time>
      </trkpt>
      <trkpt lat="42.97197" lon="0.37805">
        <ele>624.680697</ele>
        <time>2021-05-15T21:37:05.986Z</time>
      </trkpt>
      <trkpt lat="42.97239" lon="0.37737">
        <ele>623.709772</ele>
        <time>2021-05-15T21:37:17.949Z</time>
      </trkpt>
      <trkpt lat="42.97263" lon="0.37726">
        <ele>623.332298</ele>
        <time>2021-05-15T21:37:22.673Z</time>
      </trkpt>
      <trkpt lat="42.97265" lon="0.37724">
        <ele>623.295456</ele>
        <time>2021-05-15T21:37:23.091Z</time>
      </trkpt>
      <trkpt lat="42.97282" lon="0.37713">
        <ele>623.014617</ele>
        <time>2021-05-15T21:37:26.218Z</time>
      </trkpt>
      <trkpt lat="42.97345" lon="0.37689">
        <ele>622.198669</ele>
        <time>2021-05-15T21:37:38.280Z</time>
      </trkpt>
      <trkpt lat="42.97367" lon="0.37685">
        <ele>622.075787</ele>
        <time>2021-05-15T21:37:42.689Z</time>
      </trkpt>
      <trkpt lat="42.97409" lon="0.37689">
        <ele>621.847162</ele>
        <time>2021-05-15T21:37:51.264Z</time>
      </trkpt>
      <trkpt lat="42.97417" lon="0.37685">
        <ele>621.800983</ele>
        <time>2021-05-15T21:37:52.935Z</time>
      </trkpt>
      <trkpt lat="42.97421" lon="0.37675">
        <ele>621.752711</ele>
        <time>2021-05-15T21:37:54.649Z</time>
      </trkpt>
      <trkpt lat="42.97435" lon="0.37635">
        <ele>621.574716</ele>
        <time>2021-05-15T21:38:01.777Z</time>
      </trkpt>
      <trkpt lat="42.97445" lon="0.37622">
        <ele>621.504153</ele>
        <time>2021-05-15T21:38:04.493Z</time>
      </trkpt>
      <trkpt lat="42.97451" lon="0.37613">
        <ele>621.452645</ele>
        <time>2021-05-15T21:38:06.850Z</time>
      </trkpt>
      <trkpt lat="42.97456" lon="0.37608">
        <ele>621.421303</ele>
        <time>2021-05-15T21:38:08.208Z</time>
      </trkpt>
      <trkpt lat="42.97479" lon="0.37609">
        <ele>621.301797</ele>
        <time>2021-05-15T21:38:13.183Z</time>
      </trkpt>
      <trkpt lat="42.97497" lon="0.3761">
        <ele>621.271732</ele>
        <time>2021-05-15T21:38:17.127Z</time>
      </trkpt>
      <trkpt lat="42.97517" lon="0.3761">
        <ele>621.238641</ele>
        <time>2021-05-15T21:38:21.328Z</time>
      </trkpt>
      <trkpt lat="42.97577" lon="0.37612">
        <ele>621.136784</ele>
        <time>2021-05-15T21:38:34.780Z</time>
      </trkpt>
      <trkpt lat="42.97614" lon="0.37613">
        <ele>621.074815</ele>
        <time>2021-05-15T21:38:43.270Z</time>
      </trkpt>
      <trkpt lat="42.97653" lon="0.37614">
        <ele>621.009301</ele>
        <time>2021-05-15T21:38:51.205Z</time>
      </trkpt>
      <trkpt lat="42.97724" lon="0.37612">
        <ele>620.502189</ele>
        <time>2021-05-15T21:39:05.469Z</time>
      </trkpt>
      <trkpt lat="42.97762" lon="0.37598">
        <ele>620.21638</ele>
        <time>2021-05-15T21:39:13.149Z</time>
      </trkpt>
      <trkpt lat="42.97823" lon="0.37567">
        <ele>619.73568</ele>
        <time>2021-05-15T21:39:26.142Z</time>
      </trkpt>
      <trkpt lat="42.97965" lon="0.37499">
        <ele>618.044097</ele>
        <time>2021-05-15T21:39:54.968Z</time>
      </trkpt>
      <trkpt lat="42.9802" lon="0.3748">
        <ele>617.352873</ele>
        <time>2021-05-15T21:40:05.231Z</time>
      </trkpt>
      <trkpt lat="42.9805" lon="0.37489">
        <ele>616.951454</ele>
        <time>2021-05-15T21:40:10.807Z</time>
      </trkpt>
      <trkpt lat="42.98128" lon="0.37524">
        <ele>615.873234</ele>
        <time>2021-05-15T21:40:26.000Z</time>
      </trkpt>
      <trkpt lat="42.98139" lon="0.37529">
        <ele>615.723046</ele>
        <time>2021-05-15T21:40:28.201Z</time>
      </trkpt>
      <trkpt lat="42.98152" lon="0.37535">
        <ele>615.553994</ele>
        <time>2021-05-15T21:40:30.701Z</time>
      </trkpt>
      <trkpt lat="42.98158" lon="0.37537">
        <ele>615.471822</ele>
        <time>2021-05-15T21:40:31.869Z</time>
      </trkpt>
      <trkpt lat="42.98213" lon="0.37556">
        <ele>615.306565</ele>
        <time>2021-05-15T21:40:43.237Z</time>
      </trkpt>
      <trkpt lat="42.98423" lon="0.37579">
        <ele>615.700114</ele>
        <time>2021-05-15T21:41:34.188Z</time>
      </trkpt>
      <trkpt lat="42.98567" lon="0.37602">
        <ele>615.947158</ele>
        <time>2021-05-15T21:42:07.677Z</time>
      </trkpt>
      <trkpt lat="42.98631" lon="0.37588">
        <ele>615.743988</ele>
        <time>2021-05-15T21:42:21.923Z</time>
      </trkpt>
      <trkpt lat="42.98724" lon="0.3755">
        <ele>615.106069</ele>
        <time>2021-05-15T21:42:41.613Z</time>
      </trkpt>
      <trkpt lat="42.98783" lon="0.37522">
        <ele>613.841415</ele>
        <time>2021-05-15T21:42:52.931Z</time>
      </trkpt>
      <trkpt lat="42.98834" lon="0.37498">
        <ele>612.737353</ele>
        <time>2021-05-15T21:43:02.194Z</time>
      </trkpt>
      <trkpt lat="42.98874" lon="0.37487">
        <ele>611.90021</ele>
        <time>2021-05-15T21:43:08.990Z</time>
      </trkpt>
      <trkpt lat="42.99034" lon="0.37476">
        <ele>606.751287</ele>
        <time>2021-05-15T21:43:34.696Z</time>
      </trkpt>
      <trkpt lat="42.99203" lon="0.37482">
        <ele>602.487512</ele>
        <time>2021-05-15T21:44:03.080Z</time>
      </trkpt>
      <trkpt lat="42.99245" lon="0.37479">
        <ele>601.55497</ele>
        <time>2021-05-15T21:44:10.628Z</time>
      </trkpt>
      <trkpt lat="42.99355" lon="0.37467">
        <ele>600.228862</ele>
        <time>2021-05-15T21:44:31.131Z</time>
      </trkpt>
      <trkpt lat="42.99368" lon="0.3746">
        <ele>600.057276</ele>
        <time>2021-05-15T21:44:33.884Z</time>
      </trkpt>
      <trkpt lat="42.99387" lon="0.3745">
        <ele>599.819294</ele>
        <time>2021-05-15T21:44:37.880Z</time>
      </trkpt>
      <trkpt lat="42.99401" lon="0.3744">
        <ele>599.627293</ele>
        <time>2021-05-15T21:44:41.028Z</time>
      </trkpt>
      <trkpt lat="42.99434" lon="0.37414">
        <ele>599.503489</ele>
        <time>2021-05-15T21:44:49.039Z</time>
      </trkpt>
      <trkpt lat="42.99458" lon="0.37396">
        <ele>599.518328</ele>
        <time>2021-05-15T21:44:54.892Z</time>
      </trkpt>
      <trkpt lat="42.9947" lon="0.37386">
        <ele>599.525598</ele>
        <time>2021-05-15T21:44:57.997Z</time>
      </trkpt>
      <trkpt lat="42.99531" lon="0.37298">
        <ele>599.57335</ele>
        <time>2021-05-15T21:45:18.334Z</time>
      </trkpt>
      <trkpt lat="42.99539" lon="0.37289">
        <ele>599.579177</ele>
        <time>2021-05-15T21:45:21.063Z</time>
      </trkpt>
      <trkpt lat="42.99547" lon="0.37282">
        <ele>599.584244</ele>
        <time>2021-05-15T21:45:23.424Z</time>
      </trkpt>
      <trkpt lat="42.99581" lon="0.37268">
        <ele>599.784188</ele>
        <time>2021-05-15T21:45:32.098Z</time>
      </trkpt>
      <trkpt lat="42.99599" lon="0.37271">
        <ele>599.893604</ele>
        <time>2021-05-15T21:45:36.318Z</time>
      </trkpt>
      <trkpt lat="42.99667" lon="0.37299">
        <ele>600.328035</ele>
        <time>2021-05-15T21:45:55.002Z</time>
      </trkpt>
      <trkpt lat="42.99745" lon="0.37355">
        <ele>600.405757</ele>
        <time>2021-05-15T21:46:16.216Z</time>
      </trkpt>
      <trkpt lat="42.9976" lon="0.3736">
        <ele>600.260077</ele>
        <time>2021-05-15T21:46:19.916Z</time>
      </trkpt>
      <trkpt lat="42.99806" lon="0.3737">
        <ele>599.825189</ele>
        <time>2021-05-15T21:46:28.961Z</time>
      </trkpt>
      <trkpt lat="42.99852" lon="0.37384">
        <ele>599.372356</ele>
        <time>2021-05-15T21:46:37.403Z</time>
      </trkpt>
      <trkpt lat="42.99912" lon="0.37422">
        <ele>598.537461</ele>
        <time>2021-05-15T21:46:49.249Z</time>
      </trkpt>
      <trkpt lat="42.99973" lon="0.37465">
        <ele>597.27874</ele>
        <time>2021-05-15T21:47:01.367Z</time>
      </trkpt>
      <trkpt lat="42.99979" lon="0.37469">
        <ele>597.159816</ele>
        <time>2021-05-15T21:47:02.839Z</time>
      </trkpt>
      <trkpt lat="42.99992" lon="0.3748">
        <ele>596.88741</ele>
        <time>2021-05-15T21:47:05.488Z</time>
      </trkpt>
      <trkpt lat="43.00081" lon="0.3757">
        <ele>595.03453</ele>
        <time>2021-05-15T21:47:25.258Z</time>
      </trkpt>
      <trkpt lat="43.0008" lon="0.37575">
        <ele>594.987895</ele>
        <time>2021-05-15T21:47:25.748Z</time>
      </trkpt>
      <trkpt lat="43.00132" lon="0.37655">
        <ele>593.846799</ele>
        <time>2021-05-15T21:47:41.004Z</time>
      </trkpt>
      <trkpt lat="43.00133" lon="0.37661">
        <ele>593.783303</ele>
        <time>2021-05-15T21:47:41.777Z</time>
      </trkpt>
      <trkpt lat="43.00117" lon="0.37703">
        <ele>593.280701</ele>
        <time>2021-05-15T21:47:48.107Z</time>
      </trkpt>
      <trkpt lat="43.00114" lon="0.37713">
        <ele>593.158424</ele>
        <time>2021-05-15T21:47:49.667Z</time>
      </trkpt>
      <trkpt lat="43.00113" lon="0.3772">
        <ele>593.084096</ele>
        <time>2021-05-15T21:47:50.529Z</time>
      </trkpt>
      <trkpt lat="43.00114" lon="0.37725">
        <ele>593.04422</ele>
        <time>2021-05-15T21:47:51.115Z</time>
      </trkpt>
      <trkpt lat="43.0018" lon="0.37806">
        <ele>592.072725</ele>
        <time>2021-05-15T21:48:07.557Z</time>
      </trkpt>
      <trkpt lat="43.00215" lon="0.37839">
        <ele>591.613837</ele>
        <time>2021-05-15T21:48:15.574Z</time>
      </trkpt>
      <trkpt lat="43.00226" lon="0.37847">
        <ele>591.478353</ele>
        <time>2021-05-15T21:48:17.714Z</time>
      </trkpt>
      <trkpt lat="43.00235" lon="0.37853">
        <ele>591.370463</ele>
        <time>2021-05-15T21:48:20.151Z</time>
      </trkpt>
      <trkpt lat="43.00247" lon="0.37866">
        <ele>591.204741</ele>
        <time>2021-05-15T21:48:23.430Z</time>
      </trkpt>
      <trkpt lat="43.00275" lon="0.37918">
        <ele>591.538289</ele>
        <time>2021-05-15T21:48:33.885Z</time>
      </trkpt>
      <trkpt lat="43.00285" lon="0.37926">
        <ele>591.656229</ele>
        <time>2021-05-15T21:48:36.841Z</time>
      </trkpt>
      <trkpt lat="43.00297" lon="0.37927">
        <ele>591.769771</ele>
        <time>2021-05-15T21:48:39.287Z</time>
      </trkpt>
      <trkpt lat="43.00335" lon="0.37912">
        <ele>592.170892</ele>
        <time>2021-05-15T21:48:50.367Z</time>
      </trkpt>
      <trkpt lat="43.00379" lon="0.37909">
        <ele>592.613983</ele>
        <time>2021-05-15T21:49:03.673Z</time>
      </trkpt>
      <trkpt lat="43.00429" lon="0.3792">
        <ele>593.085663</ele>
        <time>2021-05-15T21:49:18.764Z</time>
      </trkpt>
      <trkpt lat="43.00434" lon="0.37926">
        <ele>593.132532</ele>
        <time>2021-05-15T21:49:20.372Z</time>
      </trkpt>
      <trkpt lat="43.00437" lon="0.37932">
        <ele>593.175349</ele>
        <time>2021-05-15T21:49:21.908Z</time>
      </trkpt>
      <trkpt lat="43.00439" lon="0.37939">
        <ele>593.215335</ele>
        <time>2021-05-15T21:49:23.286Z</time>
      </trkpt>
      <trkpt lat="43.00444" lon="0.37984">
        <ele>593.470116</ele>
        <time>2021-05-15T21:49:32.675Z</time>
      </trkpt>
      <trkpt lat="43.00448" lon="0.38003">
        <ele>593.580685</ele>
        <time>2021-05-15T21:49:36.763Z</time>
      </trkpt>
      <trkpt lat="43.00464" lon="0.38019">
        <ele>593.735237</ele>
        <time>2021-05-15T21:49:41.539Z</time>
      </trkpt>
      <trkpt lat="43.00478" lon="0.38021">
        <ele>593.838185</ele>
        <time>2021-05-15T21:49:44.918Z</time>
      </trkpt>
      <trkpt lat="43.00581" lon="0.38003">
        <ele>593.912168</ele>
        <time>2021-05-15T21:50:08.204Z</time>
      </trkpt>
      <trkpt lat="43.00635" lon="0.38001">
        <ele>593.378481</ele>
        <time>2021-05-15T21:50:17.835Z</time>
      </trkpt>
      <trkpt lat="43.0069" lon="0.37999">
        <ele>592.825871</ele>
        <time>2021-05-15T21:50:28.011Z</time>
      </trkpt>
      <trkpt lat="43.00724" lon="0.37992">
        <ele>592.519708</ele>
        <time>2021-05-15T21:50:34.344Z</time>
      </trkpt>
      <trkpt lat="43.00919" lon="0.37927">
        <ele>592.419431</ele>
        <time>2021-05-15T21:51:17.601Z</time>
      </trkpt>
      <trkpt lat="43.00994" lon="0.37869">
        <ele>593.524194</ele>
        <time>2021-05-15T21:51:40.725Z</time>
      </trkpt>
      <trkpt lat="43.01073" lon="0.37831">
        <ele>594.745505</ele>
        <time>2021-05-15T21:52:06.622Z</time>
      </trkpt>
      <trkpt lat="43.01097" lon="0.37829">
        <ele>595.260184</ele>
        <time>2021-05-15T21:52:14.237Z</time>
      </trkpt>
      <trkpt lat="43.01154" lon="0.37839">
        <ele>596.502187</ele>
        <time>2021-05-15T21:52:32.747Z</time>
      </trkpt>
      <trkpt lat="43.01202" lon="0.37833">
        <ele>597.531352</ele>
        <time>2021-05-15T21:52:47.858Z</time>
      </trkpt>
      <trkpt lat="43.01289" lon="0.3788">
        <ele>599.032853</ele>
        <time>2021-05-15T21:53:14.654Z</time>
      </trkpt>
      <trkpt lat="43.01306" lon="0.37884">
        <ele>599.247177</ele>
        <time>2021-05-15T21:53:19.471Z</time>
      </trkpt>
      <trkpt lat="43.01345" lon="0.37882">
        <ele>599.73597</ele>
        <time>2021-05-15T21:53:29.544Z</time>
      </trkpt>
      <trkpt lat="43.01366" lon="0.37875">
        <ele>600.021779</ele>
        <time>2021-05-15T21:53:35.072Z</time>
      </trkpt>
      <trkpt lat="43.01387" lon="0.37857">
        <ele>600.327557</ele>
        <time>2021-05-15T21:53:41.747Z</time>
      </trkpt>
      <trkpt lat="43.01388" lon="0.37855">
        <ele>600.353207</ele>
        <time>2021-05-15T21:53:42.031Z</time>
      </trkpt>
      <trkpt lat="43.01423" lon="0.3782">
        <ele>601.110504</ele>
        <time>2021-05-15T21:53:53.838Z</time>
      </trkpt>
      <trkpt lat="43.01441" lon="0.37808">
        <ele>601.530152</ele>
        <time>2021-05-15T21:53:59.889Z</time>
      </trkpt>
      <trkpt lat="43.01461" lon="0.37807">
        <ele>601.940497</ele>
        <time>2021-05-15T21:54:05.285Z</time>
      </trkpt>
      <trkpt lat="43.01515" lon="0.37831">
        <ele>603.096453</ele>
        <time>2021-05-15T21:54:21.964Z</time>
      </trkpt>
      <trkpt lat="43.01622" lon="0.37914">
        <ele>606.71003</ele>
        <time>2021-05-15T21:55:04.873Z</time>
      </trkpt>
      <trkpt lat="43.01626" lon="0.37915">
        <ele>606.881709</ele>
        <time>2021-05-15T21:55:07.257Z</time>
      </trkpt>
      <trkpt lat="43.01646" lon="0.37923">
        <ele>607.636951</ele>
        <time>2021-05-15T21:55:14.536Z</time>
      </trkpt>
      <trkpt lat="43.01655" lon="0.37929">
        <ele>608.007928</ele>
        <time>2021-05-15T21:55:18.131Z</time>
      </trkpt>
      <trkpt lat="43.0166" lon="0.37931">
        <ele>608.18877</ele>
        <time>2021-05-15T21:55:20.815Z</time>
      </trkpt>
      <trkpt lat="43.0179" lon="0.3809">
        <ele>614.468206</ele>
        <time>2021-05-15T21:56:26.823Z</time>
      </trkpt>
      <trkpt lat="43.01802" lon="0.38105">
        <ele>615.041732</ele>
        <time>2021-05-15T21:56:32.874Z</time>
      </trkpt>
      <trkpt lat="43.01828" lon="0.38128">
        <ele>616.135098</ele>
        <time>2021-05-15T21:56:43.814Z</time>
      </trkpt>
      <trkpt lat="43.01845" lon="0.38132">
        <ele>616.726087</ele>
        <time>2021-05-15T21:56:49.567Z</time>
      </trkpt>
      <trkpt lat="43.01891" lon="0.38122">
        <ele>617.657396</ele>
        <time>2021-05-15T21:57:05.565Z</time>
      </trkpt>
      <trkpt lat="43.01946" lon="0.38091">
        <ele>618.414055</ele>
        <time>2021-05-15T21:57:23.007Z</time>
      </trkpt>
      <trkpt lat="43.01963" lon="0.38089">
        <ele>618.634907</ele>
        <time>2021-05-15T21:57:27.216Z</time>
      </trkpt>
      <trkpt lat="43.02052" lon="0.38109">
        <ele>619.51633</ele>
        <time>2021-05-15T21:57:47.739Z</time>
      </trkpt>
      <trkpt lat="43.02063" lon="0.38113">
        <ele>619.497672</ele>
        <time>2021-05-15T21:57:51.865Z</time>
      </trkpt>
      <trkpt lat="43.02072" lon="0.38112">
        <ele>619.484217</ele>
        <time>2021-05-15T21:57:53.088Z</time>
      </trkpt>
      <trkpt lat="43.02106" lon="0.38074">
        <ele>619.414787</ele>
        <time>2021-05-15T21:58:02.078Z</time>
      </trkpt>
      <trkpt lat="43.02116" lon="0.38071">
        <ele>619.397706</ele>
        <time>2021-05-15T21:58:04.662Z</time>
      </trkpt>
      <trkpt lat="43.02335" lon="0.38095">
        <ele>620.343556</ele>
        <time>2021-05-15T21:58:53.001Z</time>
      </trkpt>
      <trkpt lat="43.02382" lon="0.38087">
        <ele>620.779154</ele>
        <time>2021-05-15T21:59:08.152Z</time>
      </trkpt>
      <trkpt lat="43.02435" lon="0.38064">
        <ele>623.626161</ele>
        <time>2021-05-15T21:59:27.549Z</time>
      </trkpt>
      <trkpt lat="43.02477" lon="0.38058">
        <ele>625.785468</ele>
        <time>2021-05-15T21:59:47.127Z</time>
      </trkpt>
      <trkpt lat="43.02539" lon="0.38068">
        <ele>628.989068</ele>
        <time>2021-05-15T22:00:18.160Z</time>
      </trkpt>
      <trkpt lat="43.02599" lon="0.38085">
        <ele>631.849548</ele>
        <time>2021-05-15T22:00:45.637Z</time>
      </trkpt>
      <trkpt lat="43.02602" lon="0.38088">
        <ele>632.041027</ele>
        <time>2021-05-15T22:00:48.891Z</time>
      </trkpt>
      <trkpt lat="43.02613" lon="0.38096">
        <ele>632.596416</ele>
        <time>2021-05-15T22:00:55.286Z</time>
      </trkpt>
      <trkpt lat="43.02685" lon="0.38186">
        <ele>636.981823</ele>
        <time>2021-05-15T22:01:35.571Z</time>
      </trkpt>
      <trkpt lat="43.02759" lon="0.38307">
        <ele>636.574747</ele>
        <time>2021-05-15T22:02:02.158Z</time>
      </trkpt>
      <trkpt lat="43.02788" lon="0.38409">
        <ele>635.253857</ele>
        <time>2021-05-15T22:02:14.861Z</time>
      </trkpt>
      <trkpt lat="43.02825" lon="0.38472">
        <ele>632.376808</ele>
        <time>2021-05-15T22:02:23.881Z</time>
      </trkpt>
      <trkpt lat="43.02839" lon="0.38483">
        <ele>631.548185</ele>
        <time>2021-05-15T22:02:26.163Z</time>
      </trkpt>
      <trkpt lat="43.02886" lon="0.38479">
        <ele>629.048022</ele>
        <time>2021-05-15T22:02:33.171Z</time>
      </trkpt>
      <trkpt lat="43.02908" lon="0.38491">
        <ele>627.751566</ele>
        <time>2021-05-15T22:02:36.620Z</time>
      </trkpt>
      <trkpt lat="43.02929" lon="0.38513">
        <ele>626.34974</ele>
        <time>2021-05-15T22:02:40.613Z</time>
      </trkpt>
      <trkpt lat="43.02964" lon="0.38576">
        <ele>623.574551</ele>
        <time>2021-05-15T22:02:49.054Z</time>
      </trkpt>
      <trkpt lat="43.02972" lon="0.386">
        <ele>622.686334</ele>
        <time>2021-05-15T22:02:52.061Z</time>
      </trkpt>
      <trkpt lat="43.02982" lon="0.38557">
        <ele>621.171112</ele>
        <time>2021-05-15T22:02:57.536Z</time>
      </trkpt>
      <trkpt lat="43.02983" lon="0.38554">
        <ele>621.062711</ele>
        <time>2021-05-15T22:02:57.866Z</time>
      </trkpt>
      <trkpt lat="43.02985" lon="0.38552">
        <ele>620.948875</ele>
        <time>2021-05-15T22:02:58.197Z</time>
      </trkpt>
      <trkpt lat="43.02995" lon="0.38555">
        <ele>620.511989</ele>
        <time>2021-05-15T22:02:59.802Z</time>
      </trkpt>
      <trkpt lat="43.03009" lon="0.38576">
        <ele>619.557815</ele>
        <time>2021-05-15T22:03:03.628Z</time>
      </trkpt>
      <trkpt lat="43.03033" lon="0.3863">
        <ele>617.458085</ele>
        <time>2021-05-15T22:03:11.017Z</time>
      </trkpt>
      <trkpt lat="43.03036" lon="0.3868">
        <ele>617.156548</ele>
        <time>2021-05-15T22:03:17.403Z</time>
      </trkpt>
      <trkpt lat="43.0303" lon="0.38732">
        <ele>617.026541</ele>
        <time>2021-05-15T22:03:24.712Z</time>
      </trkpt>
      <trkpt lat="43.03065" lon="0.38831">
        <ele>616.754354</ele>
        <time>2021-05-15T22:03:46.488Z</time>
      </trkpt>
      <trkpt lat="43.0307" lon="0.38874">
        <ele>616.750632</ele>
        <time>2021-05-15T22:03:56.210Z</time>
      </trkpt>
      <trkpt lat="43.03075" lon="0.38888">
        <ele>616.996387</ele>
        <time>2021-05-15T22:03:59.025Z</time>
      </trkpt>
      <trkpt lat="43.03081" lon="0.38897">
        <ele>617.195422</ele>
        <time>2021-05-15T22:04:02.426Z</time>
      </trkpt>
      <trkpt lat="43.0308" lon="0.38906">
        <ele>617.354285</ele>
        <time>2021-05-15T22:04:04.914Z</time>
      </trkpt>
      <trkpt lat="43.03108" lon="0.39005">
        <ele>619.079486</ele>
        <time>2021-05-15T22:04:28.538Z</time>
      </trkpt>
      <trkpt lat="43.03167" lon="0.39118">
        <ele>621.676557</ele>
        <time>2021-05-15T22:05:01.118Z</time>
      </trkpt>
      <trkpt lat="43.03174" lon="0.39147">
        <ele>622.436833</ele>
        <time>2021-05-15T22:05:09.421Z</time>
      </trkpt>
      <trkpt lat="43.03186" lon="0.39257">
        <ele>625.134294</ele>
        <time>2021-05-15T22:05:39.509Z</time>
      </trkpt>
      <trkpt lat="43.03197" lon="0.39295">
        <ele>626.135973</ele>
        <time>2021-05-15T22:05:51.260Z</time>
      </trkpt>
      <trkpt lat="43.03205" lon="0.39334">
        <ele>626.737132</ele>
        <time>2021-05-15T22:06:03.519Z</time>
      </trkpt>
      <trkpt lat="43.03244" lon="0.39512">
        <ele>627.201846</ele>
        <time>2021-05-15T22:06:40.133Z</time>
      </trkpt>
      <trkpt lat="43.0325" lon="0.39534">
        <ele>627.262068</ele>
        <time>2021-05-15T22:06:43.488Z</time>
      </trkpt>
      <trkpt lat="43.03255" lon="0.39562">
        <ele>626.680336</ele>
        <time>2021-05-15T22:06:46.656Z</time>
      </trkpt>
      <trkpt lat="43.03257" lon="0.39573">
        <ele>625.887094</ele>
        <time>2021-05-15T22:06:47.963Z</time>
      </trkpt>
      <trkpt lat="43.03269" lon="0.39648">
        <ele>620.840188</ele>
        <time>2021-05-15T22:06:55.909Z</time>
      </trkpt>
      <trkpt lat="43.0327" lon="0.39649">
        <ele>620.660218</ele>
        <time>2021-05-15T22:06:56.166Z</time>
      </trkpt>
      <trkpt lat="43.03292" lon="0.39719">
        <ele>615.659542</ele>
        <time>2021-05-15T22:07:04.057Z</time>
      </trkpt>
      <trkpt lat="43.03306" lon="0.3976">
        <ele>612.631707</ele>
        <time>2021-05-15T22:07:08.675Z</time>
      </trkpt>
      <trkpt lat="43.03337" lon="0.39822">
        <ele>606.565117</ele>
        <time>2021-05-15T22:07:16.244Z</time>
      </trkpt>
      <trkpt lat="43.03385" lon="0.39946">
        <ele>594.304358</ele>
        <time>2021-05-15T22:07:30.488Z</time>
      </trkpt>
      <trkpt lat="43.03399" lon="0.39991">
        <ele>590.014562</ele>
        <time>2021-05-15T22:07:35.556Z</time>
      </trkpt>
      <trkpt lat="43.03404" lon="0.4">
        <ele>589.172173</ele>
        <time>2021-05-15T22:07:36.696Z</time>
      </trkpt>
      <trkpt lat="43.03407" lon="0.40007">
        <ele>588.74924</ele>
        <time>2021-05-15T22:07:37.432Z</time>
      </trkpt>
      <trkpt lat="43.0342" lon="0.40044">
        <ele>586.35621</ele>
        <time>2021-05-15T22:07:41.644Z</time>
      </trkpt>
      <trkpt lat="43.03424" lon="0.40051">
        <ele>585.900963</ele>
        <time>2021-05-15T22:07:42.455Z</time>
      </trkpt>
      <trkpt lat="43.03427" lon="0.40058">
        <ele>585.427848</ele>
        <time>2021-05-15T22:07:43.328Z</time>
      </trkpt>
      <trkpt lat="43.03444" lon="0.4008">
        <ele>583.601187</ele>
        <time>2021-05-15T22:07:46.543Z</time>
      </trkpt>
      <trkpt lat="43.03455" lon="0.40093">
        <ele>582.493353</ele>
        <time>2021-05-15T22:07:48.577Z</time>
      </trkpt>
      <trkpt lat="43.03456" lon="0.40095">
        <ele>582.362958</ele>
        <time>2021-05-15T22:07:48.825Z</time>
      </trkpt>
      <trkpt lat="43.0346" lon="0.401">
        <ele>581.91992</ele>
        <time>2021-05-15T22:07:49.615Z</time>
      </trkpt>
      <trkpt lat="43.03465" lon="0.40109">
        <ele>581.269939</ele>
        <time>2021-05-15T22:07:50.730Z</time>
      </trkpt>
      <trkpt lat="43.03485" lon="0.40156">
        <ele>578.215677</ele>
        <time>2021-05-15T22:07:56.365Z</time>
      </trkpt>
      <trkpt lat="43.03495" lon="0.40182">
        <ele>576.527944</ele>
        <time>2021-05-15T22:07:59.860Z</time>
      </trkpt>
      <trkpt lat="43.03502" lon="0.40189">
        <ele>575.862853</ele>
        <time>2021-05-15T22:08:01.099Z</time>
      </trkpt>
      <trkpt lat="43.03585" lon="0.40214">
        <ele>573.174003</ele>
        <time>2021-05-15T22:08:15.173Z</time>
      </trkpt>
      <trkpt lat="43.03665" lon="0.40255">
        <ele>570.733572</ele>
        <time>2021-05-15T22:08:30.788Z</time>
      </trkpt>
      <trkpt lat="43.03702" lon="0.40257">
        <ele>570.096999</ele>
        <time>2021-05-15T22:08:38.890Z</time>
      </trkpt>
      <trkpt lat="43.03759" lon="0.40239">
        <ele>569.501348</ele>
        <time>2021-05-15T22:08:51.707Z</time>
      </trkpt>
      <trkpt lat="43.03795" lon="0.40235">
        <ele>569.144461</ele>
        <time>2021-05-15T22:08:59.166Z</time>
      </trkpt>
      <trkpt lat="43.03804" lon="0.40222">
        <ele>569.008058</ele>
        <time>2021-05-15T22:09:01.944Z</time>
      </trkpt>
      <trkpt lat="43.03818" lon="0.40223">
        <ele>568.870934</ele>
        <time>2021-05-15T22:09:04.447Z</time>
      </trkpt>
      <trkpt lat="43.03841" lon="0.40215">
        <ele>568.632353</ele>
        <time>2021-05-15T22:09:09.068Z</time>
      </trkpt>
      <trkpt lat="43.03895" lon="0.40172">
        <ele>566.680918</ele>
        <time>2021-05-15T22:09:20.208Z</time>
      </trkpt>
      <trkpt lat="43.03957" lon="0.40138">
        <ele>564.286674</ele>
        <time>2021-05-15T22:09:30.583Z</time>
      </trkpt>
      <trkpt lat="43.03989" lon="0.40135">
        <ele>563.128741</ele>
        <time>2021-05-15T22:09:35.420Z</time>
      </trkpt>
      <trkpt lat="43.04054" lon="0.4014">
        <ele>560.583612</ele>
        <time>2021-05-15T22:09:45.395Z</time>
      </trkpt>
      <trkpt lat="43.04086" lon="0.40145">
        <ele>559.259494</ele>
        <time>2021-05-15T22:09:50.348Z</time>
      </trkpt>
      <trkpt lat="43.0411" lon="0.4015">
        <ele>558.265301</ele>
        <time>2021-05-15T22:09:54.072Z</time>
      </trkpt>
      <trkpt lat="43.04154" lon="0.40165">
        <ele>556.438585</ele>
        <time>2021-05-15T22:10:01.074Z</time>
      </trkpt>
      <trkpt lat="43.04209" lon="0.40165">
        <ele>554.518141</ele>
        <time>2021-05-15T22:10:09.955Z</time>
      </trkpt>
      <trkpt lat="43.04248" lon="0.40148">
        <ele>554.032673</ele>
        <time>2021-05-15T22:10:16.839Z</time>
      </trkpt>
      <trkpt lat="43.04275" lon="0.40116">
        <ele>553.611652</ele>
        <time>2021-05-15T22:10:23.565Z</time>
      </trkpt>
      <trkpt lat="43.04279" lon="0.40112">
        <ele>553.555007</ele>
        <time>2021-05-15T22:10:24.570Z</time>
      </trkpt>
      <trkpt lat="43.04285" lon="0.40105">
        <ele>553.457115</ele>
        <time>2021-05-15T22:10:26.182Z</time>
      </trkpt>
      <trkpt lat="43.04317" lon="0.40081">
        <ele>553.02493</ele>
        <time>2021-05-15T22:10:34.042Z</time>
      </trkpt>
      <trkpt lat="43.04347" lon="0.40068">
        <ele>552.654413</ele>
        <time>2021-05-15T22:10:41.327Z</time>
      </trkpt>
      <trkpt lat="43.04354" lon="0.40069">
        <ele>552.571691</ele>
        <time>2021-05-15T22:10:42.835Z</time>
      </trkpt>
      <trkpt lat="43.04381" lon="0.40083">
        <ele>552.545059</ele>
        <time>2021-05-15T22:10:50.137Z</time>
      </trkpt>
      <trkpt lat="43.04401" lon="0.40094">
        <ele>552.555145</ele>
        <time>2021-05-15T22:10:55.440Z</time>
      </trkpt>
      <trkpt lat="43.0441" lon="0.40105">
        <ele>552.561202</ele>
        <time>2021-05-15T22:10:58.290Z</time>
      </trkpt>
      <trkpt lat="43.04419" lon="0.40119">
        <ele>552.56751</ele>
        <time>2021-05-15T22:11:01.188Z</time>
      </trkpt>
      <trkpt lat="43.04477" lon="0.40157">
        <ele>552.598835</ele>
        <time>2021-05-15T22:11:15.582Z</time>
      </trkpt>
      <trkpt lat="43.04494" lon="0.40171">
        <ele>552.608302</ele>
        <time>2021-05-15T22:11:19.768Z</time>
      </trkpt>
      <trkpt lat="43.04496" lon="0.40175">
        <ele>552.610047</ele>
        <time>2021-05-15T22:11:20.372Z</time>
      </trkpt>
      <trkpt lat="43.045" lon="0.4019">
        <ele>552.61562</ele>
        <time>2021-05-15T22:11:23.318Z</time>
      </trkpt>
      <trkpt lat="43.04525" lon="0.40228">
        <ele>552.20058</ele>
        <time>2021-05-15T22:11:31.437Z</time>
      </trkpt>
      <trkpt lat="43.04534" lon="0.40241">
        <ele>552.016568</ele>
        <time>2021-05-15T22:11:34.238Z</time>
      </trkpt>
      <trkpt lat="43.0456" lon="0.40282">
        <ele>551.457922</ele>
        <time>2021-05-15T22:11:42.043Z</time>
      </trkpt>
      <trkpt lat="43.04562" lon="0.40286">
        <ele>551.416555</ele>
        <time>2021-05-15T22:11:42.467Z</time>
      </trkpt>
      <trkpt lat="43.04617" lon="0.40398">
        <ele>549.952945</ele>
        <time>2021-05-15T22:11:59.927Z</time>
      </trkpt>
      <trkpt lat="43.04632" lon="0.40427">
        <ele>549.155633</ele>
        <time>2021-05-15T22:12:04.239Z</time>
      </trkpt>
      <trkpt lat="43.04642" lon="0.4044">
        <ele>548.721216</ele>
        <time>2021-05-15T22:12:06.764Z</time>
      </trkpt>
      <trkpt lat="43.04663" lon="0.40467">
        <ele>547.810224</ele>
        <time>2021-05-15T22:12:11.675Z</time>
      </trkpt>
      <trkpt lat="43.0486" lon="0.40655">
        <ele>539.751247</ele>
        <time>2021-05-15T22:12:49.925Z</time>
      </trkpt>
      <trkpt lat="43.04872" lon="0.40663">
        <ele>539.297261</ele>
        <time>2021-05-15T22:12:51.810Z</time>
      </trkpt>
      <trkpt lat="43.04871" lon="0.40676">
        <ele>538.953654</ele>
        <time>2021-05-15T22:12:53.427Z</time>
      </trkpt>
      <trkpt lat="43.04858" lon="0.40739">
        <ele>537.603879</ele>
        <time>2021-05-15T22:13:01.275Z</time>
      </trkpt>
      <trkpt lat="43.04814" lon="0.40892">
        <ele>535.032679</ele>
        <time>2021-05-15T22:13:22.057Z</time>
      </trkpt>
      <trkpt lat="43.04783" lon="0.4102">
        <ele>533.791695</ele>
        <time>2021-05-15T22:13:41.705Z</time>
      </trkpt>
      <trkpt lat="43.0476" lon="0.41136">
        <ele>533.110275</ele>
        <time>2021-05-15T22:13:59.246Z</time>
      </trkpt>
      <trkpt lat="43.0476" lon="0.4115">
        <ele>533.030654</ele>
        <time>2021-05-15T22:14:01.426Z</time>
      </trkpt>
      <trkpt lat="43.04759" lon="0.41156">
        <ele>532.994267</ele>
        <time>2021-05-15T22:14:02.238Z</time>
      </trkpt>
      <trkpt lat="43.04798" lon="0.41326">
        <ele>532.579179</ele>
        <time>2021-05-15T22:14:29.000Z</time>
      </trkpt>
      <trkpt lat="43.04832" lon="0.41457">
        <ele>532.578558</ele>
        <time>2021-05-15T22:14:52.037Z</time>
      </trkpt>
      <trkpt lat="43.04844" lon="0.41573">
        <ele>532.965102</ele>
        <time>2021-05-15T22:15:13.447Z</time>
      </trkpt>
      <trkpt lat="43.04832" lon="0.41682">
        <ele>533.277293</ele>
        <time>2021-05-15T22:15:33.503Z</time>
      </trkpt>
      <trkpt lat="43.04828" lon="0.4176">
        <ele>533.414525</ele>
        <time>2021-05-15T22:15:46.905Z</time>
      </trkpt>
      <trkpt lat="43.04843" lon="0.41834">
        <ele>533.550723</ele>
        <time>2021-05-15T22:15:59.692Z</time>
      </trkpt>
      <trkpt lat="43.04857" lon="0.41867">
        <ele>533.61751</ele>
        <time>2021-05-15T22:16:05.866Z</time>
      </trkpt>
      <trkpt lat="43.04865" lon="0.4188">
        <ele>533.647473</ele>
        <time>2021-05-15T22:16:08.503Z</time>
      </trkpt>
      <trkpt lat="43.04885" lon="0.4191">
        <ele>533.662896</ele>
        <time>2021-05-15T22:16:14.927Z</time>
      </trkpt>
      <trkpt lat="43.04962" lon="0.42025">
        <ele>533.702969</ele>
        <time>2021-05-15T22:16:41.005Z</time>
      </trkpt>
      <trkpt lat="43.05002" lon="0.42084">
        <ele>533.484318</ele>
        <time>2021-05-15T22:16:54.132Z</time>
      </trkpt>
      <trkpt lat="43.05022" lon="0.42114">
        <ele>533.133768</ele>
        <time>2021-05-15T22:17:00.573Z</time>
      </trkpt>
      <trkpt lat="43.05053" lon="0.42159">
        <ele>532.604988</ele>
        <time>2021-05-15T22:17:09.382Z</time>
      </trkpt>
      <trkpt lat="43.05063" lon="0.42172">
        <ele>532.436544</ele>
        <time>2021-05-15T22:17:12.303Z</time>
      </trkpt>
      <trkpt lat="43.0509" lon="0.42206">
        <ele>532.015544</ele>
        <time>2021-05-15T22:17:18.854Z</time>
      </trkpt>
      <trkpt lat="43.05132" lon="0.42252">
        <ele>530.858506</ele>
        <time>2021-05-15T22:17:28.134Z</time>
      </trkpt>
      <trkpt lat="43.05185" lon="0.42324">
        <ele>527.962347</ele>
        <time>2021-05-15T22:17:40.165Z</time>
      </trkpt>
      <trkpt lat="43.05199" lon="0.42364">
        <ele>526.714636</ele>
        <time>2021-05-15T22:17:45.051Z</time>
      </trkpt>
      <trkpt lat="43.05221" lon="0.42496">
        <ele>522.895293</ele>
        <time>2021-05-15T22:18:00.241Z</time>
      </trkpt>
      <trkpt lat="43.05232" lon="0.42532">
        <ele>521.792143</ele>
        <time>2021-05-15T22:18:04.718Z</time>
      </trkpt>
      <trkpt lat="43.05242" lon="0.42546">
        <ele>521.249811</ele>
        <time>2021-05-15T22:18:06.848Z</time>
      </trkpt>
      <trkpt lat="43.05271" lon="0.4257">
        <ele>519.954448</ele>
        <time>2021-05-15T22:18:12.151Z</time>
      </trkpt>
      <trkpt lat="43.05326" lon="0.42599">
        <ele>517.699056</ele>
        <time>2021-05-15T22:18:21.848Z</time>
      </trkpt>
      <trkpt lat="43.05351" lon="0.42665">
        <ele>517.047438</ele>
        <time>2021-05-15T22:18:30.925Z</time>
      </trkpt>
      <trkpt lat="43.05359" lon="0.42677">
        <ele>516.903529</ele>
        <time>2021-05-15T22:18:33.110Z</time>
      </trkpt>
      <trkpt lat="43.0549" lon="0.42812">
        <ele>515.936454</ele>
        <time>2021-05-15T22:19:08.331Z</time>
      </trkpt>
      <trkpt lat="43.05507" lon="0.42826">
        <ele>516.073853</ele>
        <time>2021-05-15T22:19:12.969Z</time>
      </trkpt>
      <trkpt lat="43.05545" lon="0.42855">
        <ele>516.388645</ele>
        <time>2021-05-15T22:19:24.496Z</time>
      </trkpt>
      <trkpt lat="43.0557" lon="0.42866">
        <ele>516.581351</ele>
        <time>2021-05-15T22:19:31.283Z</time>
      </trkpt>
      <trkpt lat="43.05578" lon="0.42866">
        <ele>516.638106</ele>
        <time>2021-05-15T22:19:33.746Z</time>
      </trkpt>
      <trkpt lat="43.05597" lon="0.42868">
        <ele>516.772769</ele>
        <time>2021-05-15T22:19:38.735Z</time>
      </trkpt>
      <trkpt lat="43.05621" lon="0.42869">
        <ele>517.225016</ele>
        <time>2021-05-15T22:19:45.906Z</time>
      </trkpt>
      <trkpt lat="43.05629" lon="0.4287">
        <ele>517.442193</ele>
        <time>2021-05-15T22:19:47.751Z</time>
      </trkpt>
      <trkpt lat="43.05671" lon="0.42862">
        <ele>518.629643</ele>
        <time>2021-05-15T22:20:00.816Z</time>
      </trkpt>
      <trkpt lat="43.05689" lon="0.42857">
        <ele>519.165755</ele>
        <time>2021-05-15T22:20:07.009Z</time>
      </trkpt>
      <trkpt lat="43.05712" lon="0.4285">
        <ele>519.808539</ele>
        <time>2021-05-15T22:20:15.540Z</time>
      </trkpt>
      <trkpt lat="43.05744" lon="0.42843">
        <ele>520.739869</ele>
        <time>2021-05-15T22:20:27.918Z</time>
      </trkpt>
      <trkpt lat="43.05773" lon="0.42848">
        <ele>521.552974</ele>
        <time>2021-05-15T22:20:36.566Z</time>
      </trkpt>
      <trkpt lat="43.05844" lon="0.42882">
        <ele>524.131497</ele>
        <time>2021-05-15T22:21:05.555Z</time>
      </trkpt>
      <trkpt lat="43.05848" lon="0.42884">
        <ele>524.283669</ele>
        <time>2021-05-15T22:21:08.760Z</time>
      </trkpt>
      <trkpt lat="43.05927" lon="0.42928">
        <ele>527.347916</ele>
        <time>2021-05-15T22:21:41.412Z</time>
      </trkpt>
      <trkpt lat="43.0599" lon="0.4297">
        <ele>527.822735</ele>
        <time>2021-05-15T22:22:03.095Z</time>
      </trkpt>
      <trkpt lat="43.06004" lon="0.42989">
        <ele>527.57796</ele>
        <time>2021-05-15T22:22:06.950Z</time>
      </trkpt>
      <trkpt lat="43.06036" lon="0.4303">
        <ele>527.018534</ele>
        <time>2021-05-15T22:22:15.374Z</time>
      </trkpt>
      <trkpt lat="43.06064" lon="0.43094">
        <ele>526.336463</ele>
        <time>2021-05-15T22:22:24.403Z</time>
      </trkpt>
      <trkpt lat="43.0611" lon="0.43231">
        <ele>522.028226</ele>
        <time>2021-05-15T22:22:40.932Z</time>
      </trkpt>
      <trkpt lat="43.06181" lon="0.43352">
        <ele>517.505859</ele>
        <time>2021-05-15T22:22:58.393Z</time>
      </trkpt>
      <trkpt lat="43.06246" lon="0.43482">
        <ele>515.190906</ele>
        <time>2021-05-15T22:23:18.439Z</time>
      </trkpt>
      <trkpt lat="43.06325" lon="0.43559">
        <ele>514.798067</ele>
        <time>2021-05-15T22:23:40.751Z</time>
      </trkpt>
      <trkpt lat="43.06425" lon="0.43747">
        <ele>515.552513</ele>
        <time>2021-05-15T22:24:26.657Z</time>
      </trkpt>
      <trkpt lat="43.06426" lon="0.43752">
        <ele>515.538051</ele>
        <time>2021-05-15T22:24:27.853Z</time>
      </trkpt>
      <trkpt lat="43.06426" lon="0.43759">
        <ele>515.518111</ele>
        <time>2021-05-15T22:24:29.275Z</time>
      </trkpt>
      <trkpt lat="43.06401" lon="0.43853">
        <ele>515.246948</ele>
        <time>2021-05-15T22:24:44.777Z</time>
      </trkpt>
      <trkpt lat="43.06387" lon="0.43965">
        <ele>514.146137</ele>
        <time>2021-05-15T22:24:59.556Z</time>
      </trkpt>
      <trkpt lat="43.06386" lon="0.43978">
        <ele>513.864503</ele>
        <time>2021-05-15T22:25:01.074Z</time>
      </trkpt>
      <trkpt lat="43.06389" lon="0.44022">
        <ele>512.923459</ele>
        <time>2021-05-15T22:25:06.413Z</time>
      </trkpt>
      <trkpt lat="43.06394" lon="0.44067">
        <ele>511.954169</ele>
        <time>2021-05-15T22:25:11.844Z</time>
      </trkpt>
      <trkpt lat="43.06404" lon="0.44101">
        <ele>511.175569</ele>
        <time>2021-05-15T22:25:16.119Z</time>
      </trkpt>
      <trkpt lat="43.06412" lon="0.44138">
        <ele>510.343497</ele>
        <time>2021-05-15T22:25:20.663Z</time>
      </trkpt>
      <trkpt lat="43.0642" lon="0.44161">
        <ele>509.816886</ele>
        <time>2021-05-15T22:25:23.567Z</time>
      </trkpt>
      <trkpt lat="43.06417" lon="0.44167">
        <ele>509.68861</ele>
        <time>2021-05-15T22:25:24.383Z</time>
      </trkpt>
      <trkpt lat="43.06422" lon="0.44514">
        <ele>505.795291</ele>
        <time>2021-05-15T22:26:10.474Z</time>
      </trkpt>
      <trkpt lat="43.06414" lon="0.44538">
        <ele>505.897203</ele>
        <time>2021-05-15T22:26:15.549Z</time>
      </trkpt>
      <trkpt lat="43.06398" lon="0.44558">
        <ele>506.009821</ele>
        <time>2021-05-15T22:26:22.070Z</time>
      </trkpt>
      <trkpt lat="43.06381" lon="0.44581">
        <ele>506.135457</ele>
        <time>2021-05-15T22:26:30.916Z</time>
      </trkpt>
      <trkpt lat="43.06373" lon="0.44598">
        <ele>506.212761</ele>
        <time>2021-05-15T22:26:36.734Z</time>
      </trkpt>
      <trkpt lat="43.0635" lon="0.44678">
        <ele>507.729259</ele>
        <time>2021-05-15T22:27:00.346Z</time>
      </trkpt>
      <trkpt lat="43.06307" lon="0.44673">
        <ele>509.170328</ele>
        <time>2021-05-15T22:27:16.726Z</time>
      </trkpt>
      <trkpt lat="43.06288" lon="0.44671">
        <ele>509.813272</ele>
        <time>2021-05-15T22:27:24.702Z</time>
      </trkpt>
      <trkpt lat="43.06284" lon="0.44674">
        <ele>509.985478</ele>
        <time>2021-05-15T22:27:26.062Z</time>
      </trkpt>
      <trkpt lat="43.06272" lon="0.44726">
        <ele>511.312192</ele>
        <time>2021-05-15T22:27:41.428Z</time>
      </trkpt>
      <trkpt lat="43.0627" lon="0.44756">
        <ele>512.055134</ele>
        <time>2021-05-15T22:27:49.060Z</time>
      </trkpt>
      <trkpt lat="43.06273" lon="0.4478">
        <ele>512.548893</ele>
        <time>2021-05-15T22:27:54.102Z</time>
      </trkpt>
      <trkpt lat="43.06282" lon="0.44809">
        <ele>513.025637</ele>
        <time>2021-05-15T22:28:01.950Z</time>
      </trkpt>
      <trkpt lat="43.06279" lon="0.44862">
        <ele>513.824853</ele>
        <time>2021-05-15T22:28:13.114Z</time>
      </trkpt>
      <trkpt lat="43.06284" lon="0.45">
        <ele>515.917425</ele>
        <time>2021-05-15T22:28:40.340Z</time>
      </trkpt>
      <trkpt lat="43.06284" lon="0.45039">
        <ele>517.103931</ele>
        <time>2021-05-15T22:28:53.503Z</time>
      </trkpt>
      <trkpt lat="43.06286" lon="0.45088">
        <ele>518.93977</ele>
        <time>2021-05-15T22:29:09.445Z</time>
      </trkpt>
      <trkpt lat="43.06287" lon="0.45124">
        <ele>520.328143</ele>
        <time>2021-05-15T22:29:18.788Z</time>
      </trkpt>
      <trkpt lat="43.06284" lon="0.45156">
        <ele>521.549373</ele>
        <time>2021-05-15T22:29:31.278Z</time>
      </trkpt>
      <trkpt lat="43.06254" lon="0.45208">
        <ele>524.027844</ele>
        <time>2021-05-15T22:29:52.873Z</time>
      </trkpt>
      <trkpt lat="43.06251" lon="0.45215">
        <ele>524.302788</ele>
        <time>2021-05-15T22:29:57.991Z</time>
      </trkpt>
      <trkpt lat="43.06252" lon="0.45219">
        <ele>524.480909</ele>
        <time>2021-05-15T22:30:00.172Z</time>
      </trkpt>
      <trkpt lat="43.06272" lon="0.45262">
        <ele>525.818861</ele>
        <time>2021-05-15T22:30:18.307Z</time>
      </trkpt>
      <trkpt lat="43.06289" lon="0.4533">
        <ele>526.985972</ele>
        <time>2021-05-15T22:30:38.325Z</time>
      </trkpt>
      <trkpt lat="43.0635" lon="0.45431">
        <ele>529.152252</ele>
        <time>2021-05-15T22:31:07.467Z</time>
      </trkpt>
      <trkpt lat="43.0636" lon="0.45461">
        <ele>528.733086</ele>
        <time>2021-05-15T22:31:11.492Z</time>
      </trkpt>
      <trkpt lat="43.06368" lon="0.45514">
        <ele>526.548982</ele>
        <time>2021-05-15T22:31:17.948Z</time>
      </trkpt>
      <trkpt lat="43.06375" lon="0.45593">
        <ele>523.354217</ele>
        <time>2021-05-15T22:31:26.864Z</time>
      </trkpt>
      <trkpt lat="43.06374" lon="0.45612">
        <ele>522.586788</ele>
        <time>2021-05-15T22:31:28.899Z</time>
      </trkpt>
      <trkpt lat="43.06376" lon="0.45632">
        <ele>521.755987</ele>
        <time>2021-05-15T22:31:31.123Z</time>
      </trkpt>
      <trkpt lat="43.06376" lon="0.45738">
        <ele>517.500904</ele>
        <time>2021-05-15T22:31:42.657Z</time>
      </trkpt>
      <trkpt lat="43.06384" lon="0.45785">
        <ele>515.515253</ele>
        <time>2021-05-15T22:31:48.015Z</time>
      </trkpt>
      <trkpt lat="43.0639" lon="0.45806">
        <ele>514.609691</ele>
        <time>2021-05-15T22:31:50.415Z</time>
      </trkpt>
      <trkpt lat="43.06391" lon="0.45829">
        <ele>513.680543</ele>
        <time>2021-05-15T22:31:54.801Z</time>
      </trkpt>
      <trkpt lat="43.06412" lon="0.45937">
        <ele>509.422628</ele>
        <time>2021-05-15T22:32:18.507Z</time>
      </trkpt>
      <trkpt lat="43.06415" lon="0.45979">
        <ele>509.087488</ele>
        <time>2021-05-15T22:32:28.185Z</time>
      </trkpt>
      <trkpt lat="43.06414" lon="0.46002">
        <ele>508.900392</ele>
        <time>2021-05-15T22:32:33.130Z</time>
      </trkpt>
      <trkpt lat="43.06404" lon="0.46072">
        <ele>508.330855</ele>
        <time>2021-05-15T22:32:52.628Z</time>
      </trkpt>
      <trkpt lat="43.06395" lon="0.46304">
        <ele>507.587875</ele>
        <time>2021-05-15T22:33:54.372Z</time>
      </trkpt>
      <trkpt lat="43.06381" lon="0.46367">
        <ele>507.618788</ele>
        <time>2021-05-15T22:34:12.367Z</time>
      </trkpt>
      <trkpt lat="43.06352" lon="0.46458">
        <ele>508.041262</ele>
        <time>2021-05-15T22:34:40.843Z</time>
      </trkpt>
      <trkpt lat="43.06357" lon="0.46481">
        <ele>508.22897</ele>
        <time>2021-05-15T22:34:47.867Z</time>
      </trkpt>
      <trkpt lat="43.06402" lon="0.46512">
        <ele>508.769868</ele>
        <time>2021-05-15T22:35:08.463Z</time>
      </trkpt>
      <trkpt lat="43.06407" lon="0.46543">
        <ele>509.020469</ele>
        <time>2021-05-15T22:35:18.254Z</time>
      </trkpt>
      <trkpt lat="43.06436" lon="0.46853">
        <ele>512.432525</ele>
        <time>2021-05-15T22:36:58.174Z</time>
      </trkpt>
      <trkpt lat="43.06442" lon="0.46992">
        <ele>513.839519</ele>
        <time>2021-05-15T22:37:41.649Z</time>
      </trkpt>
      <trkpt lat="43.06449" lon="0.47034">
        <ele>514.273079</ele>
        <time>2021-05-15T22:37:54.981Z</time>
      </trkpt>
      <trkpt lat="43.06451" lon="0.47055">
        <ele>514.490291</ele>
        <time>2021-05-15T22:38:01.632Z</time>
      </trkpt>
      <trkpt lat="43.06434" lon="0.47176">
        <ele>515.671462</ele>
        <time>2021-05-15T22:38:39.567Z</time>
      </trkpt>
      <trkpt lat="43.0641" lon="0.47299">
        <ele>516.85917</ele>
        <time>2021-05-15T22:39:19.033Z</time>
      </trkpt>
      <trkpt lat="43.06404" lon="0.4734">
        <ele>517.25294</ele>
        <time>2021-05-15T22:39:32.077Z</time>
      </trkpt>
      <trkpt lat="43.06398" lon="0.47378">
        <ele>517.221628</ele>
        <time>2021-05-15T22:39:40.243Z</time>
      </trkpt>
      <trkpt lat="43.06383" lon="0.47448">
        <ele>517.133033</ele>
        <time>2021-05-15T22:39:54.213Z</time>
      </trkpt>
      <trkpt lat="43.06352" lon="0.47537">
        <ele>517.012138</ele>
        <time>2021-05-15T22:40:09.784Z</time>
      </trkpt>
      <trkpt lat="43.06349" lon="0.47559">
        <ele>516.984221</ele>
        <time>2021-05-15T22:40:13.172Z</time>
      </trkpt>
      <trkpt lat="43.06346" lon="0.47614">
        <ele>515.762979</ele>
        <time>2021-05-15T22:40:20.365Z</time>
      </trkpt>
      <trkpt lat="43.06346" lon="0.47618">
        <ele>515.625097</ele>
        <time>2021-05-15T22:40:20.903Z</time>
      </trkpt>
      <trkpt lat="43.0634" lon="0.47664">
        <ele>514.223276</ele>
        <time>2021-05-15T22:40:26.838Z</time>
      </trkpt>
      <trkpt lat="43.06337" lon="0.47707">
        <ele>512.923973</ele>
        <time>2021-05-15T22:40:31.972Z</time>
      </trkpt>
      <trkpt lat="43.06343" lon="0.4776">
        <ele>511.320484</ele>
        <time>2021-05-15T22:40:38.288Z</time>
      </trkpt>
      <trkpt lat="43.06342" lon="0.478">
        <ele>510.11393</ele>
        <time>2021-05-15T22:40:42.775Z</time>
      </trkpt>
      <trkpt lat="43.06342" lon="0.47815">
        <ele>509.642821</ele>
        <time>2021-05-15T22:40:44.507Z</time>
      </trkpt>
      <trkpt lat="43.06346" lon="0.47857">
        <ele>507.782933</ele>
        <time>2021-05-15T22:40:49.188Z</time>
      </trkpt>
      <trkpt lat="43.06347" lon="0.47876">
        <ele>506.887912</ele>
        <time>2021-05-15T22:40:51.283Z</time>
      </trkpt>
      <trkpt lat="43.06347" lon="0.47899">
        <ele>505.823503</ele>
        <time>2021-05-15T22:40:53.859Z</time>
      </trkpt>
      <trkpt lat="43.06345" lon="0.47929">
        <ele>504.472798</ele>
        <time>2021-05-15T22:40:57.068Z</time>
      </trkpt>
      <trkpt lat="43.06335" lon="0.47952">
        <ele>503.233541</ele>
        <time>2021-05-15T22:41:00.120Z</time>
      </trkpt>
      <trkpt lat="43.06323" lon="0.47965">
        <ele>502.258695</ele>
        <time>2021-05-15T22:41:02.425Z</time>
      </trkpt>
      <trkpt lat="43.06317" lon="0.47967">
        <ele>501.902165</ele>
        <time>2021-05-15T22:41:03.330Z</time>
      </trkpt>
      <trkpt lat="43.06296" lon="0.47987">
        <ele>500.25651</ele>
        <time>2021-05-15T22:41:07.305Z</time>
      </trkpt>
      <trkpt lat="43.06282" lon="0.48009">
        <ele>498.931811</ele>
        <time>2021-05-15T22:41:10.674Z</time>
      </trkpt>
      <trkpt lat="43.06263" lon="0.48048">
        <ele>497.139771</ele>
        <time>2021-05-15T22:41:15.983Z</time>
      </trkpt>
      <trkpt lat="43.06263" lon="0.4806">
        <ele>496.711063</ele>
        <time>2021-05-15T22:41:17.299Z</time>
      </trkpt>
      <trkpt lat="43.06279" lon="0.48126">
        <ele>494.28929</ele>
        <time>2021-05-15T22:41:25.028Z</time>
      </trkpt>
      <trkpt lat="43.06324" lon="0.48217">
        <ele>490.47615</ele>
        <time>2021-05-15T22:41:37.407Z</time>
      </trkpt>
      <trkpt lat="43.06334" lon="0.48233">
        <ele>489.75078</ele>
        <time>2021-05-15T22:41:39.677Z</time>
      </trkpt>
      <trkpt lat="43.06344" lon="0.48245">
        <ele>489.200247</ele>
        <time>2021-05-15T22:41:41.952Z</time>
      </trkpt>
      <trkpt lat="43.06348" lon="0.48246">
        <ele>489.042218</ele>
        <time>2021-05-15T22:41:42.647Z</time>
      </trkpt>
      <trkpt lat="43.06354" lon="0.48249">
        <ele>488.796287</ele>
        <time>2021-05-15T22:41:43.594Z</time>
      </trkpt>
      <trkpt lat="43.06362" lon="0.48253">
        <ele>488.45549</ele>
        <time>2021-05-15T22:41:44.897Z</time>
      </trkpt>
      <trkpt lat="43.06366" lon="0.48258">
        <ele>488.225369</ele>
        <time>2021-05-15T22:41:45.792Z</time>
      </trkpt>
      <trkpt lat="43.06383" lon="0.48262">
        <ele>487.567009</ele>
        <time>2021-05-15T22:41:48.583Z</time>
      </trkpt>
      <trkpt lat="43.06388" lon="0.48263">
        <ele>487.357871</ele>
        <time>2021-05-15T22:41:49.385Z</time>
      </trkpt>
      <trkpt lat="43.06391" lon="0.48274">
        <ele>487.033275</ele>
        <time>2021-05-15T22:41:50.625Z</time>
      </trkpt>
      <trkpt lat="43.06407" lon="0.48314">
        <ele>485.705023</ele>
        <time>2021-05-15T22:41:55.915Z</time>
      </trkpt>
      <trkpt lat="43.06423" lon="0.4835">
        <ele>484.469377</ele>
        <time>2021-05-15T22:42:00.842Z</time>
      </trkpt>
      <trkpt lat="43.06434" lon="0.48371">
        <ele>483.722202</ele>
        <time>2021-05-15T22:42:03.720Z</time>
      </trkpt>
      <trkpt lat="43.06433" lon="0.48377">
        <ele>483.521081</ele>
        <time>2021-05-15T22:42:04.616Z</time>
      </trkpt>
      <trkpt lat="43.06433" lon="0.48384">
        <ele>483.325761</ele>
        <time>2021-05-15T22:42:05.477Z</time>
      </trkpt>
      <trkpt lat="43.06436" lon="0.48394">
        <ele>483.00482</ele>
        <time>2021-05-15T22:42:06.759Z</time>
      </trkpt>
      <trkpt lat="43.06495" lon="0.48528">
        <ele>478.596514</ele>
        <time>2021-05-15T22:42:25.480Z</time>
      </trkpt>
      <trkpt lat="43.06524" lon="0.48583">
        <ele>476.68255</ele>
        <time>2021-05-15T22:42:33.772Z</time>
      </trkpt>
      <trkpt lat="43.06575" lon="0.48662">
        <ele>473.985567</ele>
        <time>2021-05-15T22:42:46.778Z</time>
      </trkpt>
      <trkpt lat="43.06658" lon="0.48725">
        <ele>470.92092</ele>
        <time>2021-05-15T22:43:02.656Z</time>
      </trkpt>
      <trkpt lat="43.06679" lon="0.48753">
        <ele>469.963628</ele>
        <time>2021-05-15T22:43:07.933Z</time>
      </trkpt>
      <trkpt lat="43.06684" lon="0.48755">
        <ele>469.781978</ele>
        <time>2021-05-15T22:43:08.801Z</time>
      </trkpt>
      <trkpt lat="43.06725" lon="0.48964">
        <ele>466.922148</ele>
        <time>2021-05-15T22:43:36.929Z</time>
      </trkpt>
      <trkpt lat="43.06745" lon="0.49086">
        <ele>466.030542</ele>
        <time>2021-05-15T22:43:55.349Z</time>
      </trkpt>
      <trkpt lat="43.06753" lon="0.4919">
        <ele>465.505733</ele>
        <time>2021-05-15T22:44:10.963Z</time>
      </trkpt>
      <trkpt lat="43.06753" lon="0.49265">
        <ele>465.153746</ele>
        <time>2021-05-15T22:44:22.298Z</time>
      </trkpt>
      <trkpt lat="43.06743" lon="0.49401">
        <ele>464.603877</ele>
        <time>2021-05-15T22:44:42.697Z</time>
      </trkpt>
      <trkpt lat="43.06746" lon="0.49505">
        <ele>464.177958</ele>
        <time>2021-05-15T22:44:58.058Z</time>
      </trkpt>
      <trkpt lat="43.06782" lon="0.49745">
        <ele>463.150847</ele>
        <time>2021-05-15T22:45:34.405Z</time>
      </trkpt>
      <trkpt lat="43.06779" lon="0.49787">
        <ele>463.060487</ele>
        <time>2021-05-15T22:45:40.660Z</time>
      </trkpt>
      <trkpt lat="43.06767" lon="0.49844">
        <ele>462.93128</ele>
        <time>2021-05-15T22:45:49.696Z</time>
      </trkpt>
      <trkpt lat="43.06707" lon="0.49971">
        <ele>462.779807</ele>
        <time>2021-05-15T22:46:13.486Z</time>
      </trkpt>
      <trkpt lat="43.06664" lon="0.50107">
        <ele>463.446115</ele>
        <time>2021-05-15T22:46:41.213Z</time>
      </trkpt>
      <trkpt lat="43.06633" lon="0.50198">
        <ele>463.786056</ele>
        <time>2021-05-15T22:46:59.923Z</time>
      </trkpt>
      <trkpt lat="43.06623" lon="0.50239">
        <ele>463.820334</ele>
        <time>2021-05-15T22:47:07.903Z</time>
      </trkpt>
      <trkpt lat="43.06619" lon="0.50281">
        <ele>463.853672</ele>
        <time>2021-05-15T22:47:15.448Z</time>
      </trkpt>
      <trkpt lat="43.0662" lon="0.5032">
        <ele>463.884433</ele>
        <time>2021-05-15T22:47:22.291Z</time>
      </trkpt>
      <trkpt lat="43.06639" lon="0.50388">
        <ele>463.942565</ele>
        <time>2021-05-15T22:47:33.625Z</time>
      </trkpt>
      <trkpt lat="43.06643" lon="0.50557">
        <ele>462.440963</ele>
        <time>2021-05-15T22:47:56.655Z</time>
      </trkpt>
      <trkpt lat="43.06643" lon="0.50564">
        <ele>462.372695</ele>
        <time>2021-05-15T22:47:57.472Z</time>
      </trkpt>
      <trkpt lat="43.06644" lon="0.50576">
        <ele>462.244367</ele>
        <time>2021-05-15T22:47:59.067Z</time>
      </trkpt>
      <trkpt lat="43.0667" lon="0.50714">
        <ele>460.892091</ele>
        <time>2021-05-15T22:48:18.058Z</time>
      </trkpt>
      <trkpt lat="43.06701" lon="0.50782">
        <ele>460.179635</ele>
        <time>2021-05-15T22:48:29.153Z</time>
      </trkpt>
      <trkpt lat="43.06708" lon="0.50817">
        <ele>459.865034</ele>
        <time>2021-05-15T22:48:34.314Z</time>
      </trkpt>
      <trkpt lat="43.06716" lon="0.50911">
        <ele>459.142885</ele>
        <time>2021-05-15T22:48:47.869Z</time>
      </trkpt>
      <trkpt lat="43.06717" lon="0.51011">
        <ele>458.640261</ele>
        <time>2021-05-15T22:49:02.278Z</time>
      </trkpt>
      <trkpt lat="43.06719" lon="0.51056">
        <ele>458.412641</ele>
        <time>2021-05-15T22:49:08.920Z</time>
      </trkpt>
      <trkpt lat="43.06727" lon="0.51101">
        <ele>458.181047</ele>
        <time>2021-05-15T22:49:15.763Z</time>
      </trkpt>
      <trkpt lat="43.06754" lon="0.51193">
        <ele>458.035167</ele>
        <time>2021-05-15T22:49:30.968Z</time>
      </trkpt>
      <trkpt lat="43.0676" lon="0.5123">
        <ele>458.025887</ele>
        <time>2021-05-15T22:49:36.837Z</time>
      </trkpt>
      <trkpt lat="43.06759" lon="0.51448">
        <ele>457.898147</ele>
        <time>2021-05-15T22:50:14.308Z</time>
      </trkpt>
      <trkpt lat="43.06739" lon="0.51662">
        <ele>456.917224</ele>
        <time>2021-05-15T22:50:47.793Z</time>
      </trkpt>
      <trkpt lat="43.06738" lon="0.51673">
        <ele>456.736397</ele>
        <time>2021-05-15T22:50:49.636Z</time>
      </trkpt>
      <trkpt lat="43.06726" lon="0.51765">
        <ele>455.34681</ele>
        <time>2021-05-15T22:51:01.077Z</time>
      </trkpt>
      <trkpt lat="43.0672" lon="0.51873">
        <ele>453.551071</ele>
        <time>2021-05-15T22:51:14.425Z</time>
      </trkpt>
      <trkpt lat="43.0672" lon="0.51894">
        <ele>453.051927</ele>
        <time>2021-05-15T22:51:16.815Z</time>
      </trkpt>
      <trkpt lat="43.06723" lon="0.51903">
        <ele>452.824736</ele>
        <time>2021-05-15T22:51:17.986Z</time>
      </trkpt>
      <trkpt lat="43.06754" lon="0.51936">
        <ele>451.57094</ele>
        <time>2021-05-15T22:51:24.250Z</time>
      </trkpt>
      <trkpt lat="43.06818" lon="0.51963">
        <ele>449.415375</ele>
        <time>2021-05-15T22:51:35.159Z</time>
      </trkpt>
      <trkpt lat="43.06832" lon="0.51973">
        <ele>448.886124</ele>
        <time>2021-05-15T22:51:37.943Z</time>
      </trkpt>
      <trkpt lat="43.06864" lon="0.51993">
        <ele>447.804038</ele>
        <time>2021-05-15T22:51:43.426Z</time>
      </trkpt>
      <trkpt lat="43.06872" lon="0.52">
        <ele>447.52539</ele>
        <time>2021-05-15T22:51:45.114Z</time>
      </trkpt>
      <trkpt lat="43.06873" lon="0.52003">
        <ele>447.439711</ele>
        <time>2021-05-15T22:51:45.592Z</time>
      </trkpt>
      <trkpt lat="43.06885" lon="0.52003">
        <ele>447.10765</ele>
        <time>2021-05-15T22:51:47.333Z</time>
      </trkpt>
      <trkpt lat="43.06953" lon="0.52018">
        <ele>445.064065</ele>
        <time>2021-05-15T22:51:58.745Z</time>
      </trkpt>
      <trkpt lat="43.06978" lon="0.52021">
        <ele>444.299139</ele>
        <time>2021-05-15T22:52:03.255Z</time>
      </trkpt>
      <trkpt lat="43.0699" lon="0.52029">
        <ele>443.919022</ele>
        <time>2021-05-15T22:52:05.181Z</time>
      </trkpt>
      <trkpt lat="43.07041" lon="0.52082">
        <ele>442.393322</ele>
        <time>2021-05-15T22:52:15.945Z</time>
      </trkpt>
      <trkpt lat="43.07045" lon="0.52088">
        <ele>442.281224</ele>
        <time>2021-05-15T22:52:16.960Z</time>
      </trkpt>
      <trkpt lat="43.07069" lon="0.52141">
        <ele>441.500011</ele>
        <time>2021-05-15T22:52:24.794Z</time>
      </trkpt>
      <trkpt lat="43.0708" lon="0.52164">
        <ele>441.143255</ele>
        <time>2021-05-15T22:52:28.545Z</time>
      </trkpt>
      <trkpt lat="43.07094" lon="0.52188">
        <ele>440.765148</ele>
        <time>2021-05-15T22:52:32.467Z</time>
      </trkpt>
      <trkpt lat="43.07142" lon="0.52264">
        <ele>439.777392</ele>
        <time>2021-05-15T22:52:46.932Z</time>
      </trkpt>
      <trkpt lat="43.07182" lon="0.52304">
        <ele>439.737056</ele>
        <time>2021-05-15T22:52:58.112Z</time>
      </trkpt>
      <trkpt lat="43.07212" lon="0.52324">
        <ele>439.710153</ele>
        <time>2021-05-15T22:53:05.630Z</time>
      </trkpt>
      <trkpt lat="43.07232" lon="0.52333">
        <ele>439.69277</ele>
        <time>2021-05-15T22:53:10.223Z</time>
      </trkpt>
      <trkpt lat="43.07238" lon="0.52336">
        <ele>439.687674</ele>
        <time>2021-05-15T22:53:11.939Z</time>
      </trkpt>
      <trkpt lat="43.07269" lon="0.52352">
        <ele>439.660664</ele>
        <time>2021-05-15T22:53:19.391Z</time>
      </trkpt>
      <trkpt lat="43.07273" lon="0.52355">
        <ele>439.656668</ele>
        <time>2021-05-15T22:53:20.799Z</time>
      </trkpt>
      <trkpt lat="43.07291" lon="0.52366">
        <ele>439.641784</ele>
        <time>2021-05-15T22:53:25.053Z</time>
      </trkpt>
      <trkpt lat="43.07297" lon="0.52373">
        <ele>439.636094</ele>
        <time>2021-05-15T22:53:26.728Z</time>
      </trkpt>
      <trkpt lat="43.07329" lon="0.52405">
        <ele>439.608821</ele>
        <time>2021-05-15T22:53:35.746Z</time>
      </trkpt>
      <trkpt lat="43.07335" lon="0.52413">
        <ele>439.602602</ele>
        <time>2021-05-15T22:53:38.139Z</time>
      </trkpt>
      <trkpt lat="43.07338" lon="0.52422">
        <ele>439.597633</ele>
        <time>2021-05-15T22:53:39.701Z</time>
      </trkpt>
      <trkpt lat="43.07339" lon="0.52429">
        <ele>439.594099</ele>
        <time>2021-05-15T22:53:40.962Z</time>
      </trkpt>
      <trkpt lat="43.07337" lon="0.52439">
        <ele>439.58917</ele>
        <time>2021-05-15T22:53:42.302Z</time>
      </trkpt>
      <trkpt lat="43.07318" lon="0.52486">
        <ele>439.561615</ele>
        <time>2021-05-15T22:53:51.321Z</time>
      </trkpt>
      <trkpt lat="43.07295" lon="0.52577">
        <ele>439.418734</ele>
        <time>2021-05-15T22:54:06.184Z</time>
      </trkpt>
      <trkpt lat="43.07292" lon="0.52687">
        <ele>438.646568</ele>
        <time>2021-05-15T22:54:21.975Z</time>
      </trkpt>
      <trkpt lat="43.07271" lon="0.52805">
        <ele>437.794731</ele>
        <time>2021-05-15T22:54:38.768Z</time>
      </trkpt>
      <trkpt lat="43.0726" lon="0.52912">
        <ele>436.821775</ele>
        <time>2021-05-15T22:54:53.699Z</time>
      </trkpt>
      <trkpt lat="43.07257" lon="0.52937">
        <ele>436.599758</ele>
        <time>2021-05-15T22:54:57.096Z</time>
      </trkpt>
      <trkpt lat="43.07253" lon="0.52956">
        <ele>436.421973</ele>
        <time>2021-05-15T22:54:59.794Z</time>
      </trkpt>
      <trkpt lat="43.07219" lon="0.53084">
        <ele>435.289494</ele>
        <time>2021-05-15T22:55:18.664Z</time>
      </trkpt>
      <trkpt lat="43.07209" lon="0.53138">
        <ele>434.904583</ele>
        <time>2021-05-15T22:55:26.433Z</time>
      </trkpt>
      <trkpt lat="43.0721" lon="0.53197">
        <ele>434.507034</ele>
        <time>2021-05-15T22:55:34.871Z</time>
      </trkpt>
      <trkpt lat="43.07201" lon="0.53316">
        <ele>433.749796</ele>
        <time>2021-05-15T22:55:52.351Z</time>
      </trkpt>
      <trkpt lat="43.07207" lon="0.53445">
        <ele>433.117576</ele>
        <time>2021-05-15T22:56:11.459Z</time>
      </trkpt>
      <trkpt lat="43.07207" lon="0.53592">
        <ele>432.484182</ele>
        <time>2021-05-15T22:56:33.133Z</time>
      </trkpt>
      <trkpt lat="43.07199" lon="0.53678">
        <ele>432.174943</ele>
        <time>2021-05-15T22:56:46.143Z</time>
      </trkpt>
      <trkpt lat="43.0719" lon="0.53716">
        <ele>432.031716</ele>
        <time>2021-05-15T22:56:52.113Z</time>
      </trkpt>
      <trkpt lat="43.07134" lon="0.53871">
        <ele>431.63849</ele>
        <time>2021-05-15T22:57:18.976Z</time>
      </trkpt>
      <trkpt lat="43.0713" lon="0.53894">
        <ele>431.599948</ele>
        <time>2021-05-15T22:57:22.669Z</time>
      </trkpt>
      <trkpt lat="43.07124" lon="0.53981">
        <ele>431.458963</ele>
        <time>2021-05-15T22:57:36.693Z</time>
      </trkpt>
      <trkpt lat="43.07111" lon="0.54199">
        <ele>431.031552</ele>
        <time>2021-05-15T22:58:10.918Z</time>
      </trkpt>
      <trkpt lat="43.07115" lon="0.54251">
        <ele>430.915696</ele>
        <time>2021-05-15T22:58:18.952Z</time>
      </trkpt>
      <trkpt lat="43.07116" lon="0.54276">
        <ele>430.802877</ele>
        <time>2021-05-15T22:58:22.686Z</time>
      </trkpt>
      <trkpt lat="43.07116" lon="0.54281">
        <ele>430.780889</ele>
        <time>2021-05-15T22:58:23.398Z</time>
      </trkpt>
      <trkpt lat="43.07116" lon="0.5429">
        <ele>430.737512</ele>
        <time>2021-05-15T22:58:24.851Z</time>
      </trkpt>
      <trkpt lat="43.07114" lon="0.543">
        <ele>430.693152</ele>
        <time>2021-05-15T22:58:26.294Z</time>
      </trkpt>
      <trkpt lat="43.07111" lon="0.54306">
        <ele>430.658483</ele>
        <time>2021-05-15T22:58:27.454Z</time>
      </trkpt>
      <trkpt lat="43.07108" lon="0.54313">
        <ele>430.62118</ele>
        <time>2021-05-15T22:58:28.689Z</time>
      </trkpt>
      <trkpt lat="43.07102" lon="0.54317">
        <ele>430.577959</ele>
        <time>2021-05-15T22:58:30.175Z</time>
      </trkpt>
      <trkpt lat="43.07095" lon="0.54325">
        <ele>430.52087</ele>
        <time>2021-05-15T22:58:32.138Z</time>
      </trkpt>
      <trkpt lat="43.07093" lon="0.54331">
        <ele>430.492769</ele>
        <time>2021-05-15T22:58:33.119Z</time>
      </trkpt>
      <trkpt lat="43.0709" lon="0.54372">
        <ele>430.305868</ele>
        <time>2021-05-15T22:58:39.364Z</time>
      </trkpt>
      <trkpt lat="43.07085" lon="0.54399">
        <ele>430.180074</ele>
        <time>2021-05-15T22:58:43.355Z</time>
      </trkpt>
      <trkpt lat="43.07078" lon="0.54421">
        <ele>430.067541</ele>
        <time>2021-05-15T22:58:47.212Z</time>
      </trkpt>
      <trkpt lat="43.07039" lon="0.54421">
        <ele>429.825744</ele>
        <time>2021-05-15T22:58:55.252Z</time>
      </trkpt>
      <trkpt lat="43.07036" lon="0.54423">
        <ele>429.810543</ele>
        <time>2021-05-15T22:58:56.006Z</time>
      </trkpt>
      <trkpt lat="43.07034" lon="0.54427">
        <ele>429.810543</ele>
        <time>2021-05-15T22:58:56.815Z</time>
      </trkpt>
      <trkpt lat="43.07031" lon="0.54451">
        <ele>429.810543</ele>
        <time>2021-05-15T22:59:00.608Z</time>
      </trkpt>
      <trkpt lat="43.07022" lon="0.54459">
        <ele>429.810543</ele>
        <time>2021-05-15T22:59:02.928Z</time>
      </trkpt>
      <trkpt lat="43.07016" lon="0.54459">
        <ele>429.810543</ele>
        <time>2021-05-15T22:59:04.305Z</time>
      </trkpt>
      <trkpt lat="43.07013" lon="0.54464">
        <ele>429.810543</ele>
        <time>2021-05-15T22:59:05.436Z</time>
      </trkpt>
      <trkpt lat="43.06996" lon="0.54484">
        <ele>429.810543</ele>
        <time>2021-05-15T22:59:11.631Z</time>
      </trkpt>
      <trkpt lat="43.06998" lon="0.54503">
        <ele>429.810543</ele>
        <time>2021-05-15T22:59:15.219Z</time>
      </trkpt>
      <trkpt lat="43.06987" lon="0.54506">
        <ele>429.810543</ele>
        <time>2021-05-15T22:59:18.367Z</time>
      </trkpt>
    </trkseg>
  </trk>
</gpx>